[[{"header":{"parameterUnit":"m.s-1","parameterCategory":1,"la1":31.0,"la2":29.5877,"lo1":-88.7671,"lo2":-86.6584,"dy":0.0162,"dx":0.0185,"nx":115,"ny":88,"refTime":"2024-03-24T18:00:00:Z","depth":0,"parameterNumber":2,"parameterNumberName":"U-component_of_WINDS"},"data":[0.0,0.0,0.0,0.0,0.0,0.0,0.0,0.0,0.0,0.0,0.0,0.0,0.0,0.0,0.0,0.0,0.0,0.0,0.0,0.0,0.0,0.0,0.0,0.0,0.0,0.0,0.0,0.0,0.0,0.0,0.0,0.0,0.0,0.0,0.0,0.0,0.0,0.0,0.0,0.0,0.0,0.0,0.0,0.0,0.0,0.0,0.0,0.0,0.0,0.0,0.0,0.0,0.0,0.0,0.0,0.0,0.0,0.0,0.0,0.0,0.0,0.0,0.0,0.0,0.0,0.0,0.0,0.0,0.0,0.0,0.0,0.0,0.0,0.0,0.0,0.0,0.0,0.0,0.0,0.0,0.0,0.0,0.0,0.0,0.0,0.0,0.0,0.0,0.0,0.0,0.0,0.0,0.0,0.0,0.0,0.0,0.0,0.0,0.0,0.0,0.0,0.0,0.0,0.0,0.0,0.0,0.0,0.0,0.0,0.0,0.0,0.0,0.0,0.0,0.0,0.0,0.0,0.0,0.0,0.0,0.0,0.0,0.0,0.0,0.0,0.0,0.0,0.0,0.0,0.0,0.0,0.0,0.0,0.0,0.0,0.0,0.0,0.0,0.0,0.0,0.0,0.0,0.0,0.0,0.0,0.0,0.0,0.0,0.0,0.0,0.0,0.0,0.0,0.0,0.0,0.0,0.0,0.0,0.0,0.0,0.0,0.0,0.0,0.0,0.0,0.0,0.0,0.0,0.0,0.0,0.0,0.0,0.0,0.0,0.0,0.0,0.0,0.0,0.0,0.0,0.0,0.0,0.0,0.0,0.0,0.0,0.0,0.0,0.0,0.0,0.0,0.0,0.0,0.0,0.0,0.0,0.0,0.0,0.0,0.0,0.0,0.0,0.0,0.0,0.0,0.0,0.0,0.0,0.0,0.0,0.0,0.0,0.0,0.0,0.0,0.0,0.0,0.0,0.0,0.0,0.0,0.0,0.0,0.0,0.0,0.0,0.0,0.0,0.0,0.0,0.0,0.0,0.0,0.0,0.0,0.0,0.0,0.0,0.0,0.0,0.0,0.0,0.0,0.0,0.0,0.0,0.0,0.0,0.0,0.0,0.0,0.0,0.0,0.0,0.0,0.0,0.0,0.0,0.0,0.0,0.0,0.0,0.0,0.0,0.0,0.0,0.0,0.0,0.0,0.0,0.0,0.0,0.0,0.0,0.0,0.0,0.0,0.0,0.0,0.0,0.0,0.0,0.0,0.0,0.0,0.0,0.0,0.0,0.0,0.0,0.0,0.0,0.0,0.0,0.0,0.0,0.0,0.0,0.0,0.0,0.0,0.0,0.0,0.0,0.0,0.0,0.0,0.0,0.0,0.0,0.0,0.0,0.0,0.0,0.0,0.0,0.0,0.0,0.0,0.0,0.0,0.0,0.0,0.0,0.0,0.0,0.0,0.0,0.0,0.0,0.0,0.0,0.0,0.0,0.0,0.0,0.0,0.0,0.0,0.0,0.0,0.0,0.0,0.0,0.0,0.0,0.0,0.0,0.0,0.0,0.0,0.0,0.0,0.0,0.0,0.0,0.0,0.0,0.0,0.0,0.0,0.0,0.0,0.0,0.0,0.0,0.0,0.0,0.0,0.0,0.0,0.0,0.0,0.0,0.0,0.0,0.0,0.0,0.0,0.0,0.0,0.0,0.0,0.0,0.0,0.0,0.0,0.0,0.0,0.0,0.0,0.0,0.0,0.0,0.0,0.0,0.0,0.0,0.0,0.0,0.0,0.0,0.0,0.0,0.0,0.0,0.0,0.0,0.0,0.0,0.0,0.0,0.0,0.0,0.0,0.0,0.0,0.0,0.0,0.0,0.0,0.0,0.0,0.0,0.0,0.0,0.0,0.0,0.0,0.0,0.0,0.0,0.0,0.0,0.0,0.0,0.0,0.0,0.0,0.0,0.0,0.0,0.0,0.0,0.0,0.0,0.0,0.0,0.0,0.0,0.0,0.0,0.0,0.0,0.0,0.0,0.0,0.0,0.0,0.0,0.0,0.0,0.0,0.0,0.0,0.0,0.0,0.0,0.0,0.0,0.0,0.0,0.0,0.0,0.0,0.0,0.0,0.0,0.0,0.0,0.0,0.0,0.0,0.0,0.0,0.0,0.0,0.0,0.0,0.0,0.0,0.0,0.0,0.0,0.0,0.0,0.0,0.0,0.0,0.0,0.0,0.0,0.0,0.0,0.0,0.0,0.0,0.0,0.0,0.0,0.0,0.0,0.0,0.0,0.0,0.0,0.0,0.0,0.0,0.0,0.0,0.0,0.0,0.0,0.0,0.0,0.0,0.0,0.0,0.0,0.0,0.0,0.0,0.0,0.0,0.0,0.0,0.0,0.0,0.0,0.0,0.0,0.0,0.0,0.0,0.0,0.0,0.0,0.0,0.0,0.0,0.0,0.0,0.0,0.0,0.0,0.0,0.0,0.0,0.0,0.0,0.0,0.0,0.0,0.0,0.0,0.0,0.0,0.0,0.0,0.0,0.0,0.0,0.0,0.0,0.0,0.0,0.0,0.0,0.0,0.0,0.0,0.0,0.0,0.0,0.0,0.0,0.0,0.0,0.0,0.0,0.0,0.0,0.0,0.0,0.0,0.0,0.0,0.0,0.0,0.0,0.0,0.0,0.0,0.0,0.0,0.0,0.0,0.0,0.0,0.0,0.0,0.0,0.0,0.0,0.0,0.0,0.0,0.0,0.0,0.0,0.0,0.0,0.0,0.0,0.0,0.0,0.0,0.0,0.0,0.0,0.0,0.0,0.0,0.0,0.0,0.0,0.0,0.0,0.0,0.0,0.0,0.0,0.0,0.0,0.0,0.0,0.0,0.0,0.0,0.0,0.0,0.0,0.0,0.0,0.0,0.0,0.0,0.0,0.0,0.0,0.0,0.0,0.0,0.0,0.0,0.0,0.0,0.0,0.0,0.0,0.0,0.0,0.0,0.0,0.0,0.0,0.0,0.0,0.0,0.0,0.0,0.0,0.0,0.0,0.0,0.0,0.0,0.0,0.0,0.0,0.0,0.0,0.0,0.0,0.0,0.0,0.0,0.0,0.0,0.0,0.0,0.0,0.0,0.0,0.0,0.0,0.0,0.0,0.0,0.0,0.0,0.0,0.0,0.0,0.0,0.0,0.0,0.0,0.0,0.0,0.0,0.0,0.0,0.0,0.0,0.0,0.0,0.0,0.0,0.0,0.0,0.0,0.0,0.0,0.0,0.0,0.0,0.0,0.0,0.0,0.0,0.0,0.0,0.0,0.0,0.0,0.0,0.0,0.0,0.0,0.0,0.0,0.0,0.0,0.0,0.0,0.0,0.0,0.0,0.0,0.0,0.0,0.0,0.0,0.0,0.0,0.0,0.0,0.0,0.0,0.0,0.0,0.0,0.0,0.0,0.0,0.0,0.0,0.0,0.0,0.0,0.0,0.0,0.0,0.0,0.0,0.0,0.0,0.0,0.0,0.0,0.0,0.0,0.0,0.0,0.0,0.0,0.0,0.0,0.0,0.0,0.0,0.0,0.0,0.0,0.0,0.0,0.0,0.0,0.0,0.0,0.0,0.0,0.0,0.0,0.0,0.0,0.0,0.0,0.0,0.0,0.0,0.0,0.0,0.0,0.0,0.0,0.0,0.0,0.0,0.0,0.0,0.0,0.0,0.0,0.0,0.0,0.0,0.0,0.0,0.0,0.0,0.0,0.0,0.0,0.0,0.0,0.0,0.0,0.0,0.0,0.0,0.0,0.0,0.0,0.0,0.0,0.0,0.0,0.0,0.0,0.0,0.0,0.0,0.0,0.0,0.0,0.0,0.0,0.0,0.0,0.0,0.0,0.0,0.0,0.0,0.0,0.0,0.0,0.0,0.0,0.0,0.0,0.0,0.0,0.0,0.0,0.0,0.0,0.0,0.0,0.0,0.0,0.0,0.0,0.0,0.0,0.0,0.0,0.0,0.0,0.0,0.0,0.0,0.0,0.0,0.0,0.0,0.0,0.0,0.0,0.0,0.0,0.0,0.0,0.0,0.0,0.0,0.0,0.0,0.0,0.0,0.0,0.0,0.0,0.0,0.0,0.0,0.0,0.0,0.0,0.0,0.0,0.0,0.0,0.0,0.0,0.0,0.0,0.0,0.0,0.0,0.0,0.0,0.0,0.0,0.0,0.0,0.0,0.0,0.0,0.0,0.0,0.0,0.0,0.0,0.0,0.0,0.0,0.0,0.0,0.0,0.0,0.0,0.0,-4.1172,0.0,0.0,0.0,0.0,0.0,0.0,0.0,0.0,0.0,0.0,0.0,0.0,0.0,0.0,0.0,0.0,0.0,0.0,0.0,0.0,0.0,0.0,0.0,0.0,0.0,0.0,0.0,0.0,0.0,0.0,0.0,0.0,0.0,0.0,0.0,0.0,0.0,0.0,0.0,0.0,0.0,0.0,0.0,0.0,0.0,0.0,0.0,0.0,0.0,0.0,0.0,0.0,0.0,0.0,0.0,0.0,0.0,0.0,0.0,0.0,0.0,0.0,0.0,0.0,0.0,0.0,0.0,0.0,0.0,0.0,0.0,0.0,0.0,0.0,0.0,0.0,0.0,0.0,0.0,0.0,0.0,0.0,0.0,0.0,0.0,0.0,0.0,0.0,0.0,0.0,0.0,0.0,0.0,0.0,0.0,0.0,0.0,0.0,0.0,0.0,0.0,0.0,0.0,0.0,0.0,0.0,0.0,0.0,0.0,0.0,-4.1172,-4.1172,-4.1172,-4.1172,-4.1172,0.0,0.0,0.0,0.0,0.0,0.0,0.0,0.0,0.0,0.0,0.0,0.0,0.0,0.0,0.0,0.0,0.0,0.0,0.0,0.0,0.0,0.0,0.0,0.0,0.0,0.0,0.0,0.0,0.0,0.0,0.0,0.0,0.0,0.0,0.0,0.0,0.0,0.0,0.0,0.0,0.0,0.0,0.0,0.0,0.0,0.0,0.0,0.0,0.0,0.0,0.0,0.0,0.0,0.0,0.0,0.0,0.0,0.0,0.0,0.0,0.0,0.0,0.0,0.0,0.0,0.0,0.0,0.0,0.0,0.0,0.0,0.0,0.0,0.0,0.0,0.0,0.0,0.0,0.0,0.0,0.0,0.0,0.0,0.0,0.0,0.0,0.0,0.0,0.0,0.0,0.0,0.0,0.0,0.0,0.0,0.0,0.0,0.0,0.0,0.0,0.0,0.0,0.0,0.0,0.0,0.0,0.0,0.0,0.0,0.0,0.0,0.0,-4.1172,-4.1172,-4.1172,0.0,0.0,0.0,0.0,0.0,0.0,0.0,0.0,0.0,0.0,0.0,0.0,0.0,0.0,0.0,0.0,0.0,0.0,0.0,0.0,0.0,0.0,0.0,0.0,0.0,0.0,0.0,0.0,0.0,0.0,0.0,0.0,0.0,0.0,0.0,0.0,0.0,0.0,0.0,0.0,0.0,0.0,0.0,0.0,0.0,0.0,0.0,0.0,0.0,0.0,0.0,0.0,0.0,0.0,0.0,0.0,0.0,0.0,0.0,0.0,0.0,0.0,0.0,0.0,0.0,0.0,0.0,0.0,0.0,0.0,0.0,0.0,0.0,0.0,0.0,0.0,0.0,0.0,0.0,0.0,0.0,0.0,0.0,0.0,0.0,0.0,0.0,0.0,0.0,0.0,0.0,0.0,0.0,0.0,0.0,0.0,0.0,0.0,0.0,0.0,0.0,0.0,0.0,0.0,0.0,0.0,0.0,0.0,0.0,0.0,-4.1562,-4.1191,-4.1172,0.0,-4.1172,0.0,0.0,0.0,0.0,0.0,0.0,0.0,0.0,0.0,0.0,0.0,0.0,0.0,0.0,0.0,0.0,0.0,0.0,0.0,0.0,0.0,0.0,0.0,0.0,0.0,0.0,0.0,0.0,0.0,0.0,0.0,0.0,0.0,0.0,0.0,0.0,0.0,0.0,0.0,0.0,0.0,0.0,0.0,0.0,0.0,0.0,0.0,0.0,0.0,0.0,0.0,0.0,0.0,0.0,0.0,0.0,0.0,0.0,0.0,0.0,0.0,0.0,0.0,0.0,0.0,0.0,0.0,0.0,0.0,0.0,0.0,0.0,0.0,0.0,0.0,0.0,0.0,0.0,0.0,0.0,0.0,0.0,0.0,0.0,0.0,0.0,0.0,0.0,0.0,0.0,0.0,0.0,0.0,0.0,0.0,0.0,0.0,0.0,0.0,0.0,0.0,0.0,0.0,0.0,0.0,0.0,0.0,0.0,0.0,0.0,-4.209,-4.1914,-4.168,-4.1426,0.0,0.0,0.0,0.0,0.0,0.0,0.0,0.0,0.0,0.0,0.0,0.0,0.0,0.0,0.0,0.0,0.0,0.0,0.0,0.0,0.0,0.0,0.0,0.0,0.0,0.0,0.0,0.0,0.0,0.0,0.0,0.0,0.0,0.0,0.0,0.0,0.0,0.0,0.0,0.0,0.0,0.0,0.0,0.0,0.0,0.0,0.0,0.0,0.0,0.0,0.0,0.0,0.0,0.0,0.0,0.0,0.0,0.0,0.0,0.0,0.0,0.0,0.0,0.0,0.0,0.0,0.0,0.0,0.0,0.0,0.0,0.0,0.0,0.0,0.0,0.0,0.0,0.0,0.0,0.0,0.0,0.0,0.0,0.0,0.0,0.0,0.0,0.0,0.0,0.0,0.0,0.0,0.0,0.0,0.0,0.0,0.0,0.0,0.0,0.0,0.0,0.0,0.0,0.0,0.0,0.0,0.0,0.0,0.0,0.0,-4.2773,-4.2558,-4.2422,-4.2129,-4.1836,-4.1523,0.0,0.0,0.0,0.0,0.0,0.0,0.0,0.0,0.0,0.0,0.0,0.0,0.0,0.0,0.0,0.0,0.0,0.0,0.0,0.0,0.0,0.0,0.0,0.0,0.0,0.0,0.0,0.0,0.0,0.0,0.0,0.0,0.0,0.0,0.0,0.0,0.0,0.0,0.0,0.0,0.0,0.0,0.0,0.0,0.0,0.0,0.0,0.0,0.0,0.0,0.0,0.0,0.0,0.0,0.0,0.0,0.0,0.0,0.0,0.0,0.0,0.0,0.0,0.0,0.0,0.0,0.0,0.0,0.0,0.0,0.0,0.0,0.0,0.0,0.0,0.0,0.0,0.0,0.0,0.0,0.0,0.0,0.0,0.0,0.0,0.0,0.0,0.0,0.0,0.0,0.0,0.0,0.0,0.0,0.0,0.0,0.0,0.0,0.0,0.0,0.0,0.0,0.0,0.0,0.0,0.0,0.0,0.0,-4.3206,-4.3086,-4.2851,-4.2461,-4.2402,-4.2383,0.0,0.0,0.0,0.0,0.0,0.0,0.0,0.0,0.0,0.0,0.0,0.0,0.0,0.0,0.0,0.0,0.0,0.0,0.0,0.0,0.0,0.0,0.0,0.0,0.0,0.0,0.0,0.0,0.0,0.0,0.0,0.0,0.0,0.0,0.0,0.0,0.0,0.0,0.0,0.0,0.0,0.0,0.0,0.0,0.0,0.0,0.0,0.0,0.0,0.0,0.0,0.0,0.0,0.0,0.0,0.0,0.0,0.0,0.0,0.0,0.0,0.0,0.0,0.0,0.0,0.0,0.0,0.0,0.0,0.0,0.0,0.0,0.0,0.0,0.0,0.0,0.0,0.0,0.0,0.0,0.0,0.0,0.0,0.0,0.0,0.0,0.0,0.0,0.0,0.0,0.0,0.0,0.0,0.0,0.0,0.0,0.0,0.0,0.0,0.0,0.0,0.0,0.0,0.0,0.0,0.0,0.0,0.0,0.0,-4.4297,-4.4062,-4.3574,-4.2891,-4.2851,-4.2715,0.0,0.0,0.0,0.0,0.0,0.0,0.0,0.0,0.0,0.0,0.0,0.0,0.0,0.0,0.0,0.0,0.0,0.0,0.0,0.0,0.0,0.0,0.0,0.0,0.0,0.0,0.0,0.0,0.0,0.0,0.0,0.0,0.0,0.0,0.0,0.0,0.0,0.0,0.0,0.0,0.0,0.0,0.0,0.0,0.0,0.0,0.0,0.0,0.0,0.0,0.0,0.0,0.0,0.0,0.0,0.0,0.0,0.0,0.0,0.0,0.0,0.0,0.0,0.0,0.0,0.0,0.0,0.0,0.0,0.0,0.0,0.0,0.0,0.0,0.0,0.0,0.0,0.0,0.0,0.0,0.0,0.0,0.0,0.0,0.0,0.0,0.0,0.0,0.0,0.0,0.0,0.0,0.0,0.0,0.0,0.0,0.0,0.0,0.0,0.0,0.0,0.0,0.0,0.0,0.0,0.0,0.0,0.0,0.0,-4.5,0.0,-4.4316,-4.375,-4.3574,-4.3359,0.0,0.0,0.0,0.0,0.0,0.0,0.0,0.0,0.0,0.0,0.0,0.0,0.0,0.0,0.0,0.0,0.0,0.0,0.0,0.0,0.0,0.0,0.0,0.0,0.0,0.0,0.0,0.0,0.0,0.0,0.0,0.0,0.0,0.0,0.0,0.0,0.0,0.0,0.0,0.0,0.0,0.0,0.0,0.0,0.0,0.0,0.0,0.0,0.0,0.0,0.0,0.0,0.0,0.0,0.0,0.0,0.0,0.0,0.0,0.0,0.0,0.0,0.0,0.0,0.0,0.0,0.0,0.0,0.0,0.0,0.0,0.0,0.0,0.0,0.0,0.0,0.0,0.0,0.0,0.0,0.0,0.0,0.0,0.0,0.0,0.0,0.0,0.0,0.0,0.0,0.0,0.0,0.0,0.0,0.0,0.0,0.0,0.0,0.0,0.0,0.0,0.0,0.0,0.0,0.0,0.0,0.0,0.0,-4.5098,-4.5058,-4.5078,-4.5058,-4.5,-4.4609,-4.4394,0.0,0.0,0.0,0.0,0.0,0.0,0.0,0.0,0.0,0.0,0.0,0.0,0.0,0.0,0.0,0.0,0.0,0.0,0.0,0.0,0.0,0.0,0.0,0.0,0.0,0.0,0.0,0.0,0.0,0.0,0.0,0.0,0.0,0.0,0.0,0.0,0.0,0.0,0.0,0.0,0.0,0.0,0.0,0.0,0.0,0.0,0.0,0.0,0.0,0.0,0.0,0.0,0.0,0.0,0.0,0.0,0.0,0.0,0.0,0.0,0.0,0.0,0.0,0.0,0.0,0.0,0.0,0.0,0.0,0.0,0.0,0.0,0.0,0.0,0.0,0.0,0.0,0.0,0.0,0.0,0.0,0.0,0.0,0.0,0.0,0.0,0.0,0.0,0.0,0.0,0.0,0.0,0.0,0.0,0.0,0.0,0.0,0.0,0.0,0.0,0.0,0.0,0.0,0.0,0.0,0.0,0.0,0.0,0.0,-4.6367,-4.6328,-4.6055,-4.5508,-4.5351,-4.5137,0.0,0.0,0.0,0.0,0.0,0.0,0.0,0.0,0.0,0.0,0.0,0.0,0.0,0.0,0.0,0.0,0.0,0.0,0.0,0.0,0.0,0.0,0.0,0.0,0.0,0.0,0.0,0.0,0.0,0.0,0.0,0.0,0.0,0.0,0.0,0.0,0.0,0.0,0.0,0.0,0.0,0.0,0.0,0.0,0.0,0.0,0.0,0.0,0.0,0.0,0.0,0.0,0.0,0.0,0.0,0.0,0.0,0.0,0.0,0.0,0.0,0.0,0.0,0.0,0.0,0.0,0.0,0.0,0.0,0.0,0.0,0.0,0.0,0.0,0.0,0.0,0.0,0.0,0.0,0.0,0.0,0.0,0.0,0.0,0.0,0.0,0.0,0.0,0.0,0.0,0.0,0.0,0.0,0.0,0.0,0.0,0.0,0.0,0.0,0.0,0.0,0.0,0.0,0.0,0.0,0.0,0.0,0.0,0.0,-4.8144,-4.7656,-4.7148,-4.6621,-4.6308,-4.5937,-4.5527,0.0,0.0,0.0,0.0,0.0,0.0,0.0,0.0,0.0,0.0,0.0,0.0,0.0,0.0,0.0,0.0,0.0,0.0,0.0,0.0,0.0,0.0,0.0,0.0,0.0,0.0,0.0,0.0,0.0,0.0,0.0,0.0,0.0,0.0,0.0,0.0,0.0,0.0,0.0,0.0,0.0,0.0,0.0,0.0,0.0,0.0,0.0,0.0,0.0,0.0,0.0,0.0,0.0,0.0,0.0,0.0,0.0,0.0,0.0,0.0,0.0,0.0,0.0,0.0,0.0,0.0,0.0,0.0,0.0,0.0,0.0,0.0,0.0,0.0,0.0,0.0,0.0,0.0,0.0,0.0,0.0,0.0,0.0,0.0,0.0,0.0,0.0,0.0,0.0,0.0,0.0,0.0,0.0,0.0,0.0,0.0,0.0,0.0,0.0,0.0,0.0,0.0,0.0,0.0,0.0,0.0,0.0,0.0,-5.0312,-4.9082,-4.8398,-4.817,-4.7371,-4.6747,0.0,0.0,0.0,0.0,0.0,0.0,0.0,0.0,0.0,0.0,0.0,0.0,0.0,0.0,0.0,0.0,0.0,0.0,0.0,0.0,0.0,0.0,0.0,0.0,0.0,0.0,0.0,0.0,0.0,0.0,0.0,0.0,0.0,0.0,0.0,0.0,0.0,0.0,0.0,0.0,0.0,0.0,0.0,0.0,0.0,0.0,0.0,0.0,0.0,0.0,0.0,0.0,0.0,0.0,0.0,0.0,0.0,0.0,0.0,0.0,0.0,0.0,0.0,0.0,0.0,0.0,0.0,0.0,0.0,0.0,0.0,0.0,0.0,0.0,0.0,0.0,0.0,0.0,0.0,0.0,0.0,0.0,0.0,0.0,0.0,0.0,0.0,0.0,0.0,0.0,0.0,0.0,0.0,0.0,0.0,0.0,0.0,0.0,0.0,0.0,0.0,0.0,0.0,0.0,0.0,0.0,0.0,0.0,0.0,-5.1992,-5.1406,-5.0278,-4.866,-4.81,-4.7434,0.0,0.0,0.0,0.0,0.0,0.0,0.0,0.0,0.0,0.0,0.0,0.0,0.0,0.0,0.0,0.0,0.0,0.0,0.0,0.0,0.0,0.0,0.0,0.0,0.0,0.0,0.0,0.0,0.0,0.0,0.0,0.0,0.0,0.0,0.0,0.0,0.0,0.0,0.0,0.0,0.0,0.0,0.0,0.0,0.0,0.0,0.0,0.0,0.0,0.0,0.0,0.0,0.0,0.0,0.0,0.0,0.0,0.0,0.0,0.0,0.0,0.0,0.0,0.0,0.0,0.0,0.0,0.0,0.0,0.0,0.0,0.0,0.0,0.0,0.0,0.0,0.0,0.0,0.0,0.0,0.0,0.0,0.0,0.0,0.0,0.0,0.0,0.0,0.0,0.0,0.0,0.0,0.0,0.0,0.0,0.0,0.0,0.0,0.0,0.0,0.0,0.0,0.0,0.0,0.0,0.0,0.0,0.0,-5.248,-5.2969,-5.2754,-5.1852,-5.0085,-4.932,-4.8269,0.0,0.0,0.0,0.0,0.0,0.0,0.0,0.0,0.0,0.0,0.0,0.0,0.0,0.0,0.0,0.0,0.0,0.0,0.0,0.0,0.0,0.0,0.0,0.0,0.0,0.0,0.0,0.0,0.0,0.0,0.0,0.0,0.0,0.0,0.0,0.0,0.0,0.0,0.0,0.0,0.0,0.0,0.0,0.0,0.0,0.0,0.0,0.0,0.0,0.0,0.0,0.0,0.0,0.0,0.0,0.0,0.0,0.0,0.0,0.0,0.0,0.0,0.0,0.0,0.0,0.0,0.0,0.0,0.0,0.0,0.0,0.0,0.0,0.0,0.0,0.0,0.0,0.0,0.0,0.0,0.0,0.0,0.0,0.0,0.0,0.0,0.0,0.0,0.0,0.0,0.0,0.0,0.0,0.0,0.0,0.0,0.0,0.0,0.0,0.0,0.0,0.0,0.0,0.0,0.0,0.0,0.0,0.0,-5.3476,-5.3555,-5.3555,-5.3009,-5.1859,-5.0678,-4.9148,0.0,0.0,0.0,0.0,0.0,0.0,0.0,0.0,0.0,0.0,0.0,0.0,0.0,0.0,0.0,0.0,0.0,0.0,0.0,0.0,0.0,0.0,0.0,0.0,0.0,0.0,0.0,0.0,0.0,0.0,0.0,0.0,0.0,0.0,0.0,0.0,0.0,0.0,0.0,0.0,0.0,0.0,0.0,0.0,0.0,0.0,0.0,0.0,0.0,0.0,0.0,0.0,0.0,0.0,0.0,0.0,0.0,0.0,0.0,0.0,0.0,0.0,0.0,0.0,0.0,0.0,0.0,0.0,0.0,0.0,0.0,0.0,0.0,0.0,0.0,0.0,0.0,0.0,0.0,0.0,0.0,0.0,0.0,0.0,0.0,0.0,0.0,0.0,0.0,0.0,0.0,0.0,0.0,0.0,0.0,0.0,0.0,0.0,0.0,0.0,0.0,0.0,0.0,0.0,0.0,0.0,0.0,0.0,-5.4219,-5.4863,-5.4902,-5.4054,-5.2249,-5.072,-4.9173,0.0,0.0,0.0,0.0,0.0,0.0,0.0,0.0,0.0,0.0,0.0,0.0,0.0,0.0,0.0,0.0,0.0,0.0,0.0,0.0,0.0,0.0,0.0,0.0,0.0,0.0,0.0,0.0,0.0,0.0,0.0,0.0,0.0,0.0,0.0,0.0,0.0,0.0,0.0,0.0,0.0,0.0,0.0,0.0,0.0,0.0,0.0,0.0,-3.4076,0.0,0.0,0.0,0.0,0.0,0.0,0.0,0.0,0.0,0.0,0.0,0.0,0.0,0.0,0.0,0.0,0.0,0.0,0.0,0.0,0.0,0.0,0.0,0.0,0.0,0.0,0.0,0.0,0.0,0.0,0.0,0.0,0.0,0.0,0.0,0.0,0.0,0.0,0.0,0.0,0.0,0.0,0.0,0.0,0.0,0.0,0.0,0.0,0.0,0.0,0.0,0.0,0.0,0.0,0.0,0.0,0.0,0.0,0.0,-5.5234,-5.5879,-5.5387,-5.456,-5.3054,-5.1516,-4.9766,0.0,0.0,0.0,0.0,0.0,0.0,0.0,0.0,0.0,0.0,0.0,0.0,0.0,0.0,0.0,0.0,0.0,0.0,0.0,0.0,0.0,0.0,0.0,0.0,0.0,0.0,0.0,0.0,0.0,0.0,0.0,0.0,0.0,0.0,0.0,0.0,0.0,0.0,0.0,0.0,0.0,0.0,0.0,0.0,0.0,0.0,0.0,0.0,0.0,0.0,0.0,0.0,0.0,0.0,0.0,0.0,0.0,0.0,0.0,0.0,0.0,0.0,0.0,0.0,0.0,0.0,0.0,0.0,0.0,0.0,0.0,0.0,0.0,0.0,0.0,0.0,0.0,0.0,0.0,0.0,0.0,0.0,0.0,0.0,0.0,0.0,0.0,0.0,0.0,0.0,0.0,0.0,0.0,0.0,0.0,0.0,0.0,0.0,0.0,0.0,0.0,0.0,0.0,0.0,0.0,0.0,0.0,-5.5566,-5.625,-5.664,-5.5795,-5.4877,-5.3927,-5.2466,-5.0652,-4.8634,0.0,0.0,0.0,0.0,0.0,0.0,0.0,0.0,0.0,0.0,0.0,0.0,0.0,0.0,0.0,0.0,0.0,0.0,0.0,0.0,0.0,0.0,0.0,0.0,0.0,0.0,0.0,0.0,0.0,0.0,0.0,0.0,0.0,0.0,0.0,0.0,0.0,0.0,-3.7553,-3.7518,0.0,0.0,0.0,0.0,0.0,0.0,0.0,0.0,-3.4748,0.0,0.0,0.0,0.0,0.0,0.0,0.0,0.0,0.0,0.0,0.0,0.0,0.0,0.0,0.0,0.0,0.0,0.0,0.0,0.0,0.0,0.0,0.0,0.0,0.0,0.0,0.0,0.0,0.0,0.0,0.0,0.0,0.0,0.0,0.0,0.0,0.0,0.0,0.0,0.0,0.0,0.0,0.0,0.0,0.0,0.0,0.0,0.0,0.0,0.0,0.0,0.0,0.0,0.0,0.0,0.0,-5.4668,-5.5879,-5.668,-5.709,-5.6511,-5.5739,-5.4674,-5.3328,-5.1757,-4.9845,0.0,0.0,0.0,0.0,0.0,0.0,0.0,0.0,0.0,0.0,0.0,0.0,0.0,0.0,0.0,0.0,0.0,0.0,0.0,0.0,0.0,0.0,0.0,0.0,0.0,0.0,0.0,0.0,0.0,0.0,0.0,0.0,0.0,0.0,0.0,0.0,0.0,0.0,0.0,-3.8837,-3.8614,0.0,0.0,0.0,0.0,0.0,0.0,0.0,0.0,-3.4783,0.0,0.0,0.0,0.0,0.0,0.0,0.0,0.0,0.0,0.0,0.0,0.0,0.0,0.0,0.0,0.0,0.0,0.0,0.0,0.0,0.0,0.0,0.0,0.0,0.0,0.0,0.0,0.0,0.0,0.0,0.0,0.0,0.0,0.0,0.0,0.0,0.0,0.0,0.0,0.0,0.0,0.0,0.0,0.0,0.0,0.0,0.0,0.0,0.0,0.0,0.0,0.0,0.0,0.0,0.0,-5.5644,-5.6484,-5.7118,-5.7414,-5.6481,-5.5407,-5.4449,-5.3107,-5.1577,0.0,0.0,0.0,0.0,0.0,0.0,0.0,0.0,0.0,0.0,0.0,0.0,0.0,0.0,0.0,0.0,0.0,0.0,0.0,0.0,0.0,0.0,0.0,0.0,0.0,0.0,0.0,0.0,0.0,0.0,0.0,0.0,0.0,0.0,0.0,0.0,0.0,0.0,0.0,0.0,-4.0679,-4.0715,-4.0258,0.0,0.0,0.0,0.0,0.0,0.0,-3.6963,-3.5757,0.0,0.0,0.0,0.0,0.0,0.0,0.0,0.0,0.0,0.0,0.0,0.0,0.0,0.0,0.0,0.0,0.0,0.0,0.0,0.0,0.0,0.0,0.0,0.0,0.0,0.0,0.0,0.0,0.0,0.0,0.0,0.0,0.0,0.0,0.0,0.0,0.0,0.0,0.0,0.0,0.0,0.0,0.0,0.0,0.0,0.0,0.0,0.0,0.0,0.0,0.0,0.0,0.0,0.0,0.0,-5.6406,-5.7129,-5.7484,-5.7571,-5.6425,-5.5326,-5.4258,-5.2771,-5.1403,0.0,0.0,0.0,0.0,0.0,0.0,0.0,0.0,0.0,0.0,0.0,0.0,0.0,0.0,0.0,0.0,0.0,0.0,0.0,0.0,0.0,0.0,0.0,0.0,0.0,0.0,0.0,0.0,0.0,0.0,0.0,0.0,0.0,0.0,0.0,0.0,0.0,0.0,0.0,0.0,0.0,-4.2789,-4.2101,-4.1905,0.0,0.0,0.0,0.0,-3.9916,-3.8187,0.0,0.0,0.0,0.0,0.0,0.0,0.0,0.0,0.0,0.0,0.0,0.0,0.0,0.0,0.0,0.0,0.0,0.0,0.0,0.0,0.0,0.0,0.0,0.0,0.0,0.0,0.0,0.0,0.0,0.0,0.0,0.0,0.0,0.0,0.0,0.0,0.0,0.0,0.0,0.0,0.0,0.0,0.0,0.0,0.0,0.0,0.0,0.0,0.0,0.0,0.0,0.0,0.0,0.0,0.0,0.0,-5.6015,-5.7578,-5.8106,-5.7629,-5.6977,-5.6156,-5.506,-5.3048,-5.1532,0.0,0.0,0.0,0.0,0.0,0.0,0.0,0.0,0.0,0.0,0.0,0.0,0.0,0.0,0.0,0.0,0.0,0.0,0.0,0.0,0.0,0.0,0.0,0.0,0.0,0.0,0.0,0.0,0.0,0.0,0.0,0.0,0.0,0.0,0.0,0.0,0.0,0.0,0.0,0.0,0.0,-4.4169,-4.401,-4.3652,-4.314,0.0,0.0,-4.144,-4.144,-3.9664,0.0,0.0,0.0,0.0,0.0,0.0,0.0,0.0,0.0,0.0,0.0,0.0,0.0,0.0,0.0,0.0,0.0,0.0,0.0,0.0,0.0,0.0,0.0,0.0,0.0,0.0,0.0,0.0,0.0,0.0,0.0,0.0,0.0,0.0,0.0,0.0,0.0,0.0,0.0,0.0,0.0,0.0,0.0,0.0,0.0,0.0,0.0,0.0,0.0,0.0,0.0,0.0,0.0,0.0,0.0,-5.4902,-5.6621,-5.731,-5.774,-5.7739,-5.6533,-5.5506,-5.4672,-5.2887,-5.155,0.0,0.0,0.0,0.0,0.0,0.0,0.0,0.0,0.0,0.0,0.0,0.0,0.0,0.0,0.0,0.0,0.0,0.0,0.0,0.0,0.0,0.0,0.0,0.0,0.0,0.0,0.0,0.0,0.0,0.0,0.0,0.0,0.0,0.0,0.0,0.0,0.0,0.0,0.0,0.0,0.0,0.0,-4.6502,-4.6027,0.0,0.0,0.0,-4.3238,-4.3032,0.0,0.0,0.0,0.0,0.0,0.0,0.0,0.0,0.0,0.0,0.0,0.0,0.0,0.0,0.0,0.0,0.0,0.0,0.0,0.0,0.0,0.0,0.0,0.0,0.0,0.0,0.0,0.0,0.0,0.0,0.0,0.0,0.0,0.0,0.0,0.0,0.0,0.0,0.0,0.0,0.0,0.0,0.0,0.0,0.0,0.0,0.0,0.0,0.0,0.0,0.0,0.0,0.0,0.0,0.0,0.0,0.0,-5.7168,-5.7317,-5.7556,-5.7988,-5.6553,-5.5302,-5.4542,-5.2979,0.0,0.0,0.0,0.0,0.0,0.0,0.0,0.0,0.0,0.0,0.0,0.0,0.0,0.0,0.0,0.0,0.0,0.0,0.0,0.0,0.0,0.0,0.0,0.0,0.0,0.0,0.0,-4.0913,0.0,0.0,0.0,0.0,0.0,0.0,0.0,0.0,0.0,0.0,0.0,0.0,0.0,0.0,-4.9676,-4.8983,-4.8447,-4.7722,0.0,0.0,-4.5168,-4.4608,-4.3275,-4.1963,0.0,0.0,0.0,0.0,0.0,0.0,0.0,0.0,0.0,0.0,0.0,0.0,0.0,0.0,0.0,0.0,0.0,0.0,0.0,0.0,0.0,0.0,0.0,0.0,0.0,0.0,0.0,0.0,0.0,0.0,0.0,0.0,0.0,0.0,0.0,0.0,0.0,0.0,0.0,0.0,0.0,0.0,0.0,0.0,0.0,0.0,0.0,0.0,0.0,0.0,0.0,0.0,0.0,0.0,-5.5488,-5.7168,-5.7937,-5.8378,-5.8302,-5.7644,-5.6553,-5.5227,-5.3345,-5.21,0.0,0.0,0.0,0.0,0.0,0.0,0.0,0.0,0.0,0.0,0.0,0.0,0.0,0.0,0.0,0.0,0.0,0.0,0.0,0.0,0.0,0.0,0.0,0.0,0.0,0.0,0.0,0.0,0.0,0.0,0.0,0.0,0.0,0.0,0.0,0.0,0.0,0.0,0.0,0.0,0.0,-5.1119,-5.0935,-5.054,-4.974,0.0,0.0,-4.7131,-4.6235,-4.5023,-4.3758,-4.246,0.0,0.0,0.0,0.0,0.0,0.0,0.0,0.0,0.0,0.0,0.0,0.0,0.0,0.0,0.0,0.0,0.0,0.0,0.0,0.0,0.0,0.0,0.0,0.0,0.0,0.0,0.0,0.0,0.0,0.0,0.0,0.0,0.0,0.0,0.0,0.0,0.0,0.0,0.0,0.0,0.0,0.0,0.0,0.0,0.0,0.0,0.0,0.0,0.0,0.0,0.0,0.0,0.0,-5.5644,-5.7578,-5.762,-5.7909,-5.861,-5.7587,-5.6569,-5.5781,-5.4604,-5.3252,0.0,0.0,0.0,0.0,0.0,0.0,0.0,0.0,0.0,0.0,0.0,0.0,0.0,0.0,0.0,0.0,0.0,0.0,0.0,0.0,0.0,0.0,0.0,0.0,0.0,0.0,0.0,0.0,-4.1268,-4.1741,-4.3001,0.0,0.0,0.0,0.0,0.0,0.0,0.0,0.0,0.0,0.0,-5.2762,-5.2691,-5.2255,0.0,0.0,-4.9829,-4.8907,-4.8311,-4.7093,-4.5717,-4.4052,-4.2817,0.0,0.0,0.0,0.0,0.0,0.0,0.0,0.0,0.0,0.0,0.0,0.0,0.0,0.0,0.0,0.0,0.0,0.0,0.0,0.0,0.0,0.0,0.0,0.0,0.0,0.0,0.0,0.0,0.0,0.0,0.0,0.0,0.0,0.0,0.0,0.0,0.0,0.0,0.0,0.0,0.0,0.0,0.0,0.0,0.0,0.0,0.0,0.0,0.0,0.0,0.0,0.0,-5.5976,-5.7851,-5.7549,-5.8001,-5.8913,-5.7905,-5.7053,-5.6615,-5.5597,-5.4415,0.0,0.0,0.0,0.0,0.0,0.0,0.0,0.0,0.0,0.0,0.0,0.0,0.0,0.0,0.0,0.0,0.0,0.0,0.0,0.0,0.0,0.0,0.0,0.0,0.0,0.0,0.0,0.0,-4.2493,-4.3121,-4.4264,0.0,0.0,0.0,0.0,0.0,0.0,0.0,0.0,0.0,0.0,-5.4466,-5.4466,-5.413,-5.3649,-5.314,-5.1969,-5.0917,-5.0185,-4.9157,-4.7805,-4.5862,0.0,0.0,0.0,0.0,0.0,0.0,0.0,0.0,0.0,0.0,0.0,0.0,0.0,0.0,0.0,0.0,0.0,0.0,0.0,0.0,0.0,0.0,0.0,0.0,0.0,0.0,0.0,-5.18,0.0,0.0,-5.2489,0.0,0.0,0.0,0.0,0.0,0.0,0.0,0.0,0.0,0.0,0.0,0.0,0.0,0.0,0.0,0.0,0.0,0.0,0.0,0.0,0.0,0.0,-5.6543,-5.7851,-5.8281,-5.873,-5.918,-5.86,-5.8052,-5.761,-5.6234,-5.5071,-5.4288,0.0,0.0,0.0,0.0,0.0,0.0,0.0,0.0,0.0,0.0,0.0,0.0,0.0,0.0,0.0,0.0,0.0,0.0,0.0,0.0,0.0,0.0,0.0,0.0,0.0,0.0,-4.3472,-4.4342,-4.508,0.0,0.0,0.0,0.0,0.0,0.0,0.0,0.0,0.0,0.0,-5.5603,-5.6116,-5.6098,-5.6116,-5.5722,-5.4749,-5.4237,-5.352,-5.1965,-5.1243,-5.03,0.0,0.0,0.0,0.0,0.0,0.0,0.0,0.0,0.0,0.0,0.0,0.0,0.0,0.0,0.0,0.0,0.0,0.0,0.0,0.0,0.0,0.0,0.0,0.0,0.0,0.0,0.0,-5.2692,-5.3034,0.0,0.0,0.0,0.0,0.0,0.0,0.0,0.0,0.0,0.0,0.0,-5.2107,-5.1837,0.0,0.0,0.0,0.0,0.0,0.0,0.0,0.0,0.0,0.0,0.0,0.0,-5.6855,-5.7832,-5.832,-5.875,-5.918,-5.8956,-5.8878,-5.8722,-5.7666,-5.6082,-5.4092,0.0,0.0,0.0,0.0,0.0,0.0,0.0,0.0,0.0,0.0,0.0,0.0,0.0,0.0,0.0,0.0,0.0,0.0,0.0,0.0,0.0,0.0,0.0,0.0,0.0,-4.5038,0.0,0.0,0.0,0.0,0.0,0.0,0.0,0.0,0.0,0.0,0.0,-5.4759,-5.597,-5.6612,-5.707,-5.7327,-5.7345,-5.7217,0.0,0.0,0.0,0.0,0.0,0.0,0.0,0.0,0.0,0.0,0.0,0.0,0.0,0.0,-3.8087,-3.5613,-3.4716,-3.4313,-3.4313,0.0,0.0,0.0,0.0,0.0,0.0,0.0,0.0,0.0,0.0,0.0,0.0,0.0,0.0,-5.3589,0.0,-5.4279,0.0,0.0,0.0,0.0,0.0,0.0,0.0,0.0,-5.4419,-5.385,-5.3013,-5.2732,-5.2522,0.0,-5.2578,-5.2148,0.0,0.0,0.0,0.0,0.0,0.0,0.0,0.0,-5.7305,-5.8281,-5.875,-5.9121,-5.9375,-5.9394,-5.9336,-5.918,-5.8164,-5.6806,-5.4952,-5.3666,-5.2616,0.0,0.0,0.0,0.0,0.0,0.0,0.0,0.0,0.0,0.0,0.0,0.0,0.0,0.0,0.0,0.0,0.0,0.0,0.0,0.0,0.0,0.0,0.0,-4.5818,0.0,0.0,0.0,0.0,0.0,0.0,0.0,0.0,0.0,-5.3751,-5.4924,-5.6116,-5.7052,-5.7657,-5.8216,-5.8694,0.0,0.0,0.0,0.0,0.0,0.0,0.0,-5.359,-5.1997,-5.1308,-5.0434,-4.8702,-4.7086,-4.5777,-4.5088,0.0,0.0,-3.8359,-3.709,-3.6376,-3.6166,-3.5863,-3.5442,-3.5231,-3.5378,-3.5418,0.0,0.0,0.0,0.0,0.0,0.0,0.0,0.0,-5.4863,-5.514,0.0,-5.5195,0.0,0.0,0.0,0.0,0.0,-5.5903,0.0,0.0,-5.5493,-5.4945,-5.432,-5.3826,-5.3251,-5.2793,-5.2832,-5.2812,-5.2793,-5.2812,0.0,0.0,0.0,0.0,0.0,0.0,-5.7871,-5.9101,-5.9551,-5.9785,-5.9785,-5.9785,-5.959,-5.914,-5.793,-5.7051,-5.6543,-5.4961,-5.4062,-5.3902,-5.2332,0.0,0.0,0.0,0.0,0.0,0.0,0.0,0.0,0.0,0.0,0.0,0.0,0.0,0.0,0.0,0.0,0.0,0.0,0.0,0.0,-4.7253,0.0,0.0,0.0,0.0,0.0,0.0,0.0,0.0,0.0,0.0,-5.5163,-5.6446,-5.7583,-5.8005,0.0,0.0,0.0,0.0,-5.9495,-6.0167,-5.935,-5.8224,-5.7207,-5.6708,-5.585,-5.393,0.0,0.0,-5.1469,-4.9687,-4.8377,-4.8377,-4.6471,-4.4141,-4.1866,-4.0092,-3.8748,-3.8197,-3.8073,-3.7769,-3.7105,-3.7065,-3.6967,-5.692,0.0,0.0,0.0,0.0,-5.5791,-5.54,-5.4548,-5.5386,-5.5966,-5.6209,-5.5771,0.0,0.0,0.0,0.0,0.0,0.0,-5.7063,-5.6995,-5.6537,-5.5854,-5.5246,-5.4643,-5.4454,-5.4551,-5.4551,-5.457,-5.457,-5.457,-5.4375,-5.4062,0.0,0.0,0.0,0.0,-5.8027,-5.8711,-5.9433,-5.9668,-5.9375,-5.9648,-5.9473,-5.873,-5.8359,-5.7656,-5.6621,-5.5527,-5.4668,-5.4043,-5.3278,0.0,0.0,0.0,0.0,0.0,0.0,0.0,0.0,0.0,0.0,0.0,0.0,0.0,0.0,0.0,0.0,0.0,0.0,0.0,-4.8544,-4.8202,-4.8118,0.0,0.0,0.0,0.0,0.0,0.0,0.0,0.0,0.0,-5.7859,-5.8354,-5.8922,0.0,0.0,-6.1441,-6.1844,-6.1776,-6.1447,-6.1099,-6.0422,0.0,-5.8699,-5.8353,-5.7795,-5.7069,-5.5511,-5.3973,-5.2872,-5.1594,-5.0681,-5.0697,-4.9062,-4.7299,-4.6541,-4.369,-4.1569,-4.1172,-4.0477,-3.9681,-3.8997,-3.8896,-3.8782,-5.9091,-5.8131,-5.7921,-5.7525,-5.7072,-5.7379,-5.6839,-5.5654,-5.6391,-5.6931,-5.7301,-5.703,-5.776,-5.9085,-5.775,0.0,0.0,0.0,-5.7928,-5.7698,-5.7597,-5.69,-5.5869,-5.5765,-5.5528,-5.5293,-5.5312,-5.5312,-5.5312,-5.5469,-5.5293,-5.4824,0.0,0.0,-5.709,-5.7598,-5.8262,-5.9023,-5.9551,-5.9687,-5.9433,-5.9512,-5.9316,-5.8808,-5.8457,-5.789,-5.7109,-5.6094,-5.5234,-5.457,-5.3945,-5.3301,0.0,0.0,0.0,0.0,0.0,0.0,0.0,0.0,0.0,0.0,0.0,-4.8797,-4.8983,0.0,0.0,0.0,-5.0603,-5.0347,-4.9845,-4.9687,0.0,0.0,0.0,0.0,0.0,0.0,0.0,-5.6248,-5.7612,-5.8665,-5.9546,-6.0078,-6.0444,-6.0609,-6.1601,-6.2435,-6.2929,0.0,-6.2547,-6.2292,-6.1471,-6.0646,-6.0004,-5.9726,-5.9551,-5.9068,-5.76,-5.6435,-5.5836,-5.4645,-5.3791,-5.3567,-5.1955,-5.0517,-5.0517,-4.7855,-4.5019,-4.3605,-4.2686,-4.1854,-4.1047,-4.0813,-4.0591,-6.0927,-6.0378,-5.9803,-5.9466,-5.9119,-5.9171,-5.8252,-5.686,-5.779,-5.8124,-5.8022,-5.8519,-5.9085,-5.9458,-5.9249,0.0,-5.7688,-5.8606,-5.8707,-5.8251,-5.8676,-5.7947,-5.6433,-5.6835,-5.6414,-5.543,-5.541,-5.541,-5.543,-5.5801,-5.5976,-5.5996,-5.6015,-5.666,-5.7793,-5.789,-5.8515,-5.9726,-5.9785,-5.9805,-5.9805,-5.9394,-5.9199,-5.918,-5.832,-5.7851,-5.7812,-5.6621,-5.5742,-5.5351,-5.457,-5.3926,-5.3437,0.0,0.0,0.0,0.0,0.0,0.0,0.0,0.0,0.0,0.0,0.0,0.0,0.0,0.0,0.0,-5.2327,0.0,-5.1663,-5.1462,0.0,0.0,0.0,-5.2152,-5.3726,-5.4692,-5.5745,-5.7507,0.0,0.0,-6.0499,-6.1545,-6.1985,-6.127,-6.2101,-6.2953,-6.36,-6.3117,-6.2935,-6.3381,-6.2501,-6.1471,-6.1031,-6.1031,-6.0817,-6.0171,-5.9541,-5.9163,-5.9105,-5.8063,-5.7071,-5.6899,-5.5066,-5.3456,-5.3489,-5.1685,-4.9384,-4.5713,-4.483,-4.4277,-4.3075,-4.2806,-4.2523,-6.2614,-6.2156,-6.1581,-6.0706,-5.954,-5.9681,-5.9161,-5.8359,-5.8684,-5.9179,-5.9642,-5.9077,-5.8658,-5.8593,-5.9244,-5.9195,-5.865,-5.9239,-5.9399,-5.9187,-5.9314,-5.8572,-5.7298,-5.7419,-5.7011,-5.6376,-5.6289,-5.6289,-5.6289,-5.6387,-5.6426,-5.6445,-5.6758,-5.7226,-5.7851,-5.8203,-5.8691,-5.9316,-5.9648,-5.9805,-5.9805,-5.9394,-5.9199,-5.918,-5.832,-5.7851,-5.7832,-5.6621,-5.5879,-5.5781,-5.5273,-5.4668,-5.3906,-5.3769,0.0,0.0,0.0,0.0,0.0,0.0,0.0,0.0,0.0,-5.1682,-5.1477,0.0,-5.2669,0.0,-5.3943,-5.4075,-5.3944,-5.3274,0.0,0.0,-5.3147,-5.3477,-5.4422,-5.5877,-5.7137,-5.8131,-5.9645,-6.0976,-6.1691,-6.2278,-6.27,-6.2792,-6.3652,-6.4272,-6.4188,-6.4219,-6.4046,-6.3384,-6.2548,-6.1911,-6.1581,-6.171,-6.1657,-6.1021,-6.0495,-5.9972,-5.9269,-5.8271,-5.7563,-5.7546,-5.6133,-5.5011,-5.4888,-5.3588,-5.2042,-5.0013,-4.8279,-4.663,-4.5284,-4.485,-4.431,-6.3738,-6.3011,-6.2545,-6.1767,-6.0762,-6.0599,-6.0125,-5.9494,-5.9672,-6.0106,-6.0809,-6.0332,-5.9793,-5.9272,-5.9784,-5.9733,-5.938,-5.9795,-5.9929,-5.9827,-5.9862,-5.9316,-5.835,-5.8031,-5.762,-5.6902,-5.6689,-5.6582,-5.6582,-5.6582,-5.668,-5.6875,-5.7305,-5.7715,-5.8144,-5.8418,-5.875,-5.918,-5.9414,-5.9531,-5.9531,-5.9297,-5.9199,-5.916,-5.832,-5.7851,-5.7851,-5.6816,-5.6133,-5.5937,-5.5703,-5.5293,-5.4648,-5.459,-5.4492,0.0,0.0,0.0,0.0,0.0,0.0,0.0,0.0,0.0,0.0,0.0,-5.4099,-5.5309,-5.5758,-5.5848,-5.5779,-5.5057,-5.4632,-5.4779,-5.4302,-5.4541,-5.5822,-5.7,-5.8185,-5.9309,-6.064,-6.1765,-6.2388,-6.281,-6.3268,-6.3837,-6.4491,-6.4767,-6.4527,-6.4488,-6.4335,-6.354,-6.2846,-6.248,-6.237,-6.2572,-6.2608,-6.2185,-6.1876,-6.133,-6.0568,-5.9614,-5.8951,-5.8915,-5.7864,-5.6853,-5.6853,-5.5716,-5.438,-5.3653,-5.1878,-4.9859,-4.7791,-4.7003,-4.6218,-6.4754,-6.3597,-6.3063,-6.2571,-6.2048,-6.1646,-6.1095,-6.0462,-6.0463,-6.09,-6.1583,-6.1882,-6.1472,-6.0523,-6.049,-6.0189,-5.9782,-6.0176,-6.0408,-6.0411,-6.0239,-5.9916,-5.9388,-5.8734,-5.8072,-5.7415,-5.6902,-5.6689,-5.6582,-5.6582,-5.6797,-5.7226,-5.7656,-5.8086,-5.8515,-5.8574,-5.8808,-5.918,-5.9199,-5.9199,-5.9199,-5.9199,-5.9199,-5.916,-5.8379,-5.791,-5.7832,-5.709,-5.6465,-5.6055,-5.6015,-5.582,-5.541,-5.543,-5.5469,0.0,-5.5527,0.0,0.0,0.0,0.0,0.0,0.0,0.0,0.0,-5.5354,-5.5786,-5.6887,-5.7363,-5.753,-5.7435,-5.6751,-5.6326,-5.6141,-5.5581,-5.575,-5.7396,-5.8199,-5.9111,-6.055,-6.1639,-6.2425,-6.2828,-6.3213,-6.3764,-6.4387,-6.4859,-6.4807,-6.4547,-6.438,-6.4267,-6.3803,-6.3252,-6.2957,-6.3213,-6.3379,-6.3415,-6.3342,-6.2993,-6.2645,-6.2004,-6.1203,-6.0569,-6.0352,-5.9488,-5.8932,-5.9003,-5.7696,-5.6624,-5.6194,-5.4899,-5.3057,-5.0342,-4.9035,-4.8246,-6.5882,-6.4558,-6.3676,-6.2949,-6.2448,-6.2048,-6.171,-6.1385,-6.0772,-6.0768,-6.1231,-6.2113,-6.1718,-6.0546,-6.0885,-6.0588,-5.976,-6.0176,-6.0582,-6.0885,-6.0389,-6.0084,-5.9843,-5.9192,-5.8389,-5.7415,-5.7309,-5.7009,-5.6582,-5.6582,-5.6797,-5.7207,-5.7637,-5.8086,-5.8535,0.0,0.0,0.0,-5.9199,-5.9199,-5.9199,-5.9199,-5.9199,-5.918,-5.8672,0.0,-5.7871,-5.7363,-5.6894,-5.6484,-5.6465,0.0,0.0,0.0,0.0,0.0,0.0,0.0,0.0,0.0,0.0,0.0,-5.8269,-5.759,-5.687,-5.7126,-5.762,-5.817,-5.8592,-5.8996,-5.9259,-5.8685,-5.8236,-5.8291,-5.7752,-5.76,-5.825,-5.9221,-6.0144,-6.1037,-6.2059,-6.2828,-6.3232,-6.3635,-6.4057,-6.4552,-6.4942,-6.4923,-6.4688,-6.4472,-6.4176,-6.3546,-6.338,-6.3287,-6.3379,-6.369,-6.3764,-6.3452,-6.3048,-6.2553,-6.1875,-6.1254,-6.0744,-6.0488,-5.9808,-5.9255,-5.9255,-5.8558,-5.7629,-5.6641,-5.6194,-5.5016,-5.2001,-5.0957,-5.0217,-6.6661,-6.5399,-6.4501,-6.3514,0.0,-6.2347,-6.2064,-6.1653,-6.1252,-6.131,-6.1696,-6.2051,-6.1841,-6.1134,-6.1189,-6.0674,-5.9783,-6.0188,-6.0538,-6.0644,-6.0384,-6.0171,-6.011,-5.9408,-5.8676,-5.7836,-5.7528,-5.7222,-5.7009,-5.6689,-5.6797,-5.7226,-5.7656,-5.8086,-5.8535,-5.8965,-5.9199,-5.9199,-5.9199,-5.9199,-5.9199,-5.9199,-5.9199,-5.918,-5.875,0.0,0.0,0.0,0.0,0.0,0.0,0.0,0.0,-5.7109,0.0,-5.7226,-5.7617,-5.8066,-5.8476,-5.8926,-5.9531,-6.0371,-6.0051,-5.9302,-5.7951,-5.8519,-5.9032,-5.9417,-5.9839,-6.0243,-6.0609,-6.0041,-5.9685,-5.9684,-5.8868,-5.8644,-5.9653,-6.0012,-6.074,-6.182,-6.2424,-6.3012,-6.3617,-6.3855,-6.4259,-6.4791,-6.5066,-6.5102,-6.4882,-6.4651,-6.434,-6.3727,-6.3489,-6.3525,-6.391,-6.413,-6.4149,-6.3764,-6.3342,-6.27,-6.1746,-6.1251,-6.0866,-6.0499,-6.016,-5.9893,-5.9787,-5.9396,-5.8505,-5.7647,-5.7144,-5.6211,-5.3972,-5.2652,-5.1335,-6.7468,-6.6311,-6.5479,-6.4284,-6.2953,-6.2698,-6.2237,-6.1582,0.0,0.0,0.0,-6.2113,-6.2048,-6.2034,-6.1554,-6.0752,-5.987,-6.0105,-6.0312,-6.031,-6.0199,-6.0155,-6.0203,-5.9549,-5.8995,-5.8558,-5.7877,-5.7568,-5.7415,-5.6902,-5.6904,-5.7207,-5.7578,-5.8008,-5.8515,-5.8965,-5.9199,-5.9199,-5.9199,-5.9199,-5.9199,-5.9199,-5.9199,-5.918,-5.8848,-5.8613,-5.8535,-5.8183,-5.7949,-5.7871,-5.7851,-5.7851,-5.7871,-5.8008,-5.8105,-5.8125,-5.8594,-5.9023,-5.9375,-5.9863,-6.0588,-6.1621,-6.1464,-6.0687,-5.9025,-5.9491,-6.0078,-6.0573,-6.0903,-6.1251,-6.1636,-6.1185,-6.0822,-6.0749,-5.9746,-5.9759,-6.0961,-6.0886,-6.1141,-6.2479,-6.2792,-6.3067,-6.3745,-6.3874,-6.4167,-6.4791,-6.4919,-6.5029,-6.5029,-6.4662,-6.4277,-6.4002,-6.3654,-6.3635,-6.4259,-6.4442,-6.4332,-6.3892,-6.358,-6.2975,-6.1985,-6.1361,-6.0958,-6.0609,-6.0463,-6.0408,-6.0389,-5.9893,-5.9396,-5.8773,-5.8023,-5.7144,-5.574,-5.4092,-5.2576,-6.8619,-6.7285,-6.6366,-6.5322,-6.423,-6.3081,-6.2237,-6.1659,-6.1918,-6.2199,-6.2446,-6.2808,-6.2817,-6.2457,-6.1985,-6.1281,-6.0312,-5.9939,-5.9806,-5.9807,-5.9702,-5.9881,-6.0255,-5.9718,-5.9323,-5.9057,-5.8516,-5.8006,-5.7502,-5.7329,-5.7225,-5.7168,-5.7265,-5.7734,-5.8496,-5.8965,-5.9199,-5.9199,-5.9199,-5.9199,-5.9199,-5.9199,-5.9199,-5.918,-5.9121,-5.8906,-5.8535,-5.8476,-5.8262,-5.789,-5.7851,-5.7851,-5.789,-5.8594,-5.9004,-5.9043,-5.9726,-6.0195,-6.0273,-6.0996,-6.1542,-6.1701,-6.1908,-6.1541,-6.0274,-6.0243,-6.0609,-6.1325,-6.1471,-6.1673,-6.2058,-6.1986,-6.1858,-6.1635,-6.1449,-6.1485,-6.178,-6.1651,-6.1798,-6.2645,-6.281,-6.2957,-6.3397,-6.3507,-6.369,-6.4075,-6.4314,-6.4314,-6.4552,-6.435,-6.4094,-6.3984,-6.3654,-6.3617,-6.4002,-6.4094,-6.3965,-6.3544,-6.3434,-6.3103,-6.2223,-6.1765,-6.1361,-6.0976,-6.0664,-6.0463,-6.0426,-6.0284,-5.9893,-5.9271,-5.8648,-5.7897,-5.6515,-5.5504,-5.4202,-6.8429,-6.723,-6.634,-6.5333,-6.4324,-6.2874,-6.2135,-6.1917,-6.1919,-6.2032,-6.2268,-6.2593,-6.2645,-6.2497,-6.2105,-6.1345,-6.0456,-6.0217,-5.9827,-5.9336,-5.9773,-5.9843,-5.9613,-5.9827,-5.9697,-5.9323,-5.8954,-5.8679,-5.8349,-5.7734,-5.7428,-5.7324,-5.7757,-5.8327,-5.9048,-5.9723,-6.0163,-6.0052,-5.9515,-5.9199,-5.9199,-5.9199,-5.9199,-5.9199,-5.9199,-5.9101,-5.8906,-5.8887,-5.8789,-5.8594,-5.8808,-5.8808,-5.8613,-5.9394,-5.9765,-5.957,-6.0312,-6.0781,-6.0801,-6.1816,-6.2199,-6.1802,-6.2324,-6.216,-6.1156,-6.1251,-6.1526,-6.1893,-6.2095,-6.2315,-6.2498,-6.2517,-6.248,-6.2387,-6.2017,-6.2017,-6.2276,-6.2017,-6.2017,-6.2663,-6.281,-6.2957,-6.3324,-6.3379,-6.3544,-6.3929,-6.4002,-6.4094,-6.424,-6.3947,-6.3855,-6.4167,-6.3819,-6.3617,-6.3929,-6.402,-6.3837,-6.3452,-6.3379,-6.3048,-6.2388,-6.2021,-6.1765,-6.138,-6.0976,-6.0756,-6.0719,-6.0536,-6.0178,-5.952,-5.9147,-5.8398,-5.727,-5.6136,-5.4744,-6.825,-6.7129,-6.6384,-6.5391,-6.4165,-6.2815,-6.2182,-6.2145,-6.2068,-6.2042,-6.2139,-6.2514,-6.2738,-6.2751,-6.2398,-6.1742,-6.0863,-6.0593,-5.9946,-5.9106,-5.9716,-5.9702,-5.9203,-5.9733,-5.9827,-5.9474,-5.9323,-5.916,-5.8819,-5.8118,-5.7754,-5.7727,-5.8424,-5.9021,-5.9458,-6.0337,-6.0819,-6.0809,-6.0052,-5.9495,-5.9403,-5.9501,-5.9448,-5.9316,-5.9433,-5.9453,-5.9473,-5.9473,-5.9473,-5.9473,-5.9687,-5.9707,-5.9512,-6.0078,-6.0332,-6.0195,-6.0801,-6.1328,-6.1562,-6.2461,-6.2783,-6.2094,-6.2627,-6.2735,-6.1942,-6.2185,-6.2333,-6.237,-6.259,-6.2773,-6.2773,-6.2773,-6.281,-6.281,-6.2405,-6.2276,-6.2663,-6.2276,-6.2276,-6.2663,-6.281,-6.292,-6.3158,-6.325,-6.336,-6.3617,-6.395,-6.4005,-6.3837,-6.3711,-6.3839,-6.3947,-6.3709,-6.3434,-6.3782,-6.3764,-6.358,-6.3287,-6.3232,-6.2957,-6.248,-6.2297,-6.2113,-6.1746,-6.1398,-6.116,-6.1086,-6.0811,-6.0361,-5.995,-5.9611,-5.8897,-5.7629,-5.6263,-5.4871,-6.8765,-6.7759,-6.7101,-6.5898,-6.4264,-6.3332,-6.2571,-6.2107,-6.2561,-6.2479,-6.2071,-6.3136,-6.3655,-6.3706,-6.3345,-6.2588,-6.1718,-6.0863,-6.0,-5.915,-5.9062,-5.9246,-5.9541,-5.9299,-5.9232,-5.947,-5.9393,-5.9138,-5.8661,-5.8839,-5.8706,-5.8344,-5.866,-5.9142,-5.9563,-6.0114,-6.0517,-6.0899,-6.0809,-6.0476,-5.9941,-6.0336,-6.0329,-5.9765,-6.0117,-6.0312,-6.0234,-6.0312,-6.0312,-6.0293,-5.998,-5.998,-6.0254,-6.039,-6.0605,-6.0937,-6.1406,-6.1992,-6.2734,-6.2969,-6.3019,-6.3207,-6.3397,-6.3267,-6.2501,-6.268,-6.2737,-6.2737,-6.2773,-6.2792,-6.281,-6.281,-6.281,-6.281,-6.2699,-6.2792,-6.2828,-6.2792,-6.2792,-6.281,-6.281,-6.281,-6.2883,-6.2902,-6.2902,-6.303,-6.3806,-6.3972,-6.3564,-6.3916,-6.3861,-6.3545,-6.3122,-6.3067,-6.3324,-6.3122,-6.3012,-6.2883,-6.2865,-6.281,-6.2663,-6.2443,-6.2187,-6.2168,-6.182,-6.1563,-6.1453,-6.1215,-6.0939,-6.0561,-6.0005,-5.9022,-5.7629,-5.6515,-5.5108,-6.8396,-6.7069,-6.6576,-6.5612,-6.431,-6.3946,-6.3212,-6.2378,-6.3073,-6.3026,-6.2737,-6.3885,-6.4195,-6.3839,-6.3147,-6.2769,-6.2701,-6.1742,-6.084,-5.9977,-6.0156,-6.0095,-5.9738,-5.9746,-5.9886,-5.9927,-5.9916,-5.967,-5.9409,-5.9218,-5.8812,-5.847,-5.9309,-5.9969,-6.0192,-6.1169,-6.1728,-6.2001,-6.1912,-6.1692,-6.1201,-6.1139,-6.0931,-6.0388,-6.0526,-6.0399,-6.0039,-5.9844,-5.9687,-5.9726,-6.0,-6.0137,-6.0078,-6.0781,-6.1152,-6.1152,-6.1719,-6.2363,-6.2988,-6.3262,-6.3412,-6.3265,-6.3473,-6.3324,-6.2627,-6.2717,-6.281,-6.281,-6.281,-6.281,-6.281,-6.281,-6.281,-6.2828,-6.2993,-6.327,-6.3787,-6.3399,-6.327,-6.3639,-6.3196,-6.281,-6.281,-6.281,-6.281,-6.2939,-6.3602,-6.3823,-6.3289,-6.3676,-6.3676,-6.327,-6.2883,-6.2865,-6.3012,-6.292,-6.281,-6.281,-6.281,-6.281,-6.2773,-6.27,-6.2553,-6.2535,-6.2205,-6.1966,-6.1966,-6.16,-6.1288,-6.0943,-6.0184,-5.9147,-5.8148,-5.7253,-5.6119,-6.8259,-6.7017,-6.6131,-6.5285,-6.4499,-6.4138,-6.3557,-6.2964,-6.363,-6.3646,-6.3285,-6.4497,-6.4689,-6.4111,-6.351,-6.3366,-6.3386,-6.2636,-6.1742,-6.0954,-6.0959,-6.0635,-6.0176,-6.0121,-6.0207,-6.0156,-6.0291,-6.0345,-6.0278,-5.9698,-5.9189,-5.9202,-5.9985,-6.0649,-6.1044,-6.2007,-6.2555,-6.2679,-6.2679,-6.246,-6.2083,-6.2029,-6.1695,-6.1063,-6.0918,-6.0659,-6.0207,-5.98,-5.9531,-5.9551,-6.0117,-6.0351,-6.0215,-6.1055,-6.1465,-6.1348,-6.1953,-6.2558,-6.3008,-6.3437,-6.3626,-6.3566,-6.3578,-6.3324,-6.2972,-6.2844,-6.2773,-6.281,-6.281,-6.281,-6.281,-6.281,-6.2828,-6.2938,-6.3232,-6.3675,-6.4176,-6.3934,-6.4027,-6.4287,-6.4045,-6.3436,-6.3215,-6.3031,-6.3178,-6.3178,-6.382,-6.4057,-6.3435,-6.3692,-6.382,-6.3049,-6.292,-6.3049,-6.292,-6.281,-6.281,-6.281,-6.281,-6.281,-6.281,-6.2792,-6.2792,-6.2645,-6.248,-6.237,-6.2333,-6.2021,-6.1545,-6.0979,-6.0257,-5.9379,-5.8791,-5.8023,-5.7127,-6.8627,-6.775,-6.5922,-6.5125,-6.493,-6.3969,-6.3496,-6.3425,-6.4375,-6.4337,-6.3829,-6.4848,-6.5177,-6.4879,-6.4949,-6.4703,-6.3954,-6.341,-6.2725,-6.1831,-6.1044,-6.0776,-6.1005,-6.0176,-5.974,-5.9863,-6.0532,-6.088,-6.0677,-6.0177,-6.0216,-6.0524,-6.0628,-6.1061,-6.1743,-6.1971,-6.2286,-6.2638,-6.2679,-6.2679,-6.2721,-6.3025,-6.2677,-6.1695,-6.1422,-6.1261,-6.1054,-6.0599,-6.0312,-6.0351,-6.039,-6.0586,-6.0937,-6.1074,-6.1308,-6.166,-6.2109,-6.2578,-6.3008,-6.3476,-6.3887,-6.4093,-6.3845,-6.3574,-6.3381,-6.3081,-6.2902,-6.281,-6.281,-6.281,-6.281,-6.2847,-6.2975,-6.3268,-6.3379,-6.3617,-6.4078,-6.4639,-6.4715,-6.4695,-6.4877,-6.467,-6.3838,-6.3801,-6.3801,-6.4057,-6.4952,-6.5226,-6.4057,-6.4313,-6.4076,-6.3453,-6.3306,-6.3563,-6.3049,-6.3178,-6.3049,-6.3049,-6.3178,-6.292,-6.2792,-6.281,-6.2792,-6.2792,-6.2718,-6.2663,-6.2663,-6.237,-6.182,-6.1254,-6.053,-5.9918,-5.9201,-5.8148,-5.7396,-6.9104,-6.7409,-6.6282,-6.5529,-6.4986,-6.4207,-6.3919,-6.4066,-6.4701,-6.5065,-6.5125,-6.5607,-6.579,-6.5696,-6.5651,-6.531,-6.4814,-6.4119,-6.341,-6.2814,-6.2166,-6.1638,-6.1166,-6.0832,-6.0456,-6.0216,-6.0744,-6.0901,-6.0802,-6.0281,-6.0216,-6.0671,-6.0982,-6.1417,-6.1976,-6.2307,-6.2534,-6.2659,-6.2679,-6.2679,-6.27,-6.2845,-6.2708,-6.2288,-6.2162,-6.1732,-6.0964,-6.0442,-5.9947,-5.9629,-6.0137,-6.0508,-6.0703,-6.1191,-6.1543,-6.1758,-6.2383,-6.2871,-6.3086,-6.3691,-6.414,-6.4214,-6.4235,-6.3949,-6.3581,-6.3425,-6.3288,-6.292,-6.2792,-6.281,-6.2847,-6.3012,-6.3232,-6.3397,-6.3855,-6.4317,-6.4991,-6.531,-6.5423,-6.5384,-6.5301,-6.4867,-6.4644,-6.4441,-6.4441,-6.4569,-6.5353,-6.5226,-6.4313,-6.4313,-6.4479,-6.3876,-6.3896,-6.4228,-6.4204,-6.4076,-6.4076,-6.3948,-6.3801,-6.3545,-6.3416,-6.3049,-6.3049,-6.292,-6.292,-6.2792,-6.2847,-6.2517,-6.1985,-6.1545,-6.0837,-6.0277,-5.9593,-5.8791,-5.8148,-6.9448,-6.7541,-6.672,-6.594,-6.5096,-6.4566,-6.4318,-6.4324,-6.499,-6.5552,-6.5891,-6.6231,-6.6345,-6.6104,-6.6007,-6.5754,-6.542,-6.4729,-6.4114,-6.3498,-6.3056,-6.2355,-6.16,-6.1393,-6.1028,-6.052,-6.0579,-6.0735,-6.0798,-6.0323,-6.0237,-6.0671,-6.1127,-6.1582,-6.2038,-6.2472,-6.2679,-6.2679,-6.2679,-6.2679,-6.2679,-6.2679,-6.2679,-6.2721,-6.257,-6.1938,-6.0824,-6.0302,-5.9777,-5.9565,-6.0058,-6.0566,-6.0859,-6.1387,-6.1719,-6.1797,-6.2539,-6.3027,-6.3125,-6.3828,-6.4297,-6.4355,-6.4482,-6.4362,-6.3881,-6.3844,-6.3617,-6.3178,-6.292,-6.281,-6.2902,-6.3268,-6.358,-6.3654,-6.4185,-6.4776,-6.5436,-6.5719,-6.5986,-6.6223,-6.574,-6.5321,-6.5098,-6.5098,-6.5098,-6.5098,-6.5734,-6.5607,-6.4569,-6.4829,-6.5033,-6.4301,-6.4877,-6.5283,-6.5478,-6.5511,-6.4957,-6.4772,-6.446,-6.4185,-6.4057,-6.3563,-6.3306,-6.3178,-6.3049,-6.3049,-6.2847,-6.2535,-6.2168,-6.1691,-6.1398,-6.0872,-6.0114,-5.9538,-5.8897,-6.9793,-6.813,-6.7226,-6.6315,-6.5386,-6.4905,-6.4564,-6.4611,-6.5341,-6.59,-6.6243,-6.6891,-6.6757,-6.616,-6.613,-6.6033,-6.5824,-6.5499,-6.4851,-6.4114,-6.3498,-6.2814,-6.1972,-6.1879,-6.1453,-6.0568,-6.0372,-6.0463,-6.0871,-6.0406,-6.0321,-6.0692,-6.102,-6.1454,-6.2038,-6.2452,-6.2679,-6.2679,-6.2679,-6.2679,-6.2679,-6.2679,-6.2679,-6.2679,-6.2721,-6.2193,-6.0959,-6.0365,-5.9987,-5.9859,-6.0195,-6.084,-6.1484,-6.1699,-6.1719,-6.1894,-6.2558,-6.2988,-6.3144,-6.3848,-6.4316,-6.4312,-6.4482,-6.4611,-6.4458,-6.4078,-6.3801,-6.3673,-6.3178,-6.281,-6.2957,-6.3507,-6.3947,-6.4039,-6.4387,-6.4791,-6.5181,-6.5825,-6.6493,-6.6708,-6.6272,-6.59,-6.5861,-6.5861,-6.5861,-6.5988,-6.6242,-6.6242,-6.5009,-6.5383,-6.565,-6.5229,-6.5733,-6.6532,-6.6836,-6.6842,-6.608,-6.5506,-6.5136,-6.4843,-6.4715,-6.446,-6.4076,-6.3948,-6.3545,-6.3416,-6.3141,-6.281,-6.2205,-6.1801,-6.1563,-6.1196,-6.0507,-5.9893,-5.952,-7.0643,-6.8606,-6.7805,-6.7056,-6.6219,-6.5454,-6.5396,-6.5796,-6.6001,-6.6174,-6.6501,-6.6942,-6.6761,-6.6386,-6.6266,-6.6224,-6.614,-6.5909,-6.5503,-6.4938,-6.4114,-6.341,-6.2915,-6.259,-6.2051,-6.1415,-6.0961,-6.0768,-6.0808,-6.0655,-6.0615,-6.0671,-6.0699,-6.1152,-6.1909,-6.2036,-6.2262,-6.2679,-6.2679,-6.2679,-6.2679,-6.2679,-6.2679,-6.2679,-6.2679,-6.2241,-6.1581,-6.0919,-6.0585,-6.0388,-6.0442,-6.082,-6.1523,-6.1719,-6.1855,-6.2187,-6.2695,-6.3183,-6.3515,-6.3984,-6.4316,-6.4453,-6.4851,-6.5051,-6.4688,-6.4604,-6.4295,-6.3801,-6.3178,-6.2883,-6.3232,-6.3672,-6.4002,-6.402,-6.4607,-6.5029,-6.5236,-6.538,-6.576,-6.6204,-6.6144,-6.5919,-6.5988,-6.6115,-6.6369,-6.6369,-6.6369,-6.5734,-6.5174,-6.5497,-6.5707,-6.5377,-6.6609,-6.7641,-6.7609,-6.7595,-6.7086,-6.6355,-6.5869,-6.5499,-6.548,-6.5353,-6.4971,-6.4588,-6.4185,-6.3745,-6.3342,-6.2901,-6.2405,-6.1746,-6.1361,-6.0958,-6.0554,-6.016,-5.9893,-7.1489,-6.9574,-6.9031,-6.8178,-6.7238,-6.6509,-6.6321,-6.6439,-6.6272,-6.6473,-6.6735,-6.6875,-6.6806,-6.6599,-6.6392,-6.6264,-6.6295,-6.615,-6.5985,-6.5553,-6.4653,-6.3939,-6.3224,-6.2431,-6.2093,-6.1845,-6.1312,-6.0863,-6.0697,-6.0777,-6.0636,-6.0444,-6.0346,-6.0562,-6.1357,-6.1571,-6.1858,-6.233,-6.2591,-6.2679,-6.2679,-6.2679,-6.2679,-6.2679,-6.2679,-6.2481,-6.2152,-6.1744,-6.127,-6.0964,-6.0929,-6.1172,-6.166,-6.1719,-6.1894,-6.2344,-6.2793,-6.3223,-6.3652,-6.4062,-6.4316,-6.4453,-6.5098,-6.5462,-6.512,-6.5128,-6.4933,-6.4185,-6.3563,-6.3215,-6.3342,-6.3764,-6.4039,-6.4222,-6.4791,-6.5157,-6.5217,-6.5139,-6.5218,-6.5533,-6.5612,-6.5467,-6.5607,-6.5734,-6.6115,-6.5988,-6.5734,-6.534,-6.5089,-6.5578,-6.5768,-6.635,-6.7535,-6.8191,-6.8347,-6.8222,-6.7969,-6.7284,-6.6728,-6.6466,-6.6242,-6.6115,-6.5734,-6.5226,-6.4824,-6.4017,-6.3559,-6.3136,-6.2604,-6.1889,-6.1285,-6.0866,-6.0536,-6.0426,-6.0141,-7.248,-7.0979,-7.0563,-6.9486,-6.8157,-6.7966,-6.7324,-6.6594,-6.6551,-6.672,-6.6807,-6.6835,-6.6821,-6.6834,-6.6599,-6.6392,-6.6287,-6.6425,-6.6278,-6.5833,-6.5148,-6.4338,-6.3374,-6.2248,-6.179,-6.1847,-6.1479,-6.0914,-6.0458,-6.0775,-6.0595,-6.0197,-5.9977,-6.0046,-6.0664,-6.0944,-6.1304,-6.1891,-6.2351,-6.257,-6.2679,-6.2679,-6.2679,-6.2679,-6.2679,-6.2679,-6.2632,-6.2493,-6.2069,-6.1534,-6.1557,-6.1621,-6.1719,-6.1719,-6.1914,-6.2402,-6.2812,-6.3262,-6.3691,-6.4101,-6.4316,-6.4375,-6.5058,-6.5586,-6.5579,-6.5594,-6.548,-6.4971,-6.4185,-6.373,-6.3657,-6.3782,-6.4185,-6.4589,-6.4974,-6.5176,-6.5121,-6.5026,-6.5049,-6.4938,-6.4877,-6.4734,-6.4734,-6.4843,-6.4971,-6.499,-6.4881,-6.4724,-6.4877,-6.5474,-6.6597,-6.737,-6.7939,-6.854,-6.8717,-6.832,-6.8086,-6.7793,-6.7177,-6.6846,-6.6748,-6.6622,-6.6379,-6.5873,-6.5258,-6.4432,-6.366,-6.3182,-6.2505,-6.1809,-6.1208,-6.0899,-6.0609,-6.0463,-6.0389,-7.3096,-7.1272,-7.0919,-7.0343,-6.967,-6.894,-6.8374,-6.7996,-6.7346,-6.6988,-6.6748,-6.6751,-6.6808,-6.6793,-6.6834,-6.6802,-6.6635,-6.6834,-6.6532,-6.6036,-6.586,-6.5018,-6.3905,-6.2849,-6.2145,-6.2092,-6.215,-6.1739,-6.0899,-6.1165,-6.1073,-6.0615,-6.0001,-6.0026,-6.0495,-6.049,-6.0915,-6.1651,-6.1932,-6.2241,-6.2679,-6.2679,-6.2679,-6.2679,-6.2679,-6.27,-6.2762,-6.2891,-6.2626,-6.1951,-6.1773,-6.1719,-6.1719,-6.1738,-6.207,-6.2715,-6.2988,-6.3379,-6.3984,-6.4238,-6.4316,-6.4375,-6.5117,-6.5586,-6.5625,-6.5758,-6.5804,-6.5353,-6.4588,-6.4099,-6.4306,-6.4228,-6.4332,-6.4901,-6.5121,-6.5176,-6.5102,-6.4905,-6.4596,-6.4283,-6.4436,-6.4303,-6.4279,-6.446,-6.4734,-6.4663,-6.4576,-6.4452,-6.477,-6.5293,-6.6285,-6.698,-6.7622,-6.8452,-6.8879,-6.8425,-6.8164,-6.7988,-6.75,-6.6914,-6.6855,-6.6729,-6.6534,-6.6107,-6.5719,-6.4971,-6.406,-6.3267,-6.2429,-6.1763,-6.1111,-6.0803,-6.0499,-6.0389,-6.0389,-7.3739,-7.1883,-7.1628,-7.1242,-7.0593,-6.9972,-6.9374,-6.8799,-6.8159,-6.75,-6.696,-6.6791,-6.6679,-6.6588,-6.6746,-6.6725,-6.6736,-6.7135,-6.6896,-6.6233,-6.6183,-6.5513,-6.4402,-6.3453,-6.2916,-6.267,-6.2883,-6.214,-6.1351,-6.1652,-6.136,-6.0552,-6.0024,-5.9919,-6.0044,-6.0272,-6.0586,-6.128,-6.1712,-6.2131,-6.2679,-6.2679,-6.2679,-6.2679,-6.27,-6.2804,-6.3169,-6.3404,-6.3011,-6.2284,-6.2064,-6.1952,-6.1738,-6.1894,-6.2305,-6.2988,-6.3203,-6.3633,-6.414,-6.4316,-6.4394,-6.4648,-6.5234,-6.5625,-6.5918,-6.6107,-6.6242,-6.5734,-6.5098,-6.4874,-6.4901,-6.4672,-6.4699,-6.5084,-6.5176,-6.5176,-6.5176,-6.4827,-6.4442,-6.4188,-6.3915,-6.3898,-6.349,-6.3838,-6.4041,-6.4062,-6.4009,-6.4213,-6.4565,-6.5273,-6.589,-6.6568,-6.7454,-6.8285,-6.8772,-6.8548,-6.8262,-6.8047,-6.748,-6.6914,-6.6855,-6.6855,-6.6719,-6.6417,-6.6126,-6.5536,-6.4515,-6.3683,-6.2977,-6.2149,-6.1336,-6.0798,-6.0655,-6.0389,-6.0389,-7.4496,-7.27,-7.2608,-7.1947,-7.1148,-7.0889,-7.017,-6.9174,-6.877,-6.8256,-6.7431,-6.6875,-6.669,-6.6502,-6.6854,-6.6706,-6.6577,-6.7508,-6.7389,-6.699,-6.6657,-6.6069,-6.5259,-6.4151,-6.3594,-6.3409,-6.3448,-6.2579,-6.1819,-6.2053,-6.1602,-6.0695,-6.0111,-5.9899,-6.0044,-6.0272,-6.0586,-6.117,-6.1602,-6.2152,-6.257,-6.2679,-6.2679,-6.27,-6.2824,-6.3259,-6.381,-6.3916,-6.3387,-6.2209,-6.2471,-6.2281,-6.1894,-6.2109,-6.2558,-6.2988,-6.3398,-6.3828,-6.4219,-6.4316,-6.4492,-6.4863,-6.5312,-6.5762,-6.6152,-6.6476,-6.6622,-6.6115,-6.6027,-6.5631,-6.5199,-6.5134,-6.5066,-6.5176,-6.5176,-6.5176,-6.5139,-6.4882,-6.4497,-6.413,-6.3745,-6.3379,-6.3067,-6.2957,-6.3067,-6.3972,-6.3896,-6.4209,-6.4522,-6.5118,-6.568,-6.6301,-6.7154,-6.8098,-6.8378,-6.854,-6.8256,-6.8066,-6.7363,-6.6875,-6.6855,-6.6855,-6.6816,-6.6573,-6.6233,-6.5652,-6.4976,-6.4132,-6.3492,-6.2712,-6.1812,-6.1206,-6.0761,-6.0513,-6.0389,-7.565,-7.4035,-7.3168,-7.2547,-7.2073,-7.1277,-7.0694,-7.0301,-6.9241,-6.8702,-6.8227,-6.75,-6.7143,-6.7166,-6.7183,-6.7024,-6.7061,-6.8035,-6.8566,-6.8429,-6.7663,-6.7186,-6.6438,-6.5311,-6.4226,-6.3814,-6.3936,-6.3236,-6.2371,-6.2551,-6.2325,-6.0939,-6.1013,-6.0878,-6.0408,-6.0659,-6.1154,-6.152,-6.1712,-6.2152,-6.2591,-6.2721,-6.2741,-6.2783,-6.3073,-6.3694,-6.4377,-6.4554,-6.4099,-6.3374,-6.2841,-6.2437,-6.1913,-6.2148,-6.2598,-6.3027,-6.3457,-6.3887,-6.4219,-6.4336,-6.4492,-6.4961,-6.5351,-6.5762,-6.6191,-6.6621,-6.6855,-6.668,-6.6552,-6.6155,-6.5648,-6.5281,-6.5273,-6.5176,-6.5176,-6.5176,-6.5176,-6.5102,-6.4864,-6.4534,-6.435,-6.4185,-6.3782,-6.3672,-6.3764,-6.391,-6.4112,-6.4369,-6.4758,-6.513,-6.5562,-6.6014,-6.6546,-6.7343,-6.772,-6.7846,-6.7718,-6.7493,-6.7089,-6.6748,-6.6748,-6.6836,-6.6816,-6.6601,-6.6328,-6.5766,-6.5427,-6.4667,-6.4045,-6.3102,-6.2324,-6.1737,-6.1168,-6.0779,-6.0389,-7.6245,-7.4718,-7.3943,-7.3292,-7.2578,-7.1756,-7.1242,-7.0789,-6.9774,-6.9106,-6.8635,-6.7816,-6.7352,-6.7185,-6.7658,-6.7772,-6.7583,-6.8276,-6.8855,-6.8734,-6.8275,-6.7831,-6.7314,-6.6464,-6.542,-6.4503,-6.4712,-6.4072,-6.325,-6.3332,-6.3184,-6.1708,-6.1958,-6.161,-6.093,-6.121,-6.1557,-6.1761,-6.1822,-6.2152,-6.2591,-6.2907,-6.3155,-6.3362,-6.3756,-6.4273,-6.4667,-6.4956,-6.4594,-6.409,-6.3479,-6.2669,-6.1953,-6.2305,-6.2773,-6.3066,-6.3652,-6.4023,-6.4277,-6.4355,-6.457,-6.5195,-6.5469,-6.5918,-6.6348,-6.6758,-6.6836,-6.6953,-6.6903,-6.6694,-6.623,-6.5488,-6.5291,-6.5176,-6.5176,-6.5176,-6.5176,-6.5176,-6.5047,-6.4717,-6.4571,-6.435,-6.4167,-6.4149,-6.4204,-6.4259,-6.4314,-6.4571,-6.4846,-6.5199,-6.5236,-6.5747,-6.6014,-6.6642,-6.7059,-6.7114,-6.6823,-6.6733,-6.647,-6.625,-6.6242,-6.6603,-6.6816,-6.6621,-6.6484,-6.6308,-6.5805,-6.5148,-6.4532,-6.373,-6.3007,-6.2201,-6.1471,-6.094,-6.055,-7.6776,-7.5339,-7.4967,-7.416,-7.3137,-7.2573,-7.1877,-7.1048,-7.0331,-6.9641,-6.8905,-6.8159,-6.7569,-6.72,-6.8104,-6.8309,-6.8356,-6.8676,-6.9256,-6.9161,-6.9077,-6.8547,-6.7929,-6.7521,-6.6702,-6.5424,-6.5675,-6.497,-6.4202,-6.4404,-6.4099,-6.2843,-6.2804,-6.2477,-6.1733,-6.1666,-6.2001,-6.2042,-6.2042,-6.2344,-6.2756,-6.3176,-6.3549,-6.4087,-6.4377,-6.4687,-6.4915,-6.505,-6.5069,-6.4516,-6.4002,-6.3097,-6.248,-6.2519,-6.3086,-6.3144,-6.3867,-6.4219,-6.4297,-6.4355,-6.4668,-6.5488,-6.5586,-6.5996,-6.6601,-6.6836,-6.6855,-6.6904,-6.6981,-6.6977,-6.6718,-6.5791,-6.5291,-6.5176,-6.5176,-6.5176,-6.5176,-6.5176,-6.5029,-6.4827,-6.4791,-6.4662,-6.4479,-6.4405,-6.4497,-6.4589,-6.4644,-6.4754,-6.5029,-6.5194,-6.5328,-6.5328,-6.5728,-6.6147,-6.6586,-6.6587,-6.6299,-6.6087,-6.5997,-6.5946,-6.5861,-6.6223,-6.6583,-6.6855,-6.6719,-6.6543,-6.6367,-6.5969,-6.5206,-6.437,-6.3444,-6.2636,-6.1763,-6.0995,-6.0766,-7.8187,-7.7058,-7.6431,-7.5402,-7.4283,-7.3783,-7.2909,-7.1816,-7.0984,-7.0331,-6.967,-6.8905,-6.8159,-6.7899,-6.8087,-6.892,-6.9675,-6.9987,-7.0043,-7.004,-6.9951,-6.9496,-6.8663,-6.8665,-6.7922,-6.6761,-6.6488,-6.5789,-6.4863,-6.5329,-6.5095,-6.3614,-6.3503,-6.3224,-6.2724,-6.2561,-6.246,-6.2502,-6.2522,-6.2797,-6.3155,-6.3445,-6.388,-6.4522,-6.4749,-6.4936,-6.5205,-6.535,-6.5069,-6.4537,-6.4265,-6.3729,-6.3186,-6.3148,-6.3322,-6.3555,-6.4004,-6.4316,-6.4316,-6.4355,-6.4765,-6.5332,-6.5625,-6.6015,-6.6621,-6.6875,-6.6914,-6.6914,-6.6759,-6.6562,-6.7135,-6.6206,-6.5443,-6.5194,-6.5328,-6.5328,-6.5328,-6.5176,-6.5157,-6.5029,-6.5029,-6.5011,-6.4846,-6.4736,-6.4809,-6.4882,-6.4919,-6.4956,-6.5102,-6.5176,-6.5176,-6.5194,-6.5328,-6.5747,-6.6262,-6.6117,-6.5925,-6.5736,-6.5468,-6.5378,-6.548,-6.5861,-6.6242,-6.6622,-6.6855,-6.6758,-6.6601,-6.6426,-6.6047,-6.5388,-6.4256,-6.2987,-6.2434,-6.1757,-6.1134,-7.8533,-7.7746,-7.7276,-7.6401,-7.5247,-7.4343,-7.3531,-7.2654,-7.1457,-7.0658,-6.9972,-6.9203,-6.8565,-6.8421,-6.891,-6.9905,-7.0699,-7.0626,-7.0583,-7.0515,-7.0441,-7.0136,-6.9268,-6.9421,-6.8693,-6.7898,-6.76,-6.6914,-6.5736,-6.6677,-6.6248,-6.5306,-6.4929,-6.4403,-6.3496,-6.3251,-6.3007,-6.283,-6.2907,-6.3135,-6.3445,-6.3756,-6.446,-6.4874,-6.5081,-6.5205,-6.535,-6.5412,-6.5318,-6.5057,-6.4809,-6.4553,-6.4171,-6.3938,-6.3816,-6.3851,-6.4082,-6.4316,-6.4375,-6.4492,-6.4961,-6.5488,-6.5762,-6.6191,-6.666,-6.6894,-6.707,-6.7322,-6.7255,-6.7166,-6.7796,-6.6793,-6.6395,-6.6262,-6.6014,-6.5747,-6.5747,-6.5461,-6.5328,-6.5328,-6.5139,-6.5121,-6.5139,-6.5102,-6.5157,-6.5176,-6.5176,-6.5176,-6.5176,-6.5176,-6.5176,-6.5176,-6.5194,-6.5461,-6.5654,-6.5515,-6.5349,-6.5124,-6.5027,-6.4814,-6.5098,-6.548,-6.6115,-6.6748,-6.6875,-6.6855,-6.6816,-6.666,-6.6465,-6.6144,-6.4775,-6.3555,-6.301,-6.2417,-6.179,-7.8879,-7.8153,-7.7998,-7.7309,-7.6245,-7.512,-7.4184,-7.34,-7.2017,-7.1068,-7.0367,-6.9537,-6.8982,-6.906,-6.9734,-7.0623,-7.1507,-7.0861,-7.085,-7.0663,-7.0797,-7.0474,-6.9971,-6.9713,-6.9365,-6.8759,-6.8984,-6.8273,-6.7268,-6.7854,-6.7621,-6.6728,-6.6359,-6.5606,-6.442,-6.377,-6.3355,-6.3153,-6.3135,-6.3404,-6.3797,-6.4418,-6.5018,-6.537,-6.5412,-6.5391,-6.5412,-6.5412,-6.5515,-6.5451,-6.5455,-6.5303,-6.5141,-6.4851,-6.4511,-6.4108,-6.4262,-6.4297,-6.4512,-6.4707,-6.5117,-6.5723,-6.6035,-6.6406,-6.6777,-6.7051,-6.7363,-6.8016,-6.7925,-6.7769,-6.8041,-6.774,-6.7343,-6.7078,-6.6679,-6.6432,-6.6413,-6.6147,-6.5728,-6.5728,-6.5461,-6.5328,-6.5328,-6.5176,-6.5176,-6.5176,-6.5176,-6.5176,-6.5176,-6.5176,-6.5176,-6.5176,-6.5176,-6.5176,-6.5162,-6.4813,-6.4749,-6.449,-6.4324,-6.4099,-6.4554,-6.5098,-6.5861,-6.6515,-6.6855,-6.6855,-6.6855,-6.6875,-6.668,-6.6126,-6.5052,-6.4212,-6.3695,-6.3079,-6.2323,-7.9606,-7.9005,-7.8911,-7.8313,-7.734,-7.6776,-7.5587,-7.3997,-7.3111,-7.1978,-7.1033,-7.0223,-6.9805,-6.9858,-7.0348,-7.0762,-7.0963,-7.1263,-7.1186,-7.0851,-7.1254,-7.1168,-7.0572,-7.0594,-7.0032,-6.9526,-6.9819,-6.9239,-6.8469,-6.8918,-6.8878,-6.7987,-6.7261,-6.644,-6.5606,-6.455,-6.3594,-6.3569,-6.3507,-6.3776,-6.448,-6.5039,-6.5308,-6.5391,-6.5412,-6.5412,-6.5412,-6.5432,-6.5557,-6.5876,-6.5845,-6.5965,-6.608,-6.5549,-6.5268,-6.4965,-6.468,-6.4473,-6.4765,-6.4961,-6.5312,-6.5898,-6.6211,-6.6465,-6.6855,-6.7305,-6.7773,-6.8633,-6.8157,-6.8089,-6.8304,-6.7853,-6.7456,-6.7343,-6.7343,-6.721,-6.7078,-6.6812,-6.6413,-6.6147,-6.6014,-6.5595,-6.5461,-6.5328,-6.5176,-6.5176,-6.5176,-6.5194,-6.5176,-6.5176,-6.5176,-6.5176,-6.5176,-6.5176,-6.5066,-6.4699,-6.435,-6.4075,-6.3878,-6.3658,-6.4079,-6.4715,-6.5264,-6.59,-6.6408,-6.7012,-6.7129,-6.7109,-6.6914,-6.6214,-6.5136,-6.4585,-6.4161,-6.3492,-6.2858,-8.0649,-7.9669,-7.9669,-7.9069,-7.8062,-7.7528,-7.6618,-7.5426,-7.4485,-7.3472,-7.2385,-7.1798,-7.1314,-7.0906,-7.0977,-7.0938,-7.1014,-7.1471,-7.1512,-7.1405,-7.1772,-7.1733,-7.1312,-7.1147,-7.0648,-7.0323,-7.0339,-7.0267,-6.9783,-6.9983,-7.0011,-6.9368,-6.8616,-6.7715,-6.676,-6.5606,-6.4937,-6.4625,-6.4665,-6.4776,-6.5111,-6.5308,-6.5412,-6.5432,-6.5412,-6.5412,-6.5412,-6.5432,-6.5639,-6.6074,-6.6181,-6.642,-6.6398,-6.6069,-6.5749,-6.5286,-6.4916,-6.4746,-6.4922,-6.5176,-6.5644,-6.6094,-6.6445,-6.6797,-6.7187,-6.7637,-6.8105,-6.873,-6.8782,-6.8714,-6.8869,-6.8645,-6.8513,-6.8381,-6.8005,-6.8005,-6.774,-6.7343,-6.7059,-6.6812,-6.6565,-6.6317,-6.5936,-6.5553,-6.5383,-6.5176,-6.5194,-6.5212,-6.5194,-6.5176,-6.5176,-6.5176,-6.5176,-6.5176,-6.5047,-6.4809,-6.4424,-6.4112,-6.3727,-6.3658,-6.3803,-6.4332,-6.5014,-6.5658,-6.6374,-6.6853,-6.7333,-6.7119,-6.6826,-6.6077,-6.5327,-6.4686,-6.4065,-6.4013,-6.3375,-8.1723,-8.0617,-8.0238,-7.9669,-7.888,-7.8125,-7.7339,-7.655,-7.5638,-7.4592,-7.3683,-7.3013,-7.2355,-7.1772,-7.1381,-7.1308,-7.1409,-7.1714,-7.2,-7.2257,-7.2555,-7.2693,-7.2453,-7.2052,-7.1513,-7.0886,-7.1338,-7.1226,-7.1205,-7.139,-7.1437,-7.0659,-7.0233,-6.9223,-6.7926,-6.6804,-6.6167,-6.5686,-6.5704,-6.5756,-6.5856,-6.5712,-6.564,-6.564,-6.5526,-6.5412,-6.5432,-6.5577,-6.5826,-6.6281,-6.6757,-6.7019,-6.6978,-6.6648,-6.6311,-6.5828,-6.5498,-6.5304,-6.5436,-6.5625,-6.5957,-6.6348,-6.6777,-6.7207,-6.7637,-6.8086,-6.8535,-6.8984,-6.9088,-6.9244,-6.9433,-6.9322,-6.919,-6.904,-6.8927,-6.8796,-6.8552,-6.8345,-6.793,-6.7608,-6.7381,-6.7077,-6.6696,-6.6047,-6.559,-6.5346,-6.5212,-6.5249,-6.5322,-6.5377,-6.5396,-6.5469,-6.5414,-6.5359,-6.5102,-6.4882,-6.4516,-6.4222,-6.3837,-6.3692,-6.3824,-6.4267,-6.4767,-6.5525,-6.6245,-6.656,-6.6785,-6.6764,-6.6651,-6.6015,-6.5467,-6.4569,-6.4001,-6.3929,-6.4057,-8.2734,-8.1944,-8.0649,-8.008,-7.9858,-7.8911,-7.7935,-7.7055,-7.6261,-7.5276,-7.4087,-7.3252,-7.262,-7.1946,-7.2028,-7.1951,-7.1811,-7.2516,-7.2917,-7.3391,-7.394,-7.4006,-7.364,-7.3148,-7.2712,-7.2659,-7.2515,-7.2441,-7.2572,-7.2871,-7.2323,-7.1405,-7.1339,-7.0663,-6.9442,-6.8272,-6.7356,-6.6732,-6.6648,-6.6782,-6.6763,-6.6529,-6.6209,-6.6095,-6.5754,-6.5432,-6.5453,-6.5764,-6.6178,-6.6633,-6.7088,-6.7544,-6.7581,-6.7309,-6.6934,-6.6693,-6.6142,-6.6007,-6.6049,-6.6015,-6.6348,-6.6777,-6.7168,-6.7578,-6.8086,-6.8515,-6.8926,-6.9238,-6.9394,-6.9472,-6.9472,-6.9453,-6.9551,-6.9575,-6.9521,-6.9502,-6.937,-6.9292,-6.8989,-6.8458,-6.8158,-6.7988,-6.7683,-6.7223,-6.6515,-6.6001,-6.5561,-6.5616,-6.5799,-6.5873,-6.5854,-6.5836,-6.5763,-6.5579,-6.5231,-6.4974,-6.4772,-6.4571,-6.4259,-6.4057,-6.4005,-6.436,-6.4603,-6.531,-6.5906,-6.6055,-6.6185,-6.6345,-6.6355,-6.6016,-6.5459,-6.4426,-6.4185,-6.4313,-6.4441,-8.305,-8.2734,-8.1786,-8.087,-8.008,-7.97,-7.8943,-7.8029,-7.7457,-7.6492,-7.5195,-7.4458,-7.3655,-7.3134,-7.2892,-7.2647,-7.2399,-7.3481,-7.3803,-7.4087,-7.4505,-7.4908,-7.4498,-7.4155,-7.3513,-7.3532,-7.3467,-7.3314,-7.3171,-7.3936,-7.3684,-7.2983,-7.2335,-7.1464,-7.0523,-6.9576,-6.8574,-6.7715,-6.7729,-6.7957,-6.7122,-6.6982,-6.6642,-6.6323,-6.6209,-6.5754,-6.5588,-6.5867,-6.6323,-6.6799,-6.7233,-6.7709,-6.8144,-6.7754,-6.7659,-6.7461,-6.695,-6.6832,-6.6612,-6.6539,-6.6523,-6.7109,-6.7441,-6.7793,-6.8457,-6.875,-6.9023,-6.9277,-6.9472,-6.9551,-6.9824,-6.9863,-6.9941,-7.0117,-7.0195,-7.0156,-7.0117,-7.0058,-6.9926,-6.949,-6.9245,-6.919,-6.8827,-6.8347,-6.7579,-6.6831,-6.6388,-6.6001,-6.6184,-6.6331,-6.6294,-6.6129,-6.6019,-6.5726,-6.5359,-6.5194,-6.5047,-6.4846,-6.4644,-6.4461,-6.4259,-6.402,-6.434,-6.4956,-6.5573,-6.5892,-6.6135,-6.6135,-6.5982,-6.5547,-6.5003,-6.4242,-6.4313,-6.4588,-6.4843,-8.3208,-8.3145,-8.2703,-8.1818,-8.0744,-8.0269,-7.9637,-7.8878,-7.8372,-7.7538,-7.6221,-7.5414,-7.4851,-7.4395,-7.4043,-7.3835,-7.3736,-7.4497,-7.4832,-7.5183,-7.5628,-7.5841,-7.5599,-7.5182,-7.4657,-7.4533,-7.4207,-7.4065,-7.4283,-7.4778,-7.4353,-7.3644,-7.3231,-7.2632,-7.1397,-7.0692,-6.9798,-6.9268,-6.9054,-6.9115,-6.822,-6.7883,-6.7546,-6.6868,-6.655,-6.6095,-6.5941,-6.6107,-6.6467,-6.6902,-6.7358,-6.7813,-6.8087,-6.8178,-6.8125,-6.8008,-6.7945,-6.7726,-6.7387,-6.6979,-6.6855,-6.7363,-6.7851,-6.8242,-6.8633,-6.8926,-6.9219,-6.9375,-6.9551,-6.9765,-7.0117,-7.0176,-7.0293,-7.0488,-7.0508,-7.0488,-7.0508,-7.0488,-7.0527,-7.0433,-7.0282,-7.0034,-7.0036,-6.9515,-6.8552,-6.7819,-6.7257,-6.6868,-6.6588,-6.6698,-6.6716,-6.6478,-6.6203,-6.5854,-6.5469,-6.5286,-6.5102,-6.5066,-6.4882,-6.4754,-6.4571,-6.435,-6.435,-6.5023,-6.5624,-6.6001,-6.5889,-6.5646,-6.5236,-6.4901,-6.4323,-6.3729,-6.4185,-6.4441,-6.4843,-8.3208,-8.3208,-8.3177,-8.2734,-8.1944,-8.068,-7.9921,-7.9445,-7.8847,-7.7925,-7.6849,-7.5917,-7.5639,-7.5508,-7.5135,-7.5069,-7.5227,-7.5746,-7.6073,-7.6441,-7.6784,-7.7112,-7.6815,-7.6206,-7.5778,-7.6207,-7.5676,-7.5149,-7.5447,-7.5314,-7.481,-7.4498,-7.4175,-7.3823,-7.2095,-7.1437,-7.1246,-7.1427,-7.0971,-7.0402,-6.9671,-6.9115,-6.8556,-6.7883,-6.7095,-6.655,-6.6617,-6.6723,-6.6928,-6.7239,-6.7668,-6.8082,-6.831,-6.8583,-6.8734,-6.8557,-6.8966,-6.8672,-6.7949,-6.7607,-6.7666,-6.7715,-6.8242,-6.8672,-6.8887,-6.914,-6.9433,-6.957,-6.9805,-7.0039,-7.0254,-7.0469,-7.0683,-7.0879,-7.0937,-7.0976,-7.1015,-7.1015,-7.1094,-7.1133,-7.0957,-7.0784,-7.1058,-7.073,-6.9569,-6.8813,-6.8249,-6.7759,-6.7284,-6.7184,-6.734,-6.6753,-6.6404,-6.6038,-6.5671,-6.5359,-6.5176,-6.5157,-6.5102,-6.4956,-6.4956,-6.4882,-6.4956,-6.5254,-6.5369,-6.5599,-6.524,-6.4979,-6.482,-6.4639,-6.3694,-6.327,-6.3729,-6.4313,-6.4715,-8.3208,-8.3208,-8.3208,-8.3082,-8.2766,-8.1881,-8.0932,-7.9889,-7.8973,-7.799,-7.7174,-7.6952,-7.6652,-7.646,-7.6613,-7.6598,-7.6388,-7.6735,-7.7126,-7.7349,-7.7656,-7.7678,-7.75,-7.7149,-7.673,-7.657,-7.6108,-7.5846,-7.5574,-7.5695,-7.5446,-7.5,-7.4946,-7.4244,-7.3832,-7.3484,-7.337,-7.2058,-7.1713,-7.1461,-7.058,-6.9893,-6.9338,-6.878,-6.7883,-6.7448,-6.7427,-6.7414,-6.756,-6.7777,-6.8251,-6.8387,-6.8579,-6.8993,-6.9327,-6.9435,-6.9764,-6.9221,-6.8738,-6.8619,-6.8856,-6.8735,-6.8613,-6.8984,-6.9199,-6.9316,-6.957,-6.9824,-7.0058,-7.0371,-7.0859,-7.1015,-7.125,-7.1562,-7.166,-7.164,-7.166,-7.166,-7.168,-7.1699,-7.1601,-7.1523,-7.1603,-7.1525,-7.0555,-6.9991,-6.9582,-6.8798,-6.8323,-6.8048,-6.8048,-6.7092,-6.6588,-6.6239,-6.5891,-6.5561,-6.5267,-6.5176,-6.5176,-6.5121,-6.5157,-6.5176,-6.5176,-6.5291,-6.5176,-6.5176,-6.5066,-6.4919,-6.4813,-6.4354,-6.3672,-6.3398,-6.399,-6.4319,-6.446,-8.3588,-8.3556,-8.3335,-8.3208,-8.3114,-8.2482,-8.1376,-8.0111,-7.9257,-7.8526,-7.8133,-7.8243,-7.8205,-7.7882,-7.8026,-7.8322,-7.7766,-7.7942,-7.8088,-7.8261,-7.8522,-7.867,-7.8523,-7.8174,-7.8067,-7.7609,-7.7161,-7.6883,-7.6788,-7.6566,-7.6298,-7.6004,-7.5749,-7.583,-7.5592,-7.5089,-7.425,-7.3214,-7.3229,-7.2555,-7.168,-7.0888,-7.0337,-6.9449,-6.8733,-6.8324,-6.8251,-6.8284,-6.8287,-6.8539,-6.8647,-6.873,-6.9067,-6.9383,-6.9818,-7.003,-7.0154,-6.9876,-6.9812,-6.9459,-6.9488,-6.9525,-6.9154,-6.916,-6.9433,-6.959,-6.9785,-7.0039,-7.0312,-7.0762,-7.123,-7.1406,-7.168,-7.1972,-7.1972,-7.1953,-7.1953,-7.1914,-7.1914,-7.1972,-7.1972,-7.1992,-7.1992,-7.1856,-7.1486,-7.1116,-7.0901,-7.0098,-6.9273,-6.896,-6.8647,-6.7781,-6.6982,-6.6496,-6.6129,-6.5763,-6.5487,-6.5231,-6.5176,-6.5176,-6.5176,-6.5176,-6.5176,-6.5176,-6.5176,-6.5176,-6.5139,-6.4992,-6.4979,-6.4758,-6.4277,-6.4191,-6.4324,-6.4435,-6.4523,-8.4283,-8.4188,-8.3524,-8.3272,-8.3114,-8.2545,-8.1502,-8.0238,-7.9824,-7.9632,-7.9599,-7.9273,-7.9402,-7.9755,-7.9652,-7.9627,-7.9562,-7.9486,-7.9413,-7.9405,-7.9639,-7.9634,-7.9608,-7.9402,-7.9157,-7.9038,-7.8679,-7.8092,-7.8297,-7.7061,-7.6783,-7.7262,-7.7252,-7.7264,-7.6683,-7.6059,-7.5058,-7.4594,-7.4325,-7.3701,-7.2772,-7.2227,-7.1438,-7.0469,-6.9804,-6.9418,-6.9198,-6.9101,-6.9205,-6.9303,-6.9258,-6.9464,-6.9547,-6.9603,-6.9818,-7.0216,-7.0524,-7.0826,-7.083,-7.0331,-7.0174,-7.0061,-6.9617,-6.9565,-6.959,-6.9844,-7.0078,-7.043,-7.0781,-7.1094,-7.1445,-7.168,-7.1914,-7.1992,-7.1992,-7.1992,-7.1992,-7.1972,-7.1972,-7.1992,-7.1992,-7.1992,-7.1992,-7.1992,-7.1856,-7.172,-7.1467,-7.1057,-7.0236,-6.9549,-6.9098,-6.8491,-6.7688,-6.6926,-6.6404,-6.5946,-6.5561,-6.5249,-6.5194,-6.5176,-6.5176,-6.5176,-6.5176,-6.5176,-6.5176,-6.5176,-6.5157,-6.5157,-6.5139,-6.4901,-6.4662,-6.4538,-6.4506,-6.4416,-6.4603,-8.4523,-8.4283,-8.4062,-8.3682,-8.324,-8.3019,-8.2418,-8.1597,-8.0994,-8.0613,-8.0323,-8.0791,-8.0838,-8.0777,-8.0662,-8.1016,-8.0791,-8.0513,-8.0497,-8.0546,-8.0445,-8.0339,-8.0248,-8.0224,-7.9906,-7.9774,-7.9542,-7.9128,-7.8067,-7.7001,-7.7204,-7.79,-7.7669,-7.7724,-7.7694,-7.721,-7.628,-7.5597,-7.5495,-7.4776,-7.3748,-7.3098,-7.2337,-7.1661,-7.1026,-7.0736,-7.0589,-7.0457,-7.0589,-7.0484,-7.0048,-6.998,-7.0248,-7.0337,-7.045,-7.1208,-7.1475,-7.1717,-7.166,-7.1317,-7.0842,-7.046,-6.9866,-6.9799,-6.9824,-7.0078,-7.0371,-7.0801,-7.1152,-7.1445,-7.164,-7.1855,-7.1992,-7.1992,-7.1992,-7.1992,-7.1992,-7.1992,-7.1992,-7.1992,-7.1992,-7.1992,-7.1992,-7.1992,-7.1992,-7.1992,-7.1856,-7.1584,-7.1194,-7.0373,-6.9824,-6.9079,-6.8204,-6.754,-6.6669,-6.6074,-6.5653,-6.5304,-6.5249,-6.5194,-6.5176,-6.5176,-6.5176,-6.5176,-6.5176,-6.5176,-6.5176,-6.5176,-6.5176,-6.5176,-6.4974,-6.4772,-6.4685,-6.4614,-6.4693,-8.5144,-8.5105,-8.4789,-8.4283,-8.3651,-8.3335,-8.2956,-8.2513,-8.1881,-8.1436,-8.1337,-8.165,-8.1799,-8.1842,-8.2031,-8.2234,-8.2354,-8.2101,-8.1938,-8.1538,-8.1072,-8.1233,-8.1259,-8.1216,-8.1109,-8.0924,-8.0673,-8.024,-7.8967,-7.813,-7.8175,-7.8048,-7.7577,-7.7929,-7.8188,-7.8107,-7.7585,-7.6802,-7.6146,-7.5769,-7.493,-7.3987,-7.3516,-7.2876,-7.2449,-7.2257,-7.2051,-7.1881,-7.1889,-7.177,-7.1157,-7.1085,-7.1201,-7.1157,-7.1094,-7.1581,-7.1932,-7.2135,-7.2206,-7.2123,-7.1571,-7.0911,-7.0397,-7.0205,-7.0308,-7.041,-7.0781,-7.1172,-7.1445,-7.1719,-7.1855,-7.1992,-7.1992,-7.1992,-7.1992,-7.1992,-7.1992,-7.1992,-7.1992,-7.1992,-7.1992,-7.1992,-7.1992,-7.1992,-7.1992,-7.1992,-7.1992,-7.1856,-7.1603,-7.1057,-7.051,-7.0079,-6.8948,-6.8,-6.7245,-6.6412,-6.5946,-6.5579,-6.5286,-6.5231,-6.5212,-6.5212,-6.5249,-6.5231,-6.5176,-6.5231,-6.5322,-6.5212,-6.5176,-6.5212,-6.5231,-6.5047,-6.4882,-6.4923,-6.4909,-8.6057,-8.6242,-8.561,-8.4915,-8.4315,-8.3651,-8.3335,-8.3208,-8.2576,-8.226,-8.226,-8.226,-8.2506,-8.2839,-8.3135,-8.3376,-8.3542,-8.346,-8.3228,-8.283,-8.2491,-8.2399,-8.243,-8.2378,-8.2174,-8.2279,-8.2029,-8.1377,-8.0856,-7.9701,-7.8485,-7.8354,-7.8496,-7.8698,-7.8717,-7.9049,-7.8668,-7.7887,-7.7299,-7.6841,-7.615,-7.5453,-7.4761,-7.3746,-7.3408,-7.3419,-7.3112,-7.3017,-7.3059,-7.2952,-7.2696,-7.2451,-7.2092,-7.2012,-7.1827,-7.1872,-7.2139,-7.2468,-7.2754,-7.2632,-7.2238,-7.1663,-7.127,-7.0989,-7.0848,-7.0722,-7.1094,-7.1445,-7.1738,-7.1836,-7.1953,-7.1992,-7.1992,-7.1992,-7.1992,-7.1992,-7.1992,-7.1992,-7.1992,-7.1992,-7.1992,-7.1992,-7.1992,-7.1992,-7.1992,-7.1992,-7.1992,-7.1992,-7.1856,-7.1467,-7.1057,-7.0647,-6.971,-6.868,-6.7796,-6.6997,-6.6294,-6.5946,-6.5597,-6.5506,-6.5634,-6.5524,-6.5322,-6.5469,-6.5634,-6.5487,-6.5487,-6.5487,-6.5487,-6.5377,-6.5359,-6.5267,-6.5176,-6.5084,-6.5144,-8.6289,-8.6305,-8.561,-8.5199,-8.4978,-8.4315,-8.403,-8.3967,-8.3272,-8.2987,-8.2987,-8.305,-8.3269,-8.3802,-8.3849,-8.4231,-8.4893,-8.4595,-8.4351,-8.3903,-8.3537,-8.3401,-8.3283,-8.3065,-8.3057,-8.3116,-8.2847,-8.2058,-8.0943,-7.9768,-7.9101,-7.9224,-7.9043,-7.8813,-7.9363,-7.9782,-7.9438,-7.8768,-7.8514,-7.7817,-7.6971,-7.6511,-7.5857,-7.5079,-7.4724,-7.4503,-7.4288,-7.4107,-7.39,-7.3618,-7.3439,-7.2904,-7.2172,-7.2355,-7.2287,-7.2161,-7.245,-7.2884,-7.3108,-7.2991,-7.2537,-7.2203,-7.1834,-7.1465,-7.1311,-7.1264,-7.1347,-7.1699,-7.1894,-7.1953,-7.1992,-7.1992,-7.1992,-7.1992,-7.1992,-7.1992,-7.1992,-7.1992,-7.1992,-7.1992,-7.1992,-7.1992,-7.1992,-7.1992,-7.1992,-7.1992,-7.1992,-7.1992,-7.1992,-7.172,-7.1467,-7.092,-7.0236,-6.9223,-6.8374,-6.7566,-6.6861,-6.6386,-6.6111,-6.6056,-6.6056,-6.5946,-6.5836,-6.6038,-6.6166,-6.5964,-6.5909,-6.6111,-6.6056,-6.5781,-6.5561,-6.5487,-6.5304,-6.5194,-6.5176,-8.6424,-8.6472,-8.6016,-8.5768,-8.5642,-8.5041,-8.4725,-8.4662,-8.4315,-8.4157,-8.4093,-8.3872,-8.3935,-8.4504,-8.465,-8.4981,-8.5748,-8.5502,-8.5173,-8.4759,-8.4451,-8.4274,-8.4027,-8.3834,-8.3906,-8.3923,-8.3404,-8.251,-8.1143,-8.0304,-7.992,-7.9902,-7.9319,-7.9242,-7.9978,-8.0034,-7.9975,-7.964,-7.9506,-7.8862,-7.7811,-7.7434,-7.6933,-7.6295,-7.5963,-7.5635,-7.5308,-7.5153,-7.4765,-7.4598,-7.4344,-7.3828,-7.3148,-7.2978,-7.2849,-7.2684,-7.2869,-7.3112,-7.3315,-7.3223,-7.2836,-7.2482,-7.2317,-7.218,-7.1715,-7.1535,-7.1621,-7.1933,-7.1953,-7.1992,-7.1992,-7.1992,-7.1992,-7.1992,-7.1992,-7.1992,-7.1992,-7.1992,-7.1992,-7.1992,-7.1992,-7.1992,-7.1992,-7.1992,-7.1992,-7.1992,-7.1992,-7.1992,-7.1992,-7.1992,-7.1739,-7.133,-7.0647,-6.9942,-6.9204,-6.8256,-6.7411,-6.6971,-6.6588,-6.6404,-6.6313,-6.6349,-6.6386,-6.6478,-6.6478,-6.6349,-6.6368,-6.6533,-6.6423,-6.6129,-6.5909,-6.5726,-6.5524,-6.5304,-6.5212,-8.6573,-8.6798,-8.661,-8.6495,-8.6369,-8.5737,-8.5452,-8.5421,-8.5326,-8.5263,-8.5168,-8.4725,-8.4567,-8.501,-8.5673,-8.5974,-8.6138,-8.6267,-8.5983,-8.5854,-8.5495,-8.5289,-8.5036,-8.4773,-8.4795,-8.4538,-8.4142,-8.3247,-8.2111,-8.1445,-8.0986,-8.0619,-8.0297,-7.9974,-8.0062,-8.0202,-8.0295,-8.0084,-7.9957,-7.9633,-7.9084,-7.8377,-7.7829,-7.739,-7.7064,-7.6696,-7.6351,-7.6177,-7.5702,-7.5421,-7.5164,-7.4549,-7.4099,-7.3848,-7.3409,-7.327,-7.3309,-7.3471,-7.3505,-7.348,-7.3285,-7.2994,-7.2882,-7.2645,-7.216,-7.204,-7.2107,-7.1992,-7.1992,-7.1992,-7.1992,-7.2109,-7.2109,-7.2109,-7.2109,-7.2109,-7.2109,-7.2051,-7.1992,-7.1992,-7.1992,-7.1992,-7.1992,-7.1992,-7.1992,-7.1992,-7.1992,-7.1992,-7.1992,-7.1992,-7.1856,-7.1739,-7.133,-7.0628,-7.0041,-6.8929,-6.7963,-6.7651,-6.7248,-6.6871,-6.6606,-6.679,-6.6845,-6.6734,-6.6698,-6.6734,-6.6734,-6.6826,-6.6661,-6.6514,-6.6221,-6.5983,-6.5671,-6.5451,-6.5249,-8.6714,-8.7241,-8.7254,-8.719,-8.7096,-8.6463,-8.6179,-8.6053,-8.5579,-8.5326,-8.5515,-8.5895,-8.5958,-8.6026,-8.6216,-8.649,-8.6856,-8.6994,-8.7294,-8.7347,-8.6689,-8.6437,-8.6151,-8.5701,-8.5572,-8.5246,-8.4946,-8.4504,-8.3478,-8.2985,-8.2586,-8.2152,-8.1354,-8.0998,-8.1058,-8.1063,-8.0948,-8.0746,-8.0605,-8.0572,-8.0311,-7.9584,-7.8442,-7.8004,-7.7837,-7.7242,-7.6786,-7.6795,-7.6548,-7.6273,-7.5908,-7.5367,-7.5044,-7.4699,-7.4285,-7.394,-7.3857,-7.3851,-7.3824,-7.3737,-7.3414,-7.3697,-7.3529,-7.3031,-7.2646,-7.2296,-7.2185,-7.1992,-7.1992,-7.1992,-7.2051,-7.2383,-7.248,-7.2519,-7.2519,-7.25,-7.248,-7.2207,-7.1992,-7.1992,-7.1992,-7.1992,-7.1992,-7.1992,-7.1992,-7.1992,-7.1992,-7.1992,-7.1992,-7.1992,-7.1992,-7.1856,-7.1739,-7.1467,-7.0784,-6.953,-6.8673,-6.826,-6.7809,-6.7331,-6.7156,-6.7376,-6.7376,-6.7156,-6.723,-6.734,-6.7303,-6.7138,-6.7083,-6.6918,-6.6551,-6.6239,-6.5909,-6.5597,-6.5377]},{"header":{"parameterUnit":"m.s-1","parameterCategory":1,"la1":31.0,"la2":29.5877,"lo1":-88.7671,"lo2":-86.6584,"dy":0.0162,"dx":0.0185,"nx":115,"ny":88,"refTime":"2024-03-24T18:00:00:Z","depth":0,"parameterNumber":3,"parameterNumberName":"V-component_of_WINDS"},"data":[0.0,0.0,0.0,0.0,0.0,0.0,0.0,0.0,0.0,0.0,0.0,0.0,0.0,0.0,0.0,0.0,0.0,0.0,0.0,0.0,0.0,0.0,0.0,0.0,0.0,0.0,0.0,0.0,0.0,0.0,0.0,0.0,0.0,0.0,0.0,0.0,0.0,0.0,0.0,0.0,0.0,0.0,0.0,0.0,0.0,0.0,0.0,0.0,0.0,0.0,0.0,0.0,0.0,0.0,0.0,0.0,0.0,0.0,0.0,0.0,0.0,0.0,0.0,0.0,0.0,0.0,0.0,0.0,0.0,0.0,0.0,0.0,0.0,0.0,0.0,0.0,0.0,0.0,0.0,0.0,0.0,0.0,0.0,0.0,0.0,0.0,0.0,0.0,0.0,0.0,0.0,0.0,0.0,0.0,0.0,0.0,0.0,0.0,0.0,0.0,0.0,0.0,0.0,0.0,0.0,0.0,0.0,0.0,0.0,0.0,0.0,0.0,0.0,0.0,0.0,0.0,0.0,0.0,0.0,0.0,0.0,0.0,0.0,0.0,0.0,0.0,0.0,0.0,0.0,0.0,0.0,0.0,0.0,0.0,0.0,0.0,0.0,0.0,0.0,0.0,0.0,0.0,0.0,0.0,0.0,0.0,0.0,0.0,0.0,0.0,0.0,0.0,0.0,0.0,0.0,0.0,0.0,0.0,0.0,0.0,0.0,0.0,0.0,0.0,0.0,0.0,0.0,0.0,0.0,0.0,0.0,0.0,0.0,0.0,0.0,0.0,0.0,0.0,0.0,0.0,0.0,0.0,0.0,0.0,0.0,0.0,0.0,0.0,0.0,0.0,0.0,0.0,0.0,0.0,0.0,0.0,0.0,0.0,0.0,0.0,0.0,0.0,0.0,0.0,0.0,0.0,0.0,0.0,0.0,0.0,0.0,0.0,0.0,0.0,0.0,0.0,0.0,0.0,0.0,0.0,0.0,0.0,0.0,0.0,0.0,0.0,0.0,0.0,0.0,0.0,0.0,0.0,0.0,0.0,0.0,0.0,0.0,0.0,0.0,0.0,0.0,0.0,0.0,0.0,0.0,0.0,0.0,0.0,0.0,0.0,0.0,0.0,0.0,0.0,0.0,0.0,0.0,0.0,0.0,0.0,0.0,0.0,0.0,0.0,0.0,0.0,0.0,0.0,0.0,0.0,0.0,0.0,0.0,0.0,0.0,0.0,0.0,0.0,0.0,0.0,0.0,0.0,0.0,0.0,0.0,0.0,0.0,0.0,0.0,0.0,0.0,0.0,0.0,0.0,0.0,0.0,0.0,0.0,0.0,0.0,0.0,0.0,0.0,0.0,0.0,0.0,0.0,0.0,0.0,0.0,0.0,0.0,0.0,0.0,0.0,0.0,0.0,0.0,0.0,0.0,0.0,0.0,0.0,0.0,0.0,0.0,0.0,0.0,0.0,0.0,0.0,0.0,0.0,0.0,0.0,0.0,0.0,0.0,0.0,0.0,0.0,0.0,0.0,0.0,0.0,0.0,0.0,0.0,0.0,0.0,0.0,0.0,0.0,0.0,0.0,0.0,0.0,0.0,0.0,0.0,0.0,0.0,0.0,0.0,0.0,0.0,0.0,0.0,0.0,0.0,0.0,0.0,0.0,0.0,0.0,0.0,0.0,0.0,0.0,0.0,0.0,0.0,0.0,0.0,0.0,0.0,0.0,0.0,0.0,0.0,0.0,0.0,0.0,0.0,0.0,0.0,0.0,0.0,0.0,0.0,0.0,0.0,0.0,0.0,0.0,0.0,0.0,0.0,0.0,0.0,0.0,0.0,0.0,0.0,0.0,0.0,0.0,0.0,0.0,0.0,0.0,0.0,0.0,0.0,0.0,0.0,0.0,0.0,0.0,0.0,0.0,0.0,0.0,0.0,0.0,0.0,0.0,0.0,0.0,0.0,0.0,0.0,0.0,0.0,0.0,0.0,0.0,0.0,0.0,0.0,0.0,0.0,0.0,0.0,0.0,0.0,0.0,0.0,0.0,0.0,0.0,0.0,0.0,0.0,0.0,0.0,0.0,0.0,0.0,0.0,0.0,0.0,0.0,0.0,0.0,0.0,0.0,0.0,0.0,0.0,0.0,0.0,0.0,0.0,0.0,0.0,0.0,0.0,0.0,0.0,0.0,0.0,0.0,0.0,0.0,0.0,0.0,0.0,0.0,0.0,0.0,0.0,0.0,0.0,0.0,0.0,0.0,0.0,0.0,0.0,0.0,0.0,0.0,0.0,0.0,0.0,0.0,0.0,0.0,0.0,0.0,0.0,0.0,0.0,0.0,0.0,0.0,0.0,0.0,0.0,0.0,0.0,0.0,0.0,0.0,0.0,0.0,0.0,0.0,0.0,0.0,0.0,0.0,0.0,0.0,0.0,0.0,0.0,0.0,0.0,0.0,0.0,0.0,0.0,0.0,0.0,0.0,0.0,0.0,0.0,0.0,0.0,0.0,0.0,0.0,0.0,0.0,0.0,0.0,0.0,0.0,0.0,0.0,0.0,0.0,0.0,0.0,0.0,0.0,0.0,0.0,0.0,0.0,0.0,0.0,0.0,0.0,0.0,0.0,0.0,0.0,0.0,0.0,0.0,0.0,0.0,0.0,0.0,0.0,0.0,0.0,0.0,0.0,0.0,0.0,0.0,0.0,0.0,0.0,0.0,0.0,0.0,0.0,0.0,0.0,0.0,0.0,0.0,0.0,0.0,0.0,0.0,0.0,0.0,0.0,0.0,0.0,0.0,0.0,0.0,0.0,0.0,0.0,0.0,0.0,0.0,0.0,0.0,0.0,0.0,0.0,0.0,0.0,0.0,0.0,0.0,0.0,0.0,0.0,0.0,0.0,0.0,0.0,0.0,0.0,0.0,0.0,0.0,0.0,0.0,0.0,0.0,0.0,0.0,0.0,0.0,0.0,0.0,0.0,0.0,0.0,0.0,0.0,0.0,0.0,0.0,0.0,0.0,0.0,0.0,0.0,0.0,0.0,0.0,0.0,0.0,0.0,0.0,0.0,0.0,0.0,0.0,0.0,0.0,0.0,0.0,0.0,0.0,0.0,0.0,0.0,0.0,0.0,0.0,0.0,0.0,0.0,0.0,0.0,0.0,0.0,0.0,0.0,0.0,0.0,0.0,0.0,0.0,0.0,0.0,0.0,0.0,0.0,0.0,0.0,0.0,0.0,0.0,0.0,0.0,0.0,0.0,0.0,0.0,0.0,0.0,0.0,0.0,0.0,0.0,0.0,0.0,0.0,0.0,0.0,0.0,0.0,0.0,0.0,0.0,0.0,0.0,0.0,0.0,0.0,0.0,0.0,0.0,0.0,0.0,0.0,0.0,0.0,0.0,0.0,0.0,0.0,0.0,0.0,0.0,0.0,0.0,0.0,0.0,0.0,0.0,0.0,0.0,0.0,0.0,0.0,0.0,0.0,0.0,0.0,0.0,0.0,0.0,0.0,0.0,0.0,0.0,0.0,0.0,0.0,0.0,0.0,0.0,0.0,0.0,0.0,0.0,0.0,0.0,0.0,0.0,0.0,0.0,0.0,0.0,0.0,0.0,0.0,0.0,0.0,0.0,0.0,0.0,0.0,0.0,0.0,0.0,0.0,0.0,0.0,0.0,0.0,0.0,0.0,0.0,0.0,0.0,0.0,0.0,0.0,0.0,0.0,0.0,0.0,0.0,0.0,0.0,0.0,0.0,0.0,0.0,0.0,0.0,0.0,0.0,0.0,0.0,0.0,0.0,0.0,0.0,0.0,0.0,0.0,0.0,0.0,0.0,0.0,0.0,0.0,0.0,0.0,0.0,0.0,0.0,0.0,0.0,0.0,0.0,0.0,0.0,0.0,0.0,0.0,0.0,0.0,0.0,0.0,0.0,0.0,0.0,0.0,0.0,0.0,0.0,0.0,0.0,0.0,0.0,0.0,0.0,0.0,0.0,0.0,0.0,0.0,0.0,0.0,0.0,0.0,0.0,0.0,0.0,0.0,0.0,0.0,0.0,0.0,0.0,0.0,0.0,0.0,0.0,0.0,0.0,0.0,0.0,0.0,0.0,0.0,0.0,0.0,0.0,0.0,0.0,0.0,0.0,0.0,0.0,0.0,0.0,0.0,0.0,0.0,0.0,0.0,0.0,0.0,0.0,0.0,0.0,0.0,0.0,0.0,0.0,0.0,0.0,0.0,0.0,0.0,0.0,0.0,0.0,0.0,0.0,0.0,0.0,0.0,0.0,0.0,0.0,7.1312,0.0,0.0,0.0,0.0,0.0,0.0,0.0,0.0,0.0,0.0,0.0,0.0,0.0,0.0,0.0,0.0,0.0,0.0,0.0,0.0,0.0,0.0,0.0,0.0,0.0,0.0,0.0,0.0,0.0,0.0,0.0,0.0,0.0,0.0,0.0,0.0,0.0,0.0,0.0,0.0,0.0,0.0,0.0,0.0,0.0,0.0,0.0,0.0,0.0,0.0,0.0,0.0,0.0,0.0,0.0,0.0,0.0,0.0,0.0,0.0,0.0,0.0,0.0,0.0,0.0,0.0,0.0,0.0,0.0,0.0,0.0,0.0,0.0,0.0,0.0,0.0,0.0,0.0,0.0,0.0,0.0,0.0,0.0,0.0,0.0,0.0,0.0,0.0,0.0,0.0,0.0,0.0,0.0,0.0,0.0,0.0,0.0,0.0,0.0,0.0,0.0,0.0,0.0,0.0,0.0,0.0,0.0,0.0,0.0,0.0,7.1312,7.1312,7.1312,7.1312,7.1312,0.0,0.0,0.0,0.0,0.0,0.0,0.0,0.0,0.0,0.0,0.0,0.0,0.0,0.0,0.0,0.0,0.0,0.0,0.0,0.0,0.0,0.0,0.0,0.0,0.0,0.0,0.0,0.0,0.0,0.0,0.0,0.0,0.0,0.0,0.0,0.0,0.0,0.0,0.0,0.0,0.0,0.0,0.0,0.0,0.0,0.0,0.0,0.0,0.0,0.0,0.0,0.0,0.0,0.0,0.0,0.0,0.0,0.0,0.0,0.0,0.0,0.0,0.0,0.0,0.0,0.0,0.0,0.0,0.0,0.0,0.0,0.0,0.0,0.0,0.0,0.0,0.0,0.0,0.0,0.0,0.0,0.0,0.0,0.0,0.0,0.0,0.0,0.0,0.0,0.0,0.0,0.0,0.0,0.0,0.0,0.0,0.0,0.0,0.0,0.0,0.0,0.0,0.0,0.0,0.0,0.0,0.0,0.0,0.0,0.0,0.0,0.0,7.1312,7.1312,7.1312,0.0,0.0,0.0,0.0,0.0,0.0,0.0,0.0,0.0,0.0,0.0,0.0,0.0,0.0,0.0,0.0,0.0,0.0,0.0,0.0,0.0,0.0,0.0,0.0,0.0,0.0,0.0,0.0,0.0,0.0,0.0,0.0,0.0,0.0,0.0,0.0,0.0,0.0,0.0,0.0,0.0,0.0,0.0,0.0,0.0,0.0,0.0,0.0,0.0,0.0,0.0,0.0,0.0,0.0,0.0,0.0,0.0,0.0,0.0,0.0,0.0,0.0,0.0,0.0,0.0,0.0,0.0,0.0,0.0,0.0,0.0,0.0,0.0,0.0,0.0,0.0,0.0,0.0,0.0,0.0,0.0,0.0,0.0,0.0,0.0,0.0,0.0,0.0,0.0,0.0,0.0,0.0,0.0,0.0,0.0,0.0,0.0,0.0,0.0,0.0,0.0,0.0,0.0,0.0,0.0,0.0,0.0,0.0,0.0,0.0,7.1988,7.1345,7.1312,0.0,7.1312,0.0,0.0,0.0,0.0,0.0,0.0,0.0,0.0,0.0,0.0,0.0,0.0,0.0,0.0,0.0,0.0,0.0,0.0,0.0,0.0,0.0,0.0,0.0,0.0,0.0,0.0,0.0,0.0,0.0,0.0,0.0,0.0,0.0,0.0,0.0,0.0,0.0,0.0,0.0,0.0,0.0,0.0,0.0,0.0,0.0,0.0,0.0,0.0,0.0,0.0,0.0,0.0,0.0,0.0,0.0,0.0,0.0,0.0,0.0,0.0,0.0,0.0,0.0,0.0,0.0,0.0,0.0,0.0,0.0,0.0,0.0,0.0,0.0,0.0,0.0,0.0,0.0,0.0,0.0,0.0,0.0,0.0,0.0,0.0,0.0,0.0,0.0,0.0,0.0,0.0,0.0,0.0,0.0,0.0,0.0,0.0,0.0,0.0,0.0,0.0,0.0,0.0,0.0,0.0,0.0,0.0,0.0,0.0,0.0,0.0,7.2902,7.2597,7.2191,7.1751,0.0,0.0,0.0,0.0,0.0,0.0,0.0,0.0,0.0,0.0,0.0,0.0,0.0,0.0,0.0,0.0,0.0,0.0,0.0,0.0,0.0,0.0,0.0,0.0,0.0,0.0,0.0,0.0,0.0,0.0,0.0,0.0,0.0,0.0,0.0,0.0,0.0,0.0,0.0,0.0,0.0,0.0,0.0,0.0,0.0,0.0,0.0,0.0,0.0,0.0,0.0,0.0,0.0,0.0,0.0,0.0,0.0,0.0,0.0,0.0,0.0,0.0,0.0,0.0,0.0,0.0,0.0,0.0,0.0,0.0,0.0,0.0,0.0,0.0,0.0,0.0,0.0,0.0,0.0,0.0,0.0,0.0,0.0,0.0,0.0,0.0,0.0,0.0,0.0,0.0,0.0,0.0,0.0,0.0,0.0,0.0,0.0,0.0,0.0,0.0,0.0,0.0,0.0,0.0,0.0,0.0,0.0,0.0,0.0,0.0,7.4086,7.3713,7.3477,7.2969,7.2462,7.1921,0.0,0.0,0.0,0.0,0.0,0.0,0.0,0.0,0.0,0.0,0.0,0.0,0.0,0.0,0.0,0.0,0.0,0.0,0.0,0.0,0.0,0.0,0.0,0.0,0.0,0.0,0.0,0.0,0.0,0.0,0.0,0.0,0.0,0.0,0.0,0.0,0.0,0.0,0.0,0.0,0.0,0.0,0.0,0.0,0.0,0.0,0.0,0.0,0.0,0.0,0.0,0.0,0.0,0.0,0.0,0.0,0.0,0.0,0.0,0.0,0.0,0.0,0.0,0.0,0.0,0.0,0.0,0.0,0.0,0.0,0.0,0.0,0.0,0.0,0.0,0.0,0.0,0.0,0.0,0.0,0.0,0.0,0.0,0.0,0.0,0.0,0.0,0.0,0.0,0.0,0.0,0.0,0.0,0.0,0.0,0.0,0.0,0.0,0.0,0.0,0.0,0.0,0.0,0.0,0.0,0.0,0.0,0.0,7.4647,7.4627,7.4221,7.3544,7.3443,7.3409,0.0,0.0,0.0,0.0,0.0,0.0,0.0,0.0,0.0,0.0,0.0,0.0,0.0,0.0,0.0,0.0,0.0,0.0,0.0,0.0,0.0,0.0,0.0,0.0,0.0,0.0,0.0,0.0,0.0,0.0,0.0,0.0,0.0,0.0,0.0,0.0,0.0,0.0,0.0,0.0,0.0,0.0,0.0,0.0,0.0,0.0,0.0,0.0,0.0,0.0,0.0,0.0,0.0,0.0,0.0,0.0,0.0,0.0,0.0,0.0,0.0,0.0,0.0,0.0,0.0,0.0,0.0,0.0,0.0,0.0,0.0,0.0,0.0,0.0,0.0,0.0,0.0,0.0,0.0,0.0,0.0,0.0,0.0,0.0,0.0,0.0,0.0,0.0,0.0,0.0,0.0,0.0,0.0,0.0,0.0,0.0,0.0,0.0,0.0,0.0,0.0,0.0,0.0,0.0,0.0,0.0,0.0,0.0,0.0,7.6724,7.6318,7.5473,7.4289,7.4221,7.3984,0.0,0.0,0.0,0.0,0.0,0.0,0.0,0.0,0.0,0.0,0.0,0.0,0.0,0.0,0.0,0.0,0.0,0.0,0.0,0.0,0.0,0.0,0.0,0.0,0.0,0.0,0.0,0.0,0.0,0.0,0.0,0.0,0.0,0.0,0.0,0.0,0.0,0.0,0.0,0.0,0.0,0.0,0.0,0.0,0.0,0.0,0.0,0.0,0.0,0.0,0.0,0.0,0.0,0.0,0.0,0.0,0.0,0.0,0.0,0.0,0.0,0.0,0.0,0.0,0.0,0.0,0.0,0.0,0.0,0.0,0.0,0.0,0.0,0.0,0.0,0.0,0.0,0.0,0.0,0.0,0.0,0.0,0.0,0.0,0.0,0.0,0.0,0.0,0.0,0.0,0.0,0.0,0.0,0.0,0.0,0.0,0.0,0.0,0.0,0.0,0.0,0.0,0.0,0.0,0.0,0.0,0.0,0.0,0.0,7.7942,0.0,7.6758,7.5777,7.5473,7.51,0.0,0.0,0.0,0.0,0.0,0.0,0.0,0.0,0.0,0.0,0.0,0.0,0.0,0.0,0.0,0.0,0.0,0.0,0.0,0.0,0.0,0.0,0.0,0.0,0.0,0.0,0.0,0.0,0.0,0.0,0.0,0.0,0.0,0.0,0.0,0.0,0.0,0.0,0.0,0.0,0.0,0.0,0.0,0.0,0.0,0.0,0.0,0.0,0.0,0.0,0.0,0.0,0.0,0.0,0.0,0.0,0.0,0.0,0.0,0.0,0.0,0.0,0.0,0.0,0.0,0.0,0.0,0.0,0.0,0.0,0.0,0.0,0.0,0.0,0.0,0.0,0.0,0.0,0.0,0.0,0.0,0.0,0.0,0.0,0.0,0.0,0.0,0.0,0.0,0.0,0.0,0.0,0.0,0.0,0.0,0.0,0.0,0.0,0.0,0.0,0.0,0.0,0.0,0.0,0.0,0.0,0.0,0.0,7.8111,7.8044,7.8077,7.8044,7.7942,7.7266,7.6893,0.0,0.0,0.0,0.0,0.0,0.0,0.0,0.0,0.0,0.0,0.0,0.0,0.0,0.0,0.0,0.0,0.0,0.0,0.0,0.0,0.0,0.0,0.0,0.0,0.0,0.0,0.0,0.0,0.0,0.0,0.0,0.0,0.0,0.0,0.0,0.0,0.0,0.0,0.0,0.0,0.0,0.0,0.0,0.0,0.0,0.0,0.0,0.0,0.0,0.0,0.0,0.0,0.0,0.0,0.0,0.0,0.0,0.0,0.0,0.0,0.0,0.0,0.0,0.0,0.0,0.0,0.0,0.0,0.0,0.0,0.0,0.0,0.0,0.0,0.0,0.0,0.0,0.0,0.0,0.0,0.0,0.0,0.0,0.0,0.0,0.0,0.0,0.0,0.0,0.0,0.0,0.0,0.0,0.0,0.0,0.0,0.0,0.0,0.0,0.0,0.0,0.0,0.0,0.0,0.0,0.0,0.0,0.0,0.0,8.031,8.0242,7.9769,7.8822,7.8551,7.8179,0.0,0.0,0.0,0.0,0.0,0.0,0.0,0.0,0.0,0.0,0.0,0.0,0.0,0.0,0.0,0.0,0.0,0.0,0.0,0.0,0.0,0.0,0.0,0.0,0.0,0.0,0.0,0.0,0.0,0.0,0.0,0.0,0.0,0.0,0.0,0.0,0.0,0.0,0.0,0.0,0.0,0.0,0.0,0.0,0.0,0.0,0.0,0.0,0.0,0.0,0.0,0.0,0.0,0.0,0.0,0.0,0.0,0.0,0.0,0.0,0.0,0.0,0.0,0.0,0.0,0.0,0.0,0.0,0.0,0.0,0.0,0.0,0.0,0.0,0.0,0.0,0.0,0.0,0.0,0.0,0.0,0.0,0.0,0.0,0.0,0.0,0.0,0.0,0.0,0.0,0.0,0.0,0.0,0.0,0.0,0.0,0.0,0.0,0.0,0.0,0.0,0.0,0.0,0.0,0.0,0.0,0.0,0.0,0.0,8.3389,8.2543,8.1663,8.075,8.0209,7.9566,7.8855,0.0,0.0,0.0,0.0,0.0,0.0,0.0,0.0,0.0,0.0,0.0,0.0,0.0,0.0,0.0,0.0,0.0,0.0,0.0,0.0,0.0,0.0,0.0,0.0,0.0,0.0,0.0,0.0,0.0,0.0,0.0,0.0,0.0,0.0,0.0,0.0,0.0,0.0,0.0,0.0,0.0,0.0,0.0,0.0,0.0,0.0,0.0,0.0,0.0,0.0,0.0,0.0,0.0,0.0,0.0,0.0,0.0,0.0,0.0,0.0,0.0,0.0,0.0,0.0,0.0,0.0,0.0,0.0,0.0,0.0,0.0,0.0,0.0,0.0,0.0,0.0,0.0,0.0,0.0,0.0,0.0,0.0,0.0,0.0,0.0,0.0,0.0,0.0,0.0,0.0,0.0,0.0,0.0,0.0,0.0,0.0,0.0,0.0,0.0,0.0,0.0,0.0,0.0,0.0,0.0,0.0,0.0,0.0,8.7144,8.5012,8.3828,8.3644,8.2256,8.1173,0.0,0.0,0.0,0.0,0.0,0.0,0.0,0.0,0.0,0.0,0.0,0.0,0.0,0.0,0.0,0.0,0.0,0.0,0.0,0.0,0.0,0.0,0.0,0.0,0.0,0.0,0.0,0.0,0.0,0.0,0.0,0.0,0.0,0.0,0.0,0.0,0.0,0.0,0.0,0.0,0.0,0.0,0.0,0.0,0.0,0.0,0.0,0.0,0.0,0.0,0.0,0.0,0.0,0.0,0.0,0.0,0.0,0.0,0.0,0.0,0.0,0.0,0.0,0.0,0.0,0.0,0.0,0.0,0.0,0.0,0.0,0.0,0.0,0.0,0.0,0.0,0.0,0.0,0.0,0.0,0.0,0.0,0.0,0.0,0.0,0.0,0.0,0.0,0.0,0.0,0.0,0.0,0.0,0.0,0.0,0.0,0.0,0.0,0.0,0.0,0.0,0.0,0.0,0.0,0.0,0.0,0.0,0.0,0.0,9.0053,8.9038,8.7524,8.5569,8.4585,8.384,0.0,0.0,0.0,0.0,0.0,0.0,0.0,0.0,0.0,0.0,0.0,0.0,0.0,0.0,0.0,0.0,0.0,0.0,0.0,0.0,0.0,0.0,0.0,0.0,0.0,0.0,0.0,0.0,0.0,0.0,0.0,0.0,0.0,0.0,0.0,0.0,0.0,0.0,0.0,0.0,0.0,0.0,0.0,0.0,0.0,0.0,0.0,0.0,0.0,0.0,0.0,0.0,0.0,0.0,0.0,0.0,0.0,0.0,0.0,0.0,0.0,0.0,0.0,0.0,0.0,0.0,0.0,0.0,0.0,0.0,0.0,0.0,0.0,0.0,0.0,0.0,0.0,0.0,0.0,0.0,0.0,0.0,0.0,0.0,0.0,0.0,0.0,0.0,0.0,0.0,0.0,0.0,0.0,0.0,0.0,0.0,0.0,0.0,0.0,0.0,0.0,0.0,0.0,0.0,0.0,0.0,0.0,0.0,9.0899,9.1744,9.1372,9.0494,8.9206,8.7395,8.597,0.0,0.0,0.0,0.0,0.0,0.0,0.0,0.0,0.0,0.0,0.0,0.0,0.0,0.0,0.0,0.0,0.0,0.0,0.0,0.0,0.0,0.0,0.0,0.0,0.0,0.0,0.0,0.0,0.0,0.0,0.0,0.0,0.0,0.0,0.0,0.0,0.0,0.0,0.0,0.0,0.0,0.0,0.0,0.0,0.0,0.0,0.0,0.0,0.0,0.0,0.0,0.0,0.0,0.0,0.0,0.0,0.0,0.0,0.0,0.0,0.0,0.0,0.0,0.0,0.0,0.0,0.0,0.0,0.0,0.0,0.0,0.0,0.0,0.0,0.0,0.0,0.0,0.0,0.0,0.0,0.0,0.0,0.0,0.0,0.0,0.0,0.0,0.0,0.0,0.0,0.0,0.0,0.0,0.0,0.0,0.0,0.0,0.0,0.0,0.0,0.0,0.0,0.0,0.0,0.0,0.0,0.0,0.0,9.2624,9.2759,9.2759,9.2982,9.3316,9.0262,8.7761,0.0,0.0,0.0,0.0,0.0,0.0,0.0,0.0,0.0,0.0,0.0,0.0,0.0,0.0,0.0,0.0,0.0,0.0,0.0,0.0,0.0,0.0,0.0,0.0,0.0,0.0,0.0,0.0,0.0,0.0,0.0,0.0,0.0,0.0,0.0,0.0,0.0,0.0,0.0,0.0,0.0,0.0,0.0,0.0,0.0,0.0,0.0,0.0,0.0,0.0,0.0,0.0,0.0,0.0,0.0,0.0,0.0,0.0,0.0,0.0,0.0,0.0,0.0,0.0,0.0,0.0,0.0,0.0,0.0,0.0,0.0,0.0,0.0,0.0,0.0,0.0,0.0,0.0,0.0,0.0,0.0,0.0,0.0,0.0,0.0,0.0,0.0,0.0,0.0,0.0,0.0,0.0,0.0,0.0,0.0,0.0,0.0,0.0,0.0,0.0,0.0,0.0,0.0,0.0,0.0,0.0,0.0,0.0,9.3909,9.5026,9.5093,9.4815,9.4261,9.1267,8.94,0.0,0.0,0.0,0.0,0.0,0.0,0.0,0.0,0.0,0.0,0.0,0.0,0.0,0.0,0.0,0.0,0.0,0.0,0.0,0.0,0.0,0.0,0.0,0.0,0.0,0.0,0.0,0.0,0.0,0.0,0.0,0.0,0.0,0.0,0.0,0.0,0.0,0.0,0.0,0.0,0.0,0.0,0.0,0.0,0.0,0.0,0.0,0.0,6.9867,0.0,0.0,0.0,0.0,0.0,0.0,0.0,0.0,0.0,0.0,0.0,0.0,0.0,0.0,0.0,0.0,0.0,0.0,0.0,0.0,0.0,0.0,0.0,0.0,0.0,0.0,0.0,0.0,0.0,0.0,0.0,0.0,0.0,0.0,0.0,0.0,0.0,0.0,0.0,0.0,0.0,0.0,0.0,0.0,0.0,0.0,0.0,0.0,0.0,0.0,0.0,0.0,0.0,0.0,0.0,0.0,0.0,0.0,0.0,9.5669,9.6785,9.6662,9.6189,9.5467,9.3417,9.1658,0.0,0.0,0.0,0.0,0.0,0.0,0.0,0.0,0.0,0.0,0.0,0.0,0.0,0.0,0.0,0.0,0.0,0.0,0.0,0.0,0.0,0.0,0.0,0.0,0.0,0.0,0.0,0.0,0.0,0.0,0.0,0.0,0.0,0.0,0.0,0.0,0.0,0.0,0.0,0.0,0.0,0.0,0.0,0.0,0.0,0.0,0.0,0.0,0.0,0.0,0.0,0.0,0.0,0.0,0.0,0.0,0.0,0.0,0.0,0.0,0.0,0.0,0.0,0.0,0.0,0.0,0.0,0.0,0.0,0.0,0.0,0.0,0.0,0.0,0.0,0.0,0.0,0.0,0.0,0.0,0.0,0.0,0.0,0.0,0.0,0.0,0.0,0.0,0.0,0.0,0.0,0.0,0.0,0.0,0.0,0.0,0.0,0.0,0.0,0.0,0.0,0.0,0.0,0.0,0.0,0.0,0.0,9.6244,9.7428,9.8104,9.7869,9.7491,9.7037,9.5881,9.4021,9.1468,0.0,0.0,0.0,0.0,0.0,0.0,0.0,0.0,0.0,0.0,0.0,0.0,0.0,0.0,0.0,0.0,0.0,0.0,0.0,0.0,0.0,0.0,0.0,0.0,0.0,0.0,0.0,0.0,0.0,0.0,0.0,0.0,0.0,0.0,0.0,0.0,0.0,0.0,7.6994,7.6924,0.0,0.0,0.0,0.0,0.0,0.0,0.0,0.0,7.3056,0.0,0.0,0.0,0.0,0.0,0.0,0.0,0.0,0.0,0.0,0.0,0.0,0.0,0.0,0.0,0.0,0.0,0.0,0.0,0.0,0.0,0.0,0.0,0.0,0.0,0.0,0.0,0.0,0.0,0.0,0.0,0.0,0.0,0.0,0.0,0.0,0.0,0.0,0.0,0.0,0.0,0.0,0.0,0.0,0.0,0.0,0.0,0.0,0.0,0.0,0.0,0.0,0.0,0.0,0.0,0.0,9.4687,9.6785,9.8172,9.8882,9.9124,9.9023,9.8634,9.7457,9.5822,9.3744,0.0,0.0,0.0,0.0,0.0,0.0,0.0,0.0,0.0,0.0,0.0,0.0,0.0,0.0,0.0,0.0,0.0,0.0,0.0,0.0,0.0,0.0,0.0,0.0,0.0,0.0,0.0,0.0,0.0,0.0,0.0,0.0,0.0,0.0,0.0,0.0,0.0,0.0,0.0,7.9627,7.9171,0.0,0.0,0.0,0.0,0.0,0.0,0.0,0.0,7.4593,0.0,0.0,0.0,0.0,0.0,0.0,0.0,0.0,0.0,0.0,0.0,0.0,0.0,0.0,0.0,0.0,0.0,0.0,0.0,0.0,0.0,0.0,0.0,0.0,0.0,0.0,0.0,0.0,0.0,0.0,0.0,0.0,0.0,0.0,0.0,0.0,0.0,0.0,0.0,0.0,0.0,0.0,0.0,0.0,0.0,0.0,0.0,0.0,0.0,0.0,0.0,0.0,0.0,0.0,0.0,9.6379,9.7834,9.9181,10.0453,10.0084,9.9701,9.9248,9.8066,9.6494,0.0,0.0,0.0,0.0,0.0,0.0,0.0,0.0,0.0,0.0,0.0,0.0,0.0,0.0,0.0,0.0,0.0,0.0,0.0,0.0,0.0,0.0,0.0,0.0,0.0,0.0,0.0,0.0,0.0,0.0,0.0,0.0,0.0,0.0,0.0,0.0,0.0,0.0,0.0,0.0,8.1812,8.1663,8.141,0.0,0.0,0.0,0.0,0.0,0.0,7.7712,7.6682,0.0,0.0,0.0,0.0,0.0,0.0,0.0,0.0,0.0,0.0,0.0,0.0,0.0,0.0,0.0,0.0,0.0,0.0,0.0,0.0,0.0,0.0,0.0,0.0,0.0,0.0,0.0,0.0,0.0,0.0,0.0,0.0,0.0,0.0,0.0,0.0,0.0,0.0,0.0,0.0,0.0,0.0,0.0,0.0,0.0,0.0,0.0,0.0,0.0,0.0,0.0,0.0,0.0,0.0,0.0,9.7698,9.895,10.0323,10.1757,10.1012,10.0326,9.9931,9.8469,9.6676,0.0,0.0,0.0,0.0,0.0,0.0,0.0,0.0,0.0,0.0,0.0,0.0,0.0,0.0,0.0,0.0,0.0,0.0,0.0,0.0,0.0,0.0,0.0,0.0,0.0,0.0,0.0,0.0,0.0,0.0,0.0,0.0,0.0,0.0,0.0,0.0,0.0,0.0,0.0,0.0,0.0,8.4205,8.3983,8.3819,0.0,0.0,0.0,0.0,8.1839,8.0287,0.0,0.0,0.0,0.0,0.0,0.0,0.0,0.0,0.0,0.0,0.0,0.0,0.0,0.0,0.0,0.0,0.0,0.0,0.0,0.0,0.0,0.0,0.0,0.0,0.0,0.0,0.0,0.0,0.0,0.0,0.0,0.0,0.0,0.0,0.0,0.0,0.0,0.0,0.0,0.0,0.0,0.0,0.0,0.0,0.0,0.0,0.0,0.0,0.0,0.0,0.0,0.0,0.0,0.0,0.0,0.0,9.7022,9.9728,10.1407,10.1859,10.2001,10.1831,10.1407,9.8986,9.6917,0.0,0.0,0.0,0.0,0.0,0.0,0.0,0.0,0.0,0.0,0.0,0.0,0.0,0.0,0.0,0.0,0.0,0.0,0.0,0.0,0.0,0.0,0.0,0.0,0.0,0.0,0.0,0.0,0.0,0.0,0.0,0.0,0.0,0.0,0.0,0.0,0.0,0.0,0.0,0.0,0.0,8.6921,8.7789,8.7313,8.7001,0.0,0.0,8.4964,8.4964,8.3391,0.0,0.0,0.0,0.0,0.0,0.0,0.0,0.0,0.0,0.0,0.0,0.0,0.0,0.0,0.0,0.0,0.0,0.0,0.0,0.0,0.0,0.0,0.0,0.0,0.0,0.0,0.0,0.0,0.0,0.0,0.0,0.0,0.0,0.0,0.0,0.0,0.0,0.0,0.0,0.0,0.0,0.0,0.0,0.0,0.0,0.0,0.0,0.0,0.0,0.0,0.0,0.0,0.0,0.0,0.0,9.5093,9.807,10.0018,10.1796,10.3365,10.2515,10.1964,10.2016,9.9205,9.6952,0.0,0.0,0.0,0.0,0.0,0.0,0.0,0.0,0.0,0.0,0.0,0.0,0.0,0.0,0.0,0.0,0.0,0.0,0.0,0.0,0.0,0.0,0.0,0.0,0.0,0.0,0.0,0.0,0.0,0.0,0.0,0.0,0.0,0.0,0.0,0.0,0.0,0.0,0.0,0.0,0.0,0.0,9.0774,9.0578,0.0,0.0,0.0,8.865,8.8229,0.0,0.0,0.0,0.0,0.0,0.0,0.0,0.0,0.0,0.0,0.0,0.0,0.0,0.0,0.0,0.0,0.0,0.0,0.0,0.0,0.0,0.0,0.0,0.0,0.0,0.0,0.0,0.0,0.0,0.0,0.0,0.0,0.0,0.0,0.0,0.0,0.0,0.0,0.0,0.0,0.0,0.0,0.0,0.0,0.0,0.0,0.0,0.0,0.0,0.0,0.0,0.0,0.0,0.0,0.0,0.0,0.0,9.9018,10.0284,10.1989,10.4076,10.2817,10.212,10.2041,9.9377,0.0,0.0,0.0,0.0,0.0,0.0,0.0,0.0,0.0,0.0,0.0,0.0,0.0,0.0,0.0,0.0,0.0,0.0,0.0,0.0,0.0,0.0,0.0,0.0,0.0,0.0,0.0,8.117,0.0,0.0,0.0,0.0,0.0,0.0,0.0,0.0,0.0,0.0,0.0,0.0,0.0,0.0,9.3922,9.3845,9.3815,9.366,0.0,0.0,9.2098,9.1459,8.9718,8.8224,0.0,0.0,0.0,0.0,0.0,0.0,0.0,0.0,0.0,0.0,0.0,0.0,0.0,0.0,0.0,0.0,0.0,0.0,0.0,0.0,0.0,0.0,0.0,0.0,0.0,0.0,0.0,0.0,0.0,0.0,0.0,0.0,0.0,0.0,0.0,0.0,0.0,0.0,0.0,0.0,0.0,0.0,0.0,0.0,0.0,0.0,0.0,0.0,0.0,0.0,0.0,0.0,0.0,0.0,9.6108,9.9018,10.0603,10.1882,10.3049,10.3194,10.2817,10.1716,9.9802,9.7986,0.0,0.0,0.0,0.0,0.0,0.0,0.0,0.0,0.0,0.0,0.0,0.0,0.0,0.0,0.0,0.0,0.0,0.0,0.0,0.0,0.0,0.0,0.0,0.0,0.0,0.0,0.0,0.0,0.0,0.0,0.0,0.0,0.0,0.0,0.0,0.0,0.0,0.0,0.0,0.0,0.0,9.6649,9.7585,9.7086,9.6576,0.0,0.0,9.505,9.4533,9.3342,9.1998,9.0797,0.0,0.0,0.0,0.0,0.0,0.0,0.0,0.0,0.0,0.0,0.0,0.0,0.0,0.0,0.0,0.0,0.0,0.0,0.0,0.0,0.0,0.0,0.0,0.0,0.0,0.0,0.0,0.0,0.0,0.0,0.0,0.0,0.0,0.0,0.0,0.0,0.0,0.0,0.0,0.0,0.0,0.0,0.0,0.0,0.0,0.0,0.0,0.0,0.0,0.0,0.0,0.0,0.0,9.6379,9.9728,10.056,10.1834,10.3592,10.3092,10.2317,10.1413,9.9787,9.8077,0.0,0.0,0.0,0.0,0.0,0.0,0.0,0.0,0.0,0.0,0.0,0.0,0.0,0.0,0.0,0.0,0.0,0.0,0.0,0.0,0.0,0.0,0.0,0.0,0.0,0.0,0.0,0.0,8.4613,8.4642,8.4623,0.0,0.0,0.0,0.0,0.0,0.0,0.0,0.0,0.0,0.0,9.9492,9.9884,9.9848,0.0,0.0,9.8592,9.8093,9.743,9.6288,9.5045,9.3933,9.2612,0.0,0.0,0.0,0.0,0.0,0.0,0.0,0.0,0.0,0.0,0.0,0.0,0.0,0.0,0.0,0.0,0.0,0.0,0.0,0.0,0.0,0.0,0.0,0.0,0.0,0.0,0.0,0.0,0.0,0.0,0.0,0.0,0.0,0.0,0.0,0.0,0.0,0.0,0.0,0.0,0.0,0.0,0.0,0.0,0.0,0.0,0.0,0.0,0.0,0.0,0.0,0.0,9.6954,10.0202,10.069,10.1737,10.36,10.2869,10.2137,10.1353,10.0042,9.842,0.0,0.0,0.0,0.0,0.0,0.0,0.0,0.0,0.0,0.0,0.0,0.0,0.0,0.0,0.0,0.0,0.0,0.0,0.0,0.0,0.0,0.0,0.0,0.0,0.0,0.0,0.0,0.0,8.6405,8.6487,8.6873,0.0,0.0,0.0,0.0,0.0,0.0,0.0,0.0,0.0,0.0,10.2435,10.2435,10.2613,10.2513,10.181,10.1447,10.1018,10.038,9.9408,9.8287,9.6967,0.0,0.0,0.0,0.0,0.0,0.0,0.0,0.0,0.0,0.0,0.0,0.0,0.0,0.0,0.0,0.0,0.0,0.0,0.0,0.0,0.0,0.0,0.0,0.0,0.0,0.0,0.0,6.411,0.0,0.0,6.9813,0.0,0.0,0.0,0.0,0.0,0.0,0.0,0.0,0.0,0.0,0.0,0.0,0.0,0.0,0.0,0.0,0.0,0.0,0.0,0.0,0.0,0.0,9.7935,10.0202,10.0946,10.1724,10.2502,10.2789,10.2607,10.1825,10.0671,9.9351,9.7686,0.0,0.0,0.0,0.0,0.0,0.0,0.0,0.0,0.0,0.0,0.0,0.0,0.0,0.0,0.0,0.0,0.0,0.0,0.0,0.0,0.0,0.0,0.0,0.0,0.0,0.0,8.8884,8.8453,8.8474,0.0,0.0,0.0,0.0,0.0,0.0,0.0,0.0,0.0,0.0,10.4574,10.554,10.5505,10.554,10.5351,10.4891,10.4189,10.3637,10.3377,10.2777,10.1719,0.0,0.0,0.0,0.0,0.0,0.0,0.0,0.0,0.0,0.0,0.0,0.0,0.0,0.0,0.0,0.0,0.0,0.0,0.0,0.0,0.0,0.0,0.0,0.0,0.0,0.0,0.0,6.4492,6.6375,0.0,0.0,0.0,0.0,0.0,0.0,0.0,0.0,0.0,0.0,0.0,8.6721,8.7564,0.0,0.0,0.0,0.0,0.0,0.0,0.0,0.0,0.0,0.0,0.0,0.0,9.8476,10.0168,10.1014,10.1758,10.2502,10.2631,10.2495,10.2224,10.0894,9.8874,9.6095,0.0,0.0,0.0,0.0,0.0,0.0,0.0,0.0,0.0,0.0,0.0,0.0,0.0,0.0,0.0,0.0,0.0,0.0,0.0,0.0,0.0,0.0,0.0,0.0,0.0,9.0332,0.0,0.0,0.0,0.0,0.0,0.0,0.0,0.0,0.0,0.0,0.0,10.2987,10.5264,10.6471,10.7333,10.7816,10.785,10.7609,0.0,0.0,0.0,0.0,0.0,0.0,0.0,0.0,0.0,0.0,0.0,0.0,0.0,0.0,9.638,9.2774,9.2238,9.2388,9.2388,0.0,0.0,0.0,0.0,0.0,0.0,0.0,0.0,0.0,0.0,0.0,0.0,0.0,0.0,6.6029,0.0,6.9474,0.0,0.0,0.0,0.0,0.0,0.0,0.0,0.0,8.5011,8.6387,8.8228,8.9077,8.9835,0.0,9.1068,9.0324,0.0,0.0,0.0,0.0,0.0,0.0,0.0,0.0,9.9254,10.0946,10.1758,10.2401,10.284,10.2874,10.2773,10.2502,10.0743,9.864,9.6146,9.4855,9.3474,0.0,0.0,0.0,0.0,0.0,0.0,0.0,0.0,0.0,0.0,0.0,0.0,0.0,0.0,0.0,0.0,0.0,0.0,0.0,0.0,0.0,0.0,0.0,9.291,0.0,0.0,0.0,0.0,0.0,0.0,0.0,0.0,0.0,10.109,10.3298,10.554,10.7299,10.8437,10.9201,10.9521,0.0,0.0,0.0,0.0,0.0,0.0,0.0,10.632,10.515,10.5489,10.5736,10.5341,10.4833,10.4345,10.4006,0.0,0.0,9.707,9.6308,9.6329,9.6408,9.6563,9.6718,9.6795,9.7199,9.7642,0.0,0.0,0.0,0.0,0.0,0.0,0.0,0.0,6.6703,6.794,0.0,7.1285,0.0,0.0,0.0,0.0,0.0,8.249,0.0,0.0,8.6689,8.8144,9.0404,9.0699,9.1083,9.144,9.1508,9.1474,9.144,9.1474,0.0,0.0,0.0,0.0,0.0,0.0,10.0235,10.2367,10.3145,10.3551,10.3551,10.3551,10.3212,10.2434,10.0337,9.8815,9.7935,9.5195,9.3639,9.3596,9.1794,0.0,0.0,0.0,0.0,0.0,0.0,0.0,0.0,0.0,0.0,0.0,0.0,0.0,0.0,0.0,0.0,0.0,0.0,0.0,0.0,9.5295,0.0,0.0,0.0,0.0,0.0,0.0,0.0,0.0,0.0,0.0,10.3746,10.616,10.8299,10.9092,0.0,0.0,0.0,0.0,11.1308,11.0813,11.0455,11.0082,10.9601,10.8936,10.8149,10.7286,0.0,0.0,10.9438,10.8714,10.8021,10.8021,10.6557,10.4624,10.2017,10.1132,10.0943,10.1153,10.1158,10.1355,10.16,10.149,10.1567,6.3914,0.0,0.0,0.0,0.0,6.418,6.5441,6.7062,6.8092,6.9732,7.1783,7.3011,0.0,0.0,0.0,0.0,0.0,0.0,8.5805,8.7765,8.8108,8.9603,9.1944,9.2304,9.314,9.4485,9.4485,9.4518,9.4518,9.4518,9.418,9.3639,0.0,0.0,0.0,0.0,10.0506,10.169,10.2942,10.3348,10.284,10.3314,10.3009,10.1724,10.1081,9.9863,9.807,9.6176,9.4687,9.3605,9.2513,0.0,0.0,0.0,0.0,0.0,0.0,0.0,0.0,0.0,0.0,0.0,0.0,0.0,0.0,0.0,0.0,0.0,0.0,0.0,9.6571,9.7745,9.8656,0.0,0.0,0.0,0.0,0.0,0.0,0.0,0.0,0.0,10.8816,10.9747,11.0817,0.0,0.0,11.3455,11.3903,11.4073,11.3762,11.253,11.2451,0.0,11.0979,11.1205,11.132,11.0509,11.0732,11.0968,11.0848,11.0329,10.9935,10.997,10.8913,10.7815,10.7038,10.5152,10.3865,10.3855,10.4086,10.4392,10.465,10.4729,10.4771,6.6061,6.4561,6.4328,6.4735,6.5654,6.6007,6.714,6.8881,6.9792,7.1412,7.3507,7.4998,7.665,7.8586,8.0776,0.0,0.0,0.0,8.7106,8.8846,8.933,9.0838,9.2982,9.35,9.4503,9.577,9.5804,9.5804,9.5804,9.6074,9.577,9.4958,0.0,0.0,9.8882,9.9762,10.0912,10.2231,10.3145,10.3382,10.2942,10.3077,10.2739,10.1859,10.125,10.0269,9.8916,9.7157,9.5669,9.4518,9.3436,9.2319,0.0,0.0,0.0,0.0,0.0,0.0,0.0,0.0,0.0,0.0,0.0,9.1292,9.2123,0.0,0.0,0.0,9.6436,9.7494,9.889,9.993,0.0,0.0,0.0,0.0,0.0,0.0,0.0,10.8339,10.9212,11.0334,11.1989,11.2989,11.3679,11.399,11.4345,11.4693,11.5002,0.0,11.4899,11.3837,11.4104,11.4059,11.2851,11.322,11.3488,11.3168,11.3353,11.3501,11.3536,11.3291,11.3093,11.294,11.2057,11.117,11.117,10.9405,10.7687,10.6918,10.6994,10.7281,10.7634,10.7723,10.7848,6.7667,6.7057,6.6418,6.6773,6.7859,6.7918,6.881,7.0216,7.1524,7.2909,7.4432,7.6957,7.8586,7.9624,8.2873,0.0,8.5527,8.6887,8.8277,8.9698,9.0353,9.1841,9.392,9.459,9.5296,9.6007,9.5973,9.5973,9.6007,9.665,9.6954,9.6988,9.7022,9.8138,10.01,10.0269,10.1352,10.3449,10.3551,10.3585,10.3585,10.2874,10.2536,10.2502,10.1014,10.0202,10.0134,9.807,9.6548,9.5872,9.4518,9.3402,9.2556,0.0,0.0,0.0,0.0,0.0,0.0,0.0,0.0,0.0,0.0,0.0,0.0,0.0,0.0,0.0,9.9722,0.0,10.1121,10.2099,0.0,0.0,0.0,10.6337,10.8348,10.8214,10.8818,11.0766,0.0,0.0,11.3783,11.5749,11.6576,11.5231,11.5274,11.5345,11.5034,11.5345,11.531,11.4932,11.5413,11.5611,11.4783,11.4783,11.4985,11.528,11.5607,11.5801,11.6313,11.6138,11.6368,11.6017,11.5125,11.3986,11.4057,11.3084,11.2233,11.036,10.992,10.9934,11.041,11.0431,11.0415,6.8933,6.9031,6.8392,6.7866,6.7594,6.8354,6.9576,7.1111,7.2308,7.4066,7.6338,7.7515,7.9634,8.2334,8.4218,8.5728,8.6952,8.7826,8.9318,9.114,9.1336,9.2832,9.536,9.5561,9.6304,9.74,9.7495,9.7495,9.7495,9.7664,9.7732,9.7766,9.8307,9.9119,10.0202,10.0811,10.1656,10.2739,10.3314,10.3585,10.3585,10.2874,10.2536,10.2502,10.1014,10.0202,10.0168,9.807,9.6785,9.6616,9.5736,9.4687,9.3368,9.3131,0.0,0.0,0.0,0.0,0.0,0.0,0.0,0.0,0.0,9.5684,9.6814,0.0,9.9055,0.0,10.28,10.3877,10.3901,10.5123,0.0,0.0,10.8068,10.9342,11.0967,11.116,11.1835,11.3477,11.3969,11.4679,11.6025,11.7128,11.7922,11.8094,11.7233,11.6849,11.7608,11.7056,11.6439,11.6133,11.6408,11.6438,11.5818,11.6059,11.6573,11.6908,11.6521,11.6132,11.601,11.4983,11.4203,11.4168,11.3826,11.3417,11.3477,11.3622,11.3866,11.3663,11.2712,11.1883,11.2434,11.2061,11.1772,6.9864,6.9522,6.9311,6.875,6.8078,6.8796,7.0088,7.1693,7.2711,7.4724,7.7309,7.9161,8.1176,8.3289,8.4985,8.6306,8.7211,8.8441,8.9903,9.1469,9.1959,9.3332,9.5453,9.6104,9.6851,9.7817,9.7941,9.8003,9.8003,9.8003,9.8172,9.851,9.9254,9.9965,10.0709,10.1183,10.1758,10.2502,10.2908,10.3111,10.3111,10.2705,10.2536,10.2468,10.1014,10.0202,10.0202,9.8409,9.7225,9.6886,9.648,9.577,9.4654,9.4552,9.4383,0.0,0.0,0.0,0.0,0.0,0.0,0.0,0.0,0.0,0.0,0.0,10.1746,10.4022,10.542,10.6432,10.6865,10.7765,10.8682,10.957,11.0416,11.1517,11.3195,11.3394,11.3888,11.5155,11.5564,11.6163,11.7335,11.8128,11.8991,12.006,11.9088,11.836,11.8535,11.8156,11.7572,11.7027,11.7268,11.7508,11.7301,11.768,11.8059,11.8194,11.7606,11.6878,11.6351,11.5438,11.4768,11.4699,11.4489,11.4341,11.4341,11.4552,11.4976,11.5058,11.4498,11.3986,11.4318,11.418,11.4036,7.0204,6.9252,6.958,6.934,6.876,6.9068,7.0282,7.2056,7.3022,7.5037,7.7943,8.0828,8.2508,8.3303,8.5394,8.656,8.6984,8.8796,9.0194,9.1271,9.2319,9.3598,9.5041,9.6317,9.7127,9.7472,9.7817,9.7941,9.8003,9.8003,9.8375,9.9119,9.9863,10.0608,10.1352,10.1453,10.1859,10.2502,10.2536,10.2536,10.2536,10.2536,10.2536,10.2468,10.1115,10.0303,10.0168,9.8882,9.78,9.7089,9.7022,9.6683,9.5973,9.6007,9.6074,0.0,9.6176,0.0,0.0,0.0,0.0,0.0,0.0,0.0,0.0,10.329,10.4919,10.6988,10.7885,10.8769,10.9746,11.0189,11.0845,11.1989,11.2399,11.3361,11.5118,11.5152,11.5389,11.6316,11.6848,11.7404,11.8163,11.8887,11.9922,12.1095,12.0709,11.9983,11.9191,11.8882,11.8365,11.7817,11.8026,11.8404,11.8887,11.9198,11.9267,11.9129,11.8473,11.7818,11.692,11.6327,11.6042,11.5935,11.5503,11.5349,11.5488,11.5404,11.5456,11.5535,11.5421,11.542,11.5779,11.5871,11.6118,6.9577,6.9534,6.9338,6.8998,6.845,6.876,7.0212,7.2351,7.307,7.5546,7.9259,8.0947,8.2276,8.3335,8.5161,8.6329,8.6952,8.8796,9.0454,9.1988,9.2548,9.3861,9.577,9.6357,9.6937,9.7472,9.7534,9.7755,9.8003,9.8003,9.8375,9.9085,9.9829,10.0608,10.1386,0.0,0.0,0.0,10.2536,10.2536,10.2536,10.2536,10.2536,10.2502,10.1622,0.0,10.0235,9.9356,9.8544,9.7834,9.78,0.0,0.0,0.0,0.0,0.0,0.0,0.0,0.0,0.0,0.0,0.0,10.3516,10.4431,10.4469,10.6595,10.8368,10.9402,11.0196,11.0955,11.1744,11.2134,11.3072,11.4711,11.5202,11.5845,11.6831,11.7174,11.7405,11.7251,11.7642,11.8163,11.8922,11.9681,12.0474,12.1405,12.1817,12.1783,12.1023,11.9676,11.8815,11.8887,11.8887,11.9025,11.9198,11.9784,11.9922,11.9336,11.8577,11.7646,11.6369,11.5505,11.4847,11.4363,11.428,11.4436,11.4436,11.4618,11.4957,11.5491,11.5535,11.5668,11.6114,11.5808,11.5492,6.9483,6.9067,6.932,6.901,0.0,6.8489,6.969,7.171,7.2514,7.5207,7.9145,8.0502,8.1694,8.2807,8.4413,8.5455,8.6176,8.7984,8.9541,9.0976,9.1664,9.2876,9.4354,9.5304,9.5986,9.6494,9.7178,9.763,9.7755,9.7941,9.8375,9.9119,9.9863,10.0608,10.1386,10.213,10.2536,10.2536,10.2536,10.2536,10.2536,10.2536,10.2536,10.2502,10.1758,0.0,0.0,0.0,0.0,0.0,0.0,0.0,0.0,9.8916,0.0,9.9119,9.9796,10.0574,10.1284,10.2062,10.3111,10.4566,10.6682,10.7814,10.757,10.9482,11.1024,11.1748,11.2541,11.33,11.399,11.4422,11.4961,11.5885,11.6476,11.6983,11.7392,11.778,11.7933,11.7812,11.8023,11.8508,11.9646,12.0094,12.0853,12.1853,12.2371,12.244,12.2026,12.0954,12.0057,11.9853,11.9405,11.9474,12.0198,12.0612,12.0646,11.9922,11.9129,11.7922,11.6128,11.5197,11.4473,11.3783,11.3742,11.3838,11.3938,11.4098,11.4514,11.4992,11.5243,11.557,11.6073,11.6206,11.6324,6.9409,6.8518,6.9152,6.8936,6.8252,6.8274,6.9273,7.0998,0.0,0.0,0.0,7.986,8.1045,8.2135,8.3566,8.4584,8.5306,8.7046,8.8373,8.9413,9.0521,9.1534,9.2483,9.3924,9.4872,9.5325,9.6561,9.7245,9.7472,9.7817,9.8313,9.9085,9.9728,10.0472,10.1352,10.213,10.2536,10.2536,10.2536,10.2536,10.2536,10.2536,10.2536,10.2502,10.1927,10.1521,10.1386,10.0777,10.0371,10.0235,10.0202,10.0202,10.0235,10.0472,10.0641,10.0675,10.1487,10.2231,10.284,10.3686,10.5207,10.7542,10.9472,11.0618,11.0718,11.1886,11.2989,11.3921,11.4541,11.5197,11.5921,11.6293,11.6527,11.6697,11.7258,11.7601,11.7731,11.7902,11.8078,11.8127,11.8094,11.8611,11.9887,12.0129,12.0681,12.1853,12.2095,12.2302,12.2302,12.1612,12.0888,12.037,11.9715,11.9681,12.0853,12.1198,12.0991,12.0163,11.9577,11.8439,11.6576,11.5404,11.4645,11.399,11.3714,11.361,11.3576,11.3838,11.4098,11.4421,11.4803,11.5243,11.5885,11.6664,11.7055,6.8769,6.8769,6.8574,6.8385,6.8129,6.824,6.9273,7.1086,7.3791,7.6297,7.8505,7.9315,8.0402,8.1765,8.3198,8.4153,8.4946,8.6401,8.7631,8.8668,8.9773,9.0685,9.1468,9.2843,9.4021,9.4971,9.5489,9.6301,9.7375,9.7568,9.8126,9.9018,9.9187,9.9999,10.1318,10.213,10.2536,10.2536,10.2536,10.2536,10.2536,10.2536,10.2536,10.2502,10.2401,10.2028,10.1386,10.1284,10.0912,10.0269,10.0202,10.0202,10.0269,10.1487,10.2198,10.2265,10.3449,10.4261,10.4396,10.5648,10.7677,11.0458,11.1685,11.2466,11.3062,11.33,11.399,11.5335,11.5611,11.599,11.6714,11.6886,11.7262,11.8085,11.8358,11.8427,11.8362,11.843,11.8397,11.8128,11.8128,11.8404,11.9232,11.9439,11.9784,12.0508,12.0957,12.0957,12.1405,12.1026,12.0543,12.0336,11.9715,11.9646,12.037,12.0543,12.0301,11.9508,11.9301,11.868,11.7025,11.6163,11.5404,11.4679,11.4093,11.3714,11.3645,11.3676,11.3838,11.4163,11.4485,11.4866,11.5553,11.6041,11.6569,6.7687,6.723,6.7508,6.7507,6.734,6.8165,6.9312,7.0758,7.2819,7.4917,7.6895,7.8338,7.9643,8.0898,8.2229,8.3283,8.3979,8.5205,8.6241,8.7147,8.8408,8.935,9.0066,9.1469,9.281,9.4021,9.4805,9.5755,9.687,9.7283,9.7736,9.8295,9.9037,10.0016,10.0997,10.1643,10.1882,10.1948,10.2308,10.2536,10.2536,10.2536,10.2536,10.2536,10.2536,10.2367,10.2028,10.1995,10.1825,10.1487,10.1859,10.1859,10.1521,10.2874,10.3517,10.3179,10.4464,10.5276,10.531,10.7069,10.9101,11.1207,11.2436,11.3597,11.4716,11.5197,11.5714,11.6404,11.6783,11.7197,11.7542,11.7577,11.7817,11.8264,11.8502,11.8502,11.8367,11.8502,11.8502,11.8162,11.8128,11.8404,11.9094,11.9198,11.9508,12.0232,12.037,12.0543,12.0819,12.0267,12.0094,12.0681,12.0025,11.9646,12.0232,12.0405,12.006,11.9336,11.9198,11.8577,11.7335,11.6645,11.6163,11.5438,11.4679,11.4266,11.4197,11.3852,11.3776,11.4034,11.4228,11.4612,11.518,11.5737,11.6402,6.6923,6.6112,6.6529,6.6688,6.6735,6.7953,6.906,7.0088,7.1559,7.3125,7.488,7.7198,7.8872,7.9957,8.1319,8.2307,8.3007,8.3976,8.4822,8.5599,8.6887,8.789,8.8603,9.0033,9.1469,9.2907,9.4021,9.5137,9.6219,9.6963,9.7317,9.7514,9.8691,9.9699,10.0439,10.0916,10.1219,10.1453,10.1948,10.2274,10.2373,10.2542,10.2708,10.2739,10.2942,10.2976,10.3009,10.3009,10.3009,10.3009,10.3382,10.3415,10.3077,10.4058,10.4498,10.4261,10.531,10.6223,10.6629,10.8185,10.9847,11.1447,11.2983,11.4351,11.5581,11.6647,11.7232,11.7301,11.7715,11.8059,11.8059,11.8059,11.8128,11.8128,11.8299,11.8367,11.8162,11.8367,11.8367,11.8162,11.8128,11.8335,11.8784,11.8956,11.9163,11.9646,11.9956,12.0059,12.006,11.9508,11.9749,12.0267,11.9818,11.9301,11.9956,11.9922,11.9577,11.9025,11.8922,11.8404,11.7508,11.7163,11.6818,11.6128,11.5473,11.5024,11.4886,11.4369,11.4122,11.4249,11.4207,11.4357,11.4957,11.5676,11.6342,6.6842,6.6586,6.6084,6.6186,6.6693,6.7472,6.8284,6.9128,7.0712,7.1874,7.2998,7.6082,7.8083,7.9198,8.0533,8.1566,8.2276,8.3007,8.3729,8.4475,8.5535,8.6405,8.7243,8.8539,9.013,9.1794,9.3005,9.4183,9.5491,9.6252,9.6745,9.7101,9.7868,9.8672,9.9376,10.0047,10.0717,10.1353,10.1453,10.1651,10.2013,10.2687,10.3189,10.3517,10.4126,10.4464,10.4329,10.4464,10.4464,10.443,10.3889,10.3889,10.4363,10.4599,10.4971,10.5547,10.6358,10.7373,10.8659,10.9065,10.9982,11.1718,11.3493,11.4727,11.5413,11.6958,11.799,11.799,11.8059,11.8094,11.8128,11.8128,11.8128,11.8128,11.8231,11.8094,11.8163,11.8094,11.8094,11.8128,11.8128,11.8128,11.8266,11.8301,11.8301,11.8542,11.8748,11.9058,11.9232,11.8954,11.8851,11.9197,11.8715,11.8611,11.9094,11.8715,11.8508,11.8266,11.8232,11.8128,11.7853,11.7439,11.6956,11.6921,11.6266,11.5783,11.5576,11.5128,11.461,11.4501,11.4353,11.4292,11.4957,11.5553,11.6187,6.5762,6.5336,6.5282,6.5755,6.6595,6.6945,6.7638,6.8672,7.0203,7.1238,7.2012,7.4634,7.6674,7.8135,7.9744,8.0884,8.1529,8.2307,8.2975,8.3698,8.453,8.5625,8.6919,8.7955,8.9415,9.1403,9.2483,9.3662,9.4844,9.5928,9.6681,9.7071,9.7979,9.8583,9.895,9.9819,10.0484,10.0683,10.0784,10.0918,10.1354,10.2257,10.2926,10.3291,10.3527,10.3827,10.399,10.3652,10.3382,10.3449,10.3923,10.416,10.4058,10.5276,10.5919,10.5919,10.69,10.8016,10.9099,10.9572,11.0387,11.182,11.363,11.483,11.5344,11.7027,11.8128,11.8128,11.8128,11.8128,11.8128,11.8128,11.8128,11.8163,11.8473,11.868,11.8403,11.8611,11.868,11.8438,11.8232,11.8128,11.8128,11.8128,11.8128,11.806,11.8059,11.8162,11.8405,11.8197,11.8197,11.837,11.8266,11.8232,11.8508,11.8335,11.8128,11.8128,11.8128,11.8128,11.8059,11.7922,11.7646,11.7611,11.699,11.6542,11.6542,11.5852,11.5266,11.4918,11.4391,11.4228,11.474,11.5145,11.5702,6.5059,6.4435,6.4563,6.5143,6.5921,6.6272,6.6829,6.7816,6.9592,7.0686,7.1374,7.3222,7.5076,7.6744,7.8603,8.0019,8.0948,8.1628,8.2307,8.294,8.3711,8.4812,8.614,8.7272,8.8633,9.0456,9.1959,9.3368,9.4618,9.5769,9.6588,9.7084,9.7887,9.8488,9.8887,9.9715,10.0109,10.0308,10.0308,10.0444,10.0816,10.1719,10.2424,10.2893,10.3161,10.3494,10.3758,10.3316,10.3111,10.3145,10.4126,10.4532,10.4295,10.575,10.646,10.6257,10.7306,10.8354,10.9132,10.9877,11.076,11.1784,11.3526,11.483,11.5379,11.6959,11.8059,11.8128,11.8128,11.8128,11.8128,11.8128,11.8163,11.837,11.8922,11.9128,11.9125,11.9299,11.9161,11.871,11.8264,11.806,11.7957,11.7922,11.7888,11.7888,11.7542,11.7368,11.775,11.7611,11.7542,11.7957,11.8025,11.7957,11.8025,11.8128,11.8128,11.8128,11.8128,11.8128,11.8128,11.8094,11.8094,11.7818,11.7508,11.7301,11.7232,11.6645,11.5749,11.4987,11.453,11.4371,11.4455,11.4803,11.5208,6.5125,6.4573,6.4218,6.4138,6.4225,6.5237,6.5752,6.6254,6.8582,7.0057,7.0889,7.2179,7.3508,7.4964,7.7061,7.8841,8.0401,8.0979,8.156,8.2239,8.2874,8.3651,8.4546,8.614,8.7534,8.896,9.1238,9.33,9.5244,9.5837,9.6366,9.7094,9.726,9.7956,9.905,9.9415,9.9679,10.0242,10.0308,10.0308,10.0374,10.1106,10.178,10.2424,10.3498,10.4001,10.4168,10.4434,10.4464,10.4532,10.4599,10.4938,10.5547,10.5783,10.6189,10.6798,10.7576,10.8388,10.9132,10.9944,11.0655,11.1573,11.3422,11.4691,11.4932,11.6787,11.7991,11.8128,11.8128,11.8128,11.8128,11.8197,11.8439,11.8991,11.9198,11.9646,12.0197,11.9985,11.95,11.8844,11.8255,11.7878,11.7576,11.7507,11.7507,11.7368,11.6875,11.6767,11.7368,11.7228,11.7402,11.7784,11.7819,11.768,11.7957,11.7888,11.7957,11.7957,11.7888,11.8025,11.8094,11.8128,11.8094,11.8094,11.7956,11.7853,11.7853,11.7301,11.6266,11.5505,11.5048,11.4795,11.4332,11.474,11.5118,6.416,6.3968,6.3452,6.3558,6.4001,6.4067,6.4903,6.6342,6.7736,6.9167,7.0606,7.1754,7.2907,7.4092,7.569,7.7319,7.88,8.0069,8.0979,8.1492,8.1938,8.292,8.4381,8.5678,8.6945,8.8438,9.0909,9.3333,9.521,9.5772,9.6366,9.7095,9.7592,9.8287,9.9182,9.9712,10.0076,10.0275,10.0308,10.0308,10.0341,10.0573,10.0843,10.1148,10.2187,10.2994,10.3496,10.3123,10.3051,10.328,10.416,10.4802,10.5141,10.5986,10.6595,10.6967,10.805,10.8896,10.9268,11.0316,11.1095,11.1503,11.3246,11.4482,11.5,11.6511,11.7784,11.8025,11.8094,11.8128,11.8197,11.8508,11.8922,11.9232,12.0094,12.0645,12.0638,12.0599,12.0182,11.918,11.8111,11.7324,11.7224,11.7157,11.7157,11.7087,11.6696,11.6767,11.7228,11.7228,11.7226,11.7644,11.7989,11.7986,11.7332,11.7402,11.7402,11.7472,11.7507,11.7646,11.7715,11.7957,11.7957,11.8025,11.8025,11.8094,11.7888,11.7577,11.6576,11.5749,11.5328,11.4872,11.4172,11.4455,11.474,6.3498,6.3259,6.2764,6.2849,6.3275,6.3035,6.3899,6.56,6.686,6.8327,6.9891,7.1179,7.2244,7.3255,7.4443,7.5808,7.7277,7.9224,8.0422,8.091,8.1255,8.2187,8.3629,8.5085,8.6353,8.7851,9.0878,9.3301,9.4749,9.5607,9.6399,9.7095,9.7823,9.8552,9.9281,9.9977,10.0308,10.0308,10.0308,10.0308,10.0308,10.0308,10.0308,10.0374,10.1112,10.182,10.249,10.2118,10.2245,10.2911,10.4024,10.4904,10.5411,10.6325,10.69,10.7035,10.8321,10.9166,10.9335,11.0553,11.1365,11.1467,11.3106,11.4341,11.4654,11.6372,11.7474,11.7888,11.8025,11.8128,11.8301,11.8991,11.9577,11.9715,12.0715,12.1507,12.1464,12.1355,12.0587,11.9163,11.7688,11.6938,11.6838,11.6838,11.6838,11.6838,11.6482,11.6553,11.7087,11.7256,11.7322,11.7813,11.8255,11.8076,11.7521,11.7279,11.7185,11.7153,11.7192,11.7298,11.7368,11.768,11.7819,11.7888,11.7957,11.7957,11.7888,11.7611,11.6921,11.6025,11.5473,11.5088,11.4561,11.4068,11.4357,6.3119,6.2566,6.2279,6.2111,6.2184,6.2405,6.2758,6.377,6.5914,6.7501,6.8747,7.0181,7.1276,7.2201,7.3284,7.4472,7.6057,7.8232,7.9728,8.0422,8.091,8.1492,8.2427,8.4393,8.5956,8.7105,9.0781,9.3105,9.3958,9.5277,9.63,9.7128,9.789,9.8586,9.9281,9.9944,10.0308,10.0308,10.0308,10.0308,10.0308,10.0308,10.0308,10.0308,10.0374,10.0748,10.1454,10.1717,10.2348,10.3418,10.4261,10.5377,10.6494,10.6866,10.69,10.7204,10.8354,10.9099,10.9369,11.0587,11.1399,11.1672,11.3106,11.42,11.4511,11.6198,11.7507,11.7577,11.7888,11.8128,11.8404,11.9439,12.0267,12.0439,12.1095,12.1853,12.2265,12.2186,12.12,11.9116,11.7434,11.6478,11.641,11.641,11.641,11.6338,11.6194,11.6194,11.6978,11.735,11.7828,11.8284,11.8586,11.8498,11.7833,11.7246,11.7094,11.6969,11.6907,11.698,11.7051,11.7192,11.7402,11.7472,11.7646,11.7715,11.7819,11.7509,11.699,11.6231,11.5783,11.5093,11.4398,11.3838,11.4034,6.2225,6.2044,6.159,6.1715,6.2156,6.2113,6.274,6.3956,6.5142,6.6463,6.8116,6.9321,7.0198,7.1034,7.2634,7.4198,7.5419,7.7169,7.8585,7.9658,8.0422,8.0979,8.1808,8.3818,8.6392,8.8942,9.1234,9.2907,9.386,9.498,9.6069,9.7095,9.8089,9.882,9.9315,10.0248,10.0614,10.0308,10.0308,10.0308,10.0308,10.0308,10.0308,10.0308,10.0308,10.058,10.0986,10.1387,10.2087,10.3291,10.4163,10.5344,10.6561,10.69,10.7137,10.7712,10.8591,10.9437,11.0012,11.0824,11.1399,11.1636,11.2894,11.3815,11.4336,11.5951,11.7193,11.7507,11.7888,11.8266,11.8922,11.9749,12.037,12.0405,12.1508,12.2302,12.2369,12.1361,12.0176,11.9129,11.7506,11.6512,11.6338,11.6266,11.6121,11.6121,11.6121,11.6482,11.6975,11.7555,11.793,11.8247,11.8634,11.8948,11.8292,11.767,11.7376,11.6983,11.672,11.6659,11.6625,11.6696,11.6909,11.7121,11.7298,11.7404,11.7578,11.7371,11.6751,11.6128,11.5404,11.4645,11.3886,11.3742,11.3838,6.1192,6.1015,6.0805,6.1119,6.1747,6.1615,6.2389,6.374,6.4419,6.5609,6.7173,6.835,6.918,7.0028,7.1509,7.3111,7.4605,7.5929,7.7258,7.8645,7.9839,8.0562,8.1471,8.3986,8.6651,8.9357,9.1328,9.2611,9.3466,9.4716,9.5871,9.673,9.7757,9.8587,9.9152,9.9984,10.045,10.0479,10.0409,10.0308,10.0308,10.0308,10.0308,10.0308,10.0308,10.0478,10.0682,10.1252,10.2224,10.3496,10.4739,10.5953,10.6798,10.69,10.7204,10.7982,10.876,10.9505,11.0249,11.0959,11.1399,11.1636,11.2752,11.3669,11.4225,11.5702,11.6841,11.7298,11.768,11.8267,11.9129,11.9922,12.0439,12.0784,12.1853,12.2543,12.2334,12.0914,11.9805,11.9143,11.776,11.6901,11.6553,11.6482,11.6266,11.6338,11.6482,11.6972,11.7424,11.8002,11.8343,11.8779,11.9368,11.9309,11.8679,11.8165,11.7725,11.7128,11.6456,11.6291,11.6194,11.6266,11.6482,11.6767,11.6946,11.6989,11.7061,11.689,11.6511,11.5786,11.4958,11.4473,11.3852,11.3645,11.3707,6.0014,5.9558,5.9869,6.0403,6.0966,6.1062,6.1827,6.2783,6.3848,6.4854,6.5938,6.7128,6.8295,6.9208,7.0028,7.1509,7.3458,7.4751,7.6077,7.7593,7.9031,8.0343,8.1849,8.4316,8.6627,8.8738,9.0933,9.225,9.2876,9.4485,9.5574,9.6102,9.7158,9.7987,9.8753,9.9452,10.0285,10.075,10.0513,10.0376,10.0308,10.0308,10.0308,10.0308,10.0308,10.0308,10.0476,10.1481,10.2792,10.4203,10.5819,10.6731,10.69,10.69,10.7238,10.8084,10.8794,10.9572,11.0316,11.1027,11.1399,11.1501,11.2685,11.3598,11.3872,11.5349,11.6625,11.6909,11.7298,11.799,11.9094,11.9956,12.0715,12.1474,12.2198,12.2578,12.2474,12.1019,12.0119,11.9601,11.8255,11.7085,11.7085,11.698,11.6909,11.6943,11.7048,11.7671,11.8255,11.8729,11.9223,11.9685,12.0082,11.992,11.9322,11.8334,11.7928,11.7421,11.6648,11.6073,11.5904,11.5976,11.5845,11.6134,11.6526,11.6538,11.6338,11.6065,11.5721,11.5032,11.4512,11.4234,11.399,11.3714,11.3576,5.9324,5.9145,5.9508,5.9946,6.043,6.1262,6.1835,6.2307,6.3353,6.4127,6.4882,6.5883,6.71,6.8267,6.9208,7.0858,7.2879,7.4227,7.5699,7.7318,7.8489,8.0649,8.2721,8.4357,8.6325,8.8471,9.0428,9.1747,9.2447,9.4186,9.5176,9.5607,9.696,9.7953,9.872,9.9684,10.0385,10.0852,10.0817,10.058,10.0308,10.0308,10.0308,10.0308,10.0308,10.0341,10.044,10.1878,10.3459,10.491,10.6191,10.69,10.69,10.6934,10.7509,10.8625,10.9099,10.9775,11.0824,11.1264,11.1399,11.1501,11.2786,11.3598,11.3666,11.5345,11.6308,11.6696,11.7121,11.8056,11.9366,12.0161,12.0991,12.206,12.2474,12.2578,12.244,12.1748,12.085,12.0265,11.8985,11.8124,11.7469,11.7192,11.7085,11.7258,11.7707,11.8398,11.8981,11.9631,12.02,12.0217,12.044,12.0375,11.9905,11.8815,11.8063,11.7759,11.6913,11.5898,11.5797,11.587,11.5531,11.5371,11.5862,11.6014,11.527,11.4727,11.4385,11.4347,11.4032,11.3754,11.3783,11.3576,11.3576,5.8523,5.834,5.8653,5.912,5.9894,6.0558,6.1242,6.1947,6.2593,6.3359,6.41,6.4782,6.5956,6.7318,6.8367,6.9854,7.1722,7.3586,7.5116,7.6529,7.8525,8.0902,8.3177,8.4588,8.62,8.8063,9.0015,9.1051,9.1819,9.3588,9.4712,9.5277,9.6762,9.8019,9.8949,9.9816,10.0584,10.0986,10.0952,10.0648,10.0308,10.0308,10.0308,10.0308,10.0341,10.0507,10.1338,10.2709,10.4094,10.5212,10.6157,10.6765,10.6934,10.7204,10.7915,10.9099,10.9471,11.0215,11.1095,11.1399,11.1534,11.1974,11.2989,11.3666,11.4173,11.5371,11.6194,11.6482,11.6838,11.7945,11.9533,12.0677,12.1681,12.2405,12.2578,12.2578,12.2578,12.1922,12.1198,12.0404,11.9576,11.8609,11.7853,11.7576,11.7643,11.7988,11.8505,11.9194,11.9847,12.0531,12.104,12.1025,12.0757,12.0694,12.0327,11.933,11.8232,11.786,11.6879,11.5898,11.5797,11.5797,11.556,11.5328,11.5405,11.5247,11.4613,11.4005,11.3906,11.387,11.3556,11.3446,11.3478,11.3576,11.3576,5.7811,5.757,5.7497,5.8261,5.9173,5.9483,6.0329,6.1469,6.1921,6.2545,6.3433,6.4019,6.5109,6.6357,6.744,6.8625,7.0157,7.2711,7.4516,7.6388,7.8738,8.1407,8.3153,8.4746,8.6138,8.7677,8.957,9.0417,9.1221,9.3088,9.4182,9.4815,9.6431,9.7986,9.8949,9.9816,10.0584,10.1053,10.1019,10.0682,10.0376,10.0308,10.0308,10.0341,10.054,10.1236,10.2365,10.354,10.4459,10.5347,10.6054,10.6528,10.6934,10.7576,10.8354,10.9099,10.9809,11.0553,11.123,11.1399,11.1703,11.2346,11.3124,11.3902,11.4579,11.543,11.5976,11.6266,11.6406,11.7794,11.977,12.1537,12.2371,12.2578,12.2578,12.2578,12.2509,12.2026,12.1302,12.0612,11.9887,11.9198,11.8611,11.8404,11.8611,11.9058,11.9541,12.0127,12.0713,12.1191,12.1599,12.1795,12.1461,12.0978,12.0551,11.992,11.8821,11.7894,11.6676,11.5831,11.5797,11.5797,11.5729,11.5599,11.5299,11.4867,11.4262,11.3932,11.3664,11.3427,11.3253,11.3316,11.3378,11.351,11.3576,5.7656,5.7195,5.7165,5.7449,5.8104,5.9018,5.9714,6.0176,6.1394,6.1996,6.2518,6.3359,6.4416,6.5573,6.689,6.8204,6.9748,7.2165,7.45,7.7515,7.9574,8.1503,8.2966,8.435,8.5814,8.7431,8.9222,9.0102,9.075,9.2518,9.3939,9.4287,9.6002,9.7426,9.8819,9.9718,10.0285,10.0886,10.0952,10.0682,10.0409,10.0374,10.0407,10.0474,10.0937,10.1931,10.3024,10.3559,10.4345,10.5472,10.6153,10.6527,10.6968,10.7644,10.8422,10.9166,10.9911,11.0655,11.123,11.1433,11.1703,11.2515,11.3192,11.3902,11.4647,11.5391,11.5797,11.6078,11.6737,11.8128,12.0282,12.1813,12.2438,12.2578,12.2578,12.2578,12.2578,12.244,12.1991,12.1371,12.1026,12.0715,11.9956,11.9749,11.9922,12.0198,12.0577,12.106,12.1472,12.185,12.2017,12.2217,12.1928,12.149,12.0922,12.0224,11.9084,11.8088,11.6789,11.5904,11.5904,11.5763,11.5729,11.5357,11.4883,11.4486,11.4185,11.3719,11.3488,11.3255,11.3017,11.3116,11.3247,11.3412,11.3576,5.7324,5.6817,5.6995,5.7133,5.7473,5.8496,5.912,5.9663,6.0787,6.1545,6.207,6.2964,6.3915,6.488,6.6633,6.8069,6.9679,7.2421,7.4977,7.7349,7.9412,8.1017,8.2206,8.3744,8.545,8.6972,8.8661,8.9413,9.0331,9.2365,9.4117,9.4345,9.6325,9.812,9.9186,9.9885,10.0451,10.0785,10.0884,10.0682,10.0409,10.0672,10.107,10.1401,10.2031,10.2859,10.3488,10.3952,10.4637,10.5358,10.5909,10.6391,10.7035,10.7915,10.8727,10.9234,11.0249,11.0892,11.1331,11.1467,11.1839,11.2921,11.3395,11.4173,11.4917,11.5628,11.5763,11.5966,11.6761,11.8183,12.0409,12.1879,12.2472,12.2578,12.2578,12.2578,12.2578,12.2578,12.2336,12.1715,12.144,12.1026,12.0681,12.0646,12.075,12.0853,12.0957,12.144,12.1957,12.23,12.2369,12.2361,12.2217,12.1787,12.129,12.0455,11.932,11.8251,11.7187,11.6504,11.6194,11.5942,11.5729,11.5391,11.5154,11.485,11.4554,11.3985,11.3481,11.3217,11.3085,11.3085,11.3216,11.3414,11.3579,5.7071,5.6643,5.6877,5.7033,5.7141,5.7856,5.8595,5.9353,6.0201,6.0939,6.177,6.2593,6.3286,6.447,6.6344,6.7863,7.0017,7.2527,7.5085,7.6811,7.8767,8.0258,8.1495,8.3196,8.4801,8.6232,8.795,8.8811,8.9801,9.2193,9.3922,9.4721,9.7174,9.8543,9.9517,10.0384,10.0683,10.0749,10.0749,10.0747,10.0675,10.1103,10.1699,10.2561,10.3024,10.3521,10.3886,10.4354,10.4894,10.5281,10.5731,10.6319,10.7136,10.8287,10.9268,10.9369,11.0621,11.123,11.1365,11.1467,11.2008,11.3429,11.3598,11.4308,11.5357,11.5763,11.5797,11.6174,11.6896,11.8382,12.0362,12.1805,12.2472,12.2578,12.2578,12.2578,12.2578,12.2578,12.2302,12.1922,12.1853,12.1612,12.1267,12.1129,12.1302,12.1474,12.1577,12.1784,12.2302,12.2612,12.2541,12.2541,12.2327,12.2145,12.1684,12.0435,11.9299,11.8613,11.7544,11.6856,11.641,11.616,11.5909,11.5797,11.556,11.5256,11.4951,11.4549,11.4086,11.3484,11.3288,11.329,11.3458,11.3518,11.3685,5.7329,5.715,5.6814,5.682,5.7129,5.7646,5.8124,5.8546,5.9431,6.0201,6.0965,6.177,6.2593,6.3733,6.5464,6.8024,7.0747,7.295,7.462,7.6435,7.8201,7.9594,8.1287,8.256,8.3877,8.545,8.7239,8.8303,8.9276,9.1588,9.3616,9.4534,9.6859,9.8529,9.9172,9.9875,10.0444,10.0511,10.0544,10.0741,10.107,10.1534,10.2229,10.3256,10.3621,10.3919,10.4349,10.4581,10.4894,10.5314,10.6166,10.6853,10.7537,10.8554,10.9402,11.008,11.0858,11.1399,11.1399,11.1467,11.2177,11.3158,11.3666,11.4342,11.5391,11.5831,11.5898,11.6484,11.7697,11.9466,12.1114,12.1936,12.2435,12.2612,12.2541,12.2541,12.2541,12.2578,12.2543,12.2302,12.2302,12.2267,12.1957,12.175,12.1888,12.2026,12.2095,12.2164,12.244,12.2578,12.2578,12.2612,12.2541,12.2361,12.2039,12.0515,11.9239,11.8897,11.8108,11.704,11.6625,11.641,11.6194,11.5976,11.5797,11.5628,11.5357,11.5053,11.4685,11.4117,11.3862,11.3632,11.3803,11.4039,11.4374,5.732,5.7006,5.692,5.7051,5.7219,5.7563,5.7967,5.8442,5.9167,5.9817,6.0558,6.1495,6.2554,6.3804,6.5394,6.8247,7.1163,7.2658,7.4055,7.5783,7.7549,7.8926,8.0567,8.1823,8.3146,8.4599,8.633,8.7798,8.8635,9.1773,9.3522,9.48,9.6945,9.8464,9.9191,9.9764,10.0102,10.0306,10.0672,10.1037,10.1534,10.2031,10.3157,10.3819,10.4151,10.4349,10.4581,10.4681,10.4785,10.5131,10.6018,10.6905,10.7862,10.8817,10.9702,11.0315,11.0993,11.1399,11.1501,11.1703,11.2515,11.3429,11.3902,11.4647,11.5459,11.5864,11.6169,11.7196,11.8269,11.9934,12.1059,12.1748,12.1966,12.2039,12.2217,12.2361,12.2361,12.247,12.2541,12.2541,12.2509,12.2474,12.2509,12.244,12.2543,12.2578,12.2578,12.2578,12.2578,12.2578,12.2578,12.2578,12.2612,12.247,12.2189,12.0977,11.9734,11.9322,11.8529,11.7532,11.6838,11.6625,11.6266,11.5904,11.5831,11.5797,11.5729,11.5459,11.512,11.4854,11.4781,11.4657,11.4556,11.4659,11.4997,5.7309,5.6912,5.7191,5.7336,5.7324,5.7642,5.7959,5.8385,5.9103,5.9633,6.0099,6.1117,6.2385,6.3978,6.5887,6.8349,7.1351,7.2266,7.3367,7.4626,7.6587,7.8098,7.9437,8.0905,8.2483,8.3597,8.5379,8.6994,8.8462,9.149,9.3501,9.4857,9.6778,9.8419,9.9199,9.9618,9.9929,10.0334,10.1037,10.1467,10.2097,10.3091,10.4051,10.4614,10.4681,10.4648,10.4681,10.4681,10.4846,10.5254,10.6033,10.7089,10.8146,10.9276,11.0066,11.0481,11.1025,11.1365,11.1737,11.2076,11.2786,11.3835,11.4376,11.5019,11.5661,11.6135,11.6676,11.8104,11.9146,12.0088,12.0876,12.1269,12.149,12.1636,12.1855,12.2035,12.2001,12.2145,12.2327,12.2327,12.247,12.2541,12.2541,12.2578,12.2578,12.2578,12.2578,12.2578,12.2578,12.2578,12.2578,12.2578,12.2578,12.2578,12.2231,12.1576,12.0503,12.0021,11.909,11.8056,11.7363,11.6838,11.641,11.6083,11.5797,11.5797,11.5797,11.5831,11.5492,11.5405,11.5566,11.5544,11.5205,11.5276,11.5686,5.7837,5.7401,5.7464,5.7422,5.7359,5.7723,5.7869,5.7943,5.8809,5.9334,5.9736,6.0508,6.1758,6.3454,6.6033,6.8036,6.9735,7.1263,7.2439,7.3528,7.525,7.6989,7.8378,7.9616,8.1455,8.2858,8.4698,8.6077,8.7833,9.0838,9.2871,9.4007,9.6058,9.781,9.8419,9.9161,9.9823,10.0024,10.0896,10.2064,10.319,10.4084,10.4515,10.4648,10.4681,10.4681,10.4681,10.4714,10.4913,10.568,10.6665,10.7646,10.8628,10.9905,11.0527,11.0841,11.1188,11.167,11.2177,11.2515,11.3124,11.4139,11.468,11.512,11.5797,11.6575,11.7387,11.8875,11.9553,12.0041,12.0728,12.1161,12.1382,12.149,12.149,12.1563,12.1636,12.1783,12.2001,12.2145,12.2217,12.2398,12.247,12.2541,12.2578,12.2578,12.2578,12.2612,12.2578,12.2578,12.2578,12.2578,12.2578,12.2578,12.2371,12.1681,12.1026,12.0508,11.9507,11.8473,11.7712,11.7051,11.6835,11.6478,11.6189,11.6067,11.627,11.6237,11.5898,11.585,11.6012,11.5917,11.575,11.603,11.6374,5.8595,5.7883,5.7883,5.7844,5.7763,5.763,5.7867,5.827,5.8587,5.9232,6.0068,6.0647,6.1992,6.3984,6.6332,6.7909,6.9179,7.0388,7.1512,7.2662,7.4322,7.6088,7.7653,7.9017,8.0558,8.2338,8.4012,8.524,8.7143,8.9574,9.2069,9.2895,9.5095,9.6932,9.7592,9.8419,9.9282,10.023,10.1503,10.2912,10.3947,10.4515,10.4681,10.4714,10.4681,10.4681,10.4681,10.4714,10.5045,10.5741,10.6687,10.7595,10.8617,10.9685,11.0514,11.0834,11.1593,11.2143,11.2448,11.2888,11.3699,11.4477,11.5086,11.5695,11.6372,11.715,11.7962,11.9044,11.9736,12.0225,12.0496,12.0714,12.0789,12.0864,12.1121,12.1121,12.1269,12.149,12.1602,12.1783,12.1962,12.2142,12.2392,12.2642,12.2644,12.2578,12.2612,12.2647,12.2612,12.2578,12.2578,12.2578,12.2578,12.2578,12.2336,12.1888,12.1164,12.0577,11.9853,11.8783,11.7817,11.7262,11.7288,11.7241,11.7017,11.6969,11.6919,11.6547,11.6039,11.6198,11.6352,11.6397,11.6473,11.668,11.7027,5.9375,5.8572,5.8296,5.8149,5.8102,5.7678,5.7883,5.8474,5.8697,5.9333,6.0336,6.1266,6.2759,6.4482,6.6128,6.7521,6.8659,6.9861,7.0909,7.2257,7.3832,7.5605,7.7019,7.8459,7.9948,8.1905,8.3526,8.4696,8.6187,8.8357,9.0618,9.167,9.4053,9.5716,9.6784,9.7657,9.856,10.0426,10.1904,10.3216,10.4124,10.44,10.4538,10.4538,10.4609,10.4681,10.4714,10.4946,10.5343,10.6072,10.6834,10.7775,10.8765,10.9563,11.036,11.0922,11.1751,11.2542,11.3053,11.3666,11.4241,11.4917,11.5661,11.6406,11.715,11.7928,11.8706,11.9484,11.9966,12.0236,12.0262,12.0372,12.0447,12.0489,12.0598,12.0673,12.0857,12.1108,12.1297,12.1343,12.1558,12.1949,12.2202,12.2599,12.2711,12.2575,12.2647,12.2716,12.2854,12.2957,12.2992,12.313,12.3026,12.2923,12.244,12.2026,12.1336,12.0784,12.006,11.9473,11.8782,11.8365,11.836,11.821,11.7987,11.7944,11.8042,11.711,11.632,11.6682,11.6901,11.7087,11.7265,11.7438,11.7368,6.011,5.9536,5.8595,5.8181,5.8154,5.8125,5.8065,5.8197,5.8914,5.9476,6.0397,6.2013,6.3407,6.4639,6.5713,6.6949,6.8295,6.9875,7.1033,7.2279,7.3779,7.5309,7.6591,7.7759,7.9178,8.1229,8.2869,8.4072,8.5348,8.7037,8.9311,9.119,9.2971,9.4414,9.5799,9.6827,9.8463,10.0344,10.1897,10.2835,10.3546,10.3928,10.4178,10.425,10.4466,10.4714,10.4747,10.5244,10.5906,10.6635,10.7364,10.8093,10.8944,10.9571,11.0303,11.0996,11.2007,11.2901,11.3826,11.4342,11.4917,11.5661,11.6338,11.7048,11.7928,11.8672,11.9383,11.9924,12.0195,12.033,12.033,12.0296,12.0465,12.0812,12.1023,12.0989,12.1065,12.0929,12.1012,12.1,12.1393,12.2025,12.2418,12.2849,12.3145,12.3156,12.3302,12.3405,12.375,12.3888,12.3854,12.3819,12.3681,12.3336,12.2681,12.2198,12.1819,12.144,12.0853,12.0474,12.0059,11.978,11.9294,11.9354,11.9204,11.9167,11.9095,11.8468,11.7881,11.7578,11.7487,11.7433,11.7298,11.7228,11.7157,6.034,6.011,5.9421,5.8755,5.8181,5.8172,5.8148,5.8135,5.8766,5.9762,6.0892,6.2339,6.3465,6.442,6.5632,6.6714,6.7957,6.9883,7.096,7.2015,7.3375,7.4744,7.5975,7.7126,7.8489,8.0599,8.2132,8.3415,8.4732,8.6186,8.7426,8.9327,9.1551,9.2924,9.4227,9.6425,9.8619,10.0155,10.1604,10.2672,10.3359,10.3637,10.3855,10.4106,10.4178,10.4466,10.4709,10.5409,10.6138,10.69,10.7596,10.8358,10.9053,10.9756,11.041,11.1172,11.2254,11.3459,11.4222,11.4671,11.5222,11.6237,11.6812,11.7421,11.8571,11.9078,11.9552,11.9992,12.033,12.0465,12.0939,12.1006,12.1142,12.1446,12.1582,12.1514,12.1446,12.1345,12.1421,12.1581,12.208,12.2605,12.2899,12.3301,12.35,12.3729,12.3879,12.413,12.4475,12.4751,12.4682,12.4371,12.4164,12.3612,12.2923,12.2612,12.2336,12.1957,12.1577,12.1233,12.0853,12.0405,12.0057,12.0258,12.0457,12.0416,12.0238,11.9926,11.9341,11.8555,11.7874,11.7401,11.7228,11.7121,11.698,6.0454,6.0409,6.0087,5.9444,5.8664,5.8319,5.8259,5.8367,5.8523,5.9497,6.1174,6.2167,6.3086,6.4103,6.522,6.6628,6.8012,6.9774,7.1013,7.2287,7.3512,7.4691,7.5599,7.6673,7.8159,8.0102,8.1516,8.2801,8.4332,8.5456,8.6291,8.7766,8.9831,9.1516,9.3468,9.6192,9.8762,9.9849,10.1182,10.2226,10.2826,10.3048,10.327,10.371,10.3961,10.425,10.4764,10.5536,10.637,10.7066,10.7795,10.8523,10.9227,10.9907,11.0628,11.1525,11.2522,11.3838,11.4401,11.5138,11.5797,11.6676,11.7522,11.8199,11.8875,11.9383,11.989,12.0161,12.0465,12.0837,12.1446,12.1548,12.1751,12.2089,12.2123,12.2089,12.2123,12.2089,12.2157,12.2301,12.2658,12.2845,12.3473,12.3812,12.399,12.426,12.452,12.4774,12.5233,12.544,12.5475,12.5026,12.4509,12.3854,12.313,12.2785,12.244,12.2371,12.2026,12.1784,12.144,12.1026,12.1026,12.1331,12.1495,12.1558,12.1352,12.0906,12.015,11.9222,11.8468,11.768,11.7298,11.7157,11.698,6.0454,6.0454,6.0432,6.011,5.9536,5.8618,5.8466,5.8652,5.8344,5.8988,6.0447,6.1614,6.263,6.364,6.474,6.6124,6.7884,6.9866,7.1406,7.2382,7.3665,7.4955,7.565,7.6539,7.7619,7.9433,8.0798,8.219,8.3976,8.4567,8.5117,8.6269,8.8595,9.0961,9.2485,9.5884,9.8061,9.8991,10.0421,10.1249,10.1848,10.2226,10.2602,10.3048,10.3564,10.3961,10.4567,10.5749,10.6589,10.7085,10.8292,10.8954,10.9318,11.0023,11.0803,11.1875,11.2542,11.3726,11.5068,11.6219,11.6907,11.7285,11.8199,11.8943,11.9315,11.9755,12.0262,12.0499,12.0905,12.1311,12.1683,12.2055,12.2427,12.2766,12.2867,12.2935,12.3002,12.3002,12.3138,12.3205,12.2901,12.2911,12.3699,12.4381,12.4543,12.4783,12.5048,12.5448,12.588,12.6022,12.5984,12.5544,12.4888,12.4199,12.3509,12.2923,12.2578,12.2543,12.244,12.2164,12.2164,12.2026,12.2164,12.2403,12.2297,12.2086,12.2056,12.1886,12.0952,11.9985,11.8852,11.806,11.768,11.7228,11.7051,6.0454,6.0454,6.0454,6.0363,6.0133,5.949,5.8936,5.8443,5.8304,5.8903,6.0159,6.1073,6.2071,6.3169,6.4571,6.5855,6.7286,6.9245,7.0673,7.1814,7.3372,7.4199,7.5004,7.5979,7.7065,7.843,7.9852,8.1334,8.3018,8.37,8.4344,8.5522,8.7944,9.087,9.3655,9.6199,9.7365,9.8726,9.9845,10.0648,10.1268,10.1696,10.2075,10.2452,10.3048,10.3613,10.4326,10.5819,10.656,10.7162,10.8433,10.9178,10.9749,11.0412,11.1216,11.2206,11.3013,11.4353,11.5826,11.7075,11.8068,11.8455,11.8841,11.9484,11.9856,12.0059,12.0499,12.0939,12.1345,12.1886,12.2732,12.3002,12.3408,12.395,12.4119,12.4085,12.4119,12.4119,12.4153,12.4186,12.4017,12.3882,12.4332,12.4512,12.4705,12.4978,12.5206,12.5728,12.6164,12.6313,12.6313,12.585,12.5233,12.4578,12.3923,12.3302,12.275,12.2578,12.2578,12.2474,12.2543,12.2578,12.2578,12.2472,12.2578,12.2578,12.2371,12.2095,12.1576,12.0714,11.9749,11.8922,11.8471,11.7848,11.7192,6.073,6.0707,6.0546,6.0454,6.0386,5.9926,5.9123,5.8338,5.838,5.8905,5.9683,6.031,6.1376,6.2787,6.4034,6.5574,6.6713,6.8654,7.0311,7.14,7.2904,7.4005,7.4842,7.5656,7.7051,7.8119,7.9381,8.0841,8.2165,8.301,8.4366,8.6096,8.7718,9.0572,9.3348,9.525,9.6547,9.7823,9.8738,9.9863,10.0492,10.1005,10.139,10.2,10.2624,10.3226,10.4349,10.54,10.642,10.7326,10.8275,10.9193,10.9996,11.0767,11.1462,11.2343,11.3645,11.4869,11.6186,11.7624,11.8558,11.9216,11.9476,11.9789,12.0262,12.0533,12.0871,12.1311,12.1785,12.2563,12.3375,12.3679,12.4153,12.466,12.466,12.4626,12.4626,12.4559,12.4559,12.466,12.466,12.4694,12.4694,12.4772,12.4759,12.506,12.5317,12.5813,12.6269,12.6351,12.6433,12.6146,12.5643,12.5061,12.4371,12.3681,12.3164,12.2681,12.2578,12.2578,12.2578,12.2578,12.2578,12.2578,12.2578,12.2578,12.2509,12.2233,12.1886,12.1472,12.0888,12.0093,11.94,11.8674,11.7915,6.1235,6.1166,6.0684,6.05,6.0386,5.9972,5.9215,5.8296,5.8664,5.8924,5.9035,5.9601,6.0789,6.2312,6.3075,6.4481,6.6465,6.8188,6.9643,7.1183,7.2498,7.3774,7.4888,7.5845,7.6775,7.818,7.9369,8.0164,8.1434,8.2818,8.4717,8.6755,8.7703,8.9867,9.1997,9.3925,9.5424,9.6775,9.7964,9.8922,9.9704,10.01,10.0616,10.1345,10.2041,10.2917,10.4052,10.5146,10.6059,10.6973,10.7932,10.8774,10.9694,11.0582,11.1462,11.2642,11.4243,11.5295,11.6438,11.7924,11.8835,11.9536,11.9975,12.0186,12.0533,12.0973,12.1379,12.1988,12.2596,12.3138,12.3747,12.4153,12.4559,12.4694,12.4694,12.4694,12.4694,12.466,12.466,12.4694,12.4694,12.4694,12.4694,12.4694,12.4772,12.4851,12.5041,12.5274,12.5736,12.6117,12.6276,12.6473,12.5974,12.554,12.4888,12.4026,12.3302,12.2716,12.2612,12.2578,12.2578,12.2578,12.2578,12.2578,12.2578,12.2578,12.2543,12.2543,12.2509,12.206,12.1612,12.1059,12.0367,11.9883,11.9294,6.1834,6.1235,6.1074,6.0799,6.0477,6.0317,5.988,5.9284,5.9116,5.9108,5.9436,5.9919,6.064,6.1563,6.2737,6.3868,6.5277,6.6666,6.8146,6.971,7.1485,7.2656,7.3857,7.4974,7.5994,7.7205,7.8337,7.9474,8.0841,8.2393,8.4069,8.5761,8.702,8.8432,9.0168,9.2219,9.4198,9.5894,9.7065,9.8113,9.8985,9.9466,10.0021,10.0698,10.1671,10.2681,10.3917,10.4949,10.5894,10.6995,10.7607,10.8536,11.0267,11.0673,11.1387,11.368,11.4941,11.5893,11.6938,11.8107,11.9075,11.9618,12.0102,12.0592,12.0939,12.1379,12.1886,12.263,12.3239,12.3747,12.4085,12.4457,12.4694,12.4694,12.4694,12.4694,12.4694,12.4694,12.4694,12.4694,12.4694,12.4694,12.4694,12.4694,12.4694,12.4694,12.4772,12.4929,12.5196,12.566,12.5965,12.6242,12.6273,12.5699,12.5057,12.4268,12.3474,12.2819,12.2716,12.2612,12.2578,12.2578,12.2578,12.2578,12.2578,12.2578,12.2578,12.2578,12.2578,12.2578,12.2198,12.1819,12.1335,12.0885,12.04,6.2573,6.1832,6.1603,6.1235,6.0776,6.0546,6.0271,5.9949,5.949,5.9438,5.9639,6.0005,6.0528,6.1254,6.2237,6.3386,6.4632,6.5893,6.7394,6.9333,7.0475,7.2185,7.3327,7.442,7.5801,7.6794,7.7735,7.8852,8.0182,8.1973,8.3649,8.5361,8.6158,8.7312,8.8961,9.1049,9.2873,9.4631,9.6158,9.7199,9.8093,9.8855,9.9351,10.0305,10.1335,10.2478,10.3861,10.4832,10.5584,10.6655,10.7252,10.8423,11.0165,11.0891,11.2135,11.4276,11.5116,11.6002,11.6969,11.7983,11.882,11.9488,12.0109,12.0989,12.1471,12.1954,12.2596,12.3273,12.3747,12.422,12.4457,12.4694,12.4694,12.4694,12.4694,12.4694,12.4694,12.4694,12.4694,12.4694,12.4694,12.4694,12.4694,12.4694,12.4694,12.4694,12.4694,12.4772,12.4963,12.5274,12.5583,12.5779,12.6002,12.5895,12.5148,12.4575,12.4026,12.3336,12.2785,12.2681,12.2647,12.2647,12.2716,12.2681,12.2578,12.2681,12.2854,12.2647,12.2578,12.2647,12.2681,12.2336,12.2026,12.1783,12.1436,6.3244,6.2659,6.2199,6.1694,6.1258,6.0776,6.0546,6.0454,5.9995,5.9766,5.9766,5.9766,6.0357,6.1158,6.1939,6.3114,6.4249,6.55,6.6798,6.9195,7.0143,7.1628,7.3249,7.4827,7.5629,7.6894,7.7843,7.8243,7.9284,8.1104,8.325,8.5134,8.5852,8.683,8.8389,9.0336,9.1905,9.3028,9.5032,9.6603,9.7248,9.7889,9.8762,10.0347,10.127,10.1985,10.3691,10.4521,10.4825,10.5898,10.7019,10.8174,10.9958,11.1687,11.329,11.4462,11.5447,11.6255,11.6997,11.7946,11.8461,11.9267,12.0092,12.112,12.179,12.2495,12.3138,12.3747,12.4254,12.4423,12.4626,12.4694,12.4694,12.4694,12.4694,12.4694,12.4694,12.4694,12.4694,12.4694,12.4694,12.4694,12.4694,12.4694,12.4694,12.4694,12.4694,12.4694,12.4772,12.5041,12.5274,12.5506,12.576,12.5837,12.5517,12.5015,12.4682,12.4026,12.3371,12.3198,12.344,12.3233,12.2854,12.313,12.344,12.3164,12.3164,12.3164,12.3164,12.2957,12.2923,12.275,12.2578,12.2405,12.2196,6.385,6.2705,6.2199,6.1901,6.174,6.1258,6.1051,6.1006,6.05,6.0294,6.0294,6.034,6.0637,6.1166,6.1762,6.2755,6.3827,6.5058,6.6199,6.7641,6.9016,7.0761,7.2397,7.3652,7.4949,7.6162,7.7087,7.787,7.9196,8.0819,8.2449,8.4218,8.5135,8.6198,8.7756,8.9585,9.0981,9.1819,9.3776,9.5668,9.655,9.771,9.8859,10.0087,10.0984,10.231,10.3669,10.4375,10.4808,10.5626,10.6605,10.834,11.0606,11.2489,11.4016,11.5203,11.5944,11.6639,11.7282,11.7953,11.837,11.8986,11.9847,12.1021,12.1973,12.2813,12.3577,12.4186,12.4525,12.4626,12.4694,12.4694,12.4694,12.4694,12.4694,12.4694,12.4694,12.4694,12.4694,12.4694,12.4694,12.4694,12.4694,12.4694,12.4694,12.4694,12.4694,12.4694,12.4694,12.4851,12.5041,12.5351,12.5736,12.5851,12.5603,12.5419,12.5088,12.4854,12.4337,12.4233,12.4233,12.4026,12.3819,12.4199,12.444,12.4061,12.3957,12.4337,12.4233,12.3716,12.3302,12.3164,12.2819,12.2612,12.2578,6.4389,6.3404,6.2638,6.2314,6.2222,6.1786,6.1557,6.1511,6.1258,6.1143,6.1097,6.0937,6.0983,6.1396,6.1926,6.2596,6.3595,6.4577,6.5651,6.6818,6.8082,6.978,7.1291,7.2716,7.4234,7.5565,7.6426,7.7448,7.9046,7.9954,8.1327,8.3467,8.4503,8.5537,8.709,8.8887,9.0197,9.1012,9.2885,9.4402,9.5874,9.713,9.847,9.9655,10.1035,10.2448,10.3415,10.4154,10.4817,10.5798,10.7167,10.8942,11.104,11.2645,11.4075,11.5197,11.605,11.7004,11.7614,11.8039,11.8278,11.8862,12.0058,12.1324,12.2052,12.2972,12.4051,12.4592,12.4626,12.4694,12.4694,12.4694,12.4694,12.4694,12.4694,12.4694,12.4694,12.4694,12.4694,12.4694,12.4694,12.4694,12.4694,12.4694,12.4694,12.4694,12.4694,12.4694,12.4694,12.4694,12.4884,12.5119,12.5506,12.5855,12.5817,12.5712,12.5458,12.5295,12.5233,12.4888,12.4716,12.4785,12.4854,12.5026,12.5026,12.4785,12.482,12.513,12.4923,12.4371,12.3957,12.3612,12.3233,12.2819,12.2647,6.4647,6.4081,6.3215,6.2842,6.2751,6.2291,6.2085,6.2062,6.1993,6.1947,6.1878,6.1557,6.1442,6.1763,6.2245,6.2894,6.3594,6.4272,6.5235,6.6176,6.7399,6.922,7.0881,7.2403,7.3873,7.5288,7.6429,7.746,7.8776,7.9688,8.0986,8.2938,8.4062,8.5014,8.68,8.8102,8.9177,9.0518,9.198,9.3444,9.4878,9.6572,9.8064,9.9501,10.0887,10.2243,10.3182,10.3893,10.4674,10.5981,10.7596,10.9491,11.116,11.2637,11.3854,11.5011,11.6188,11.7009,11.7633,11.7879,11.8139,11.8823,12.0401,12.1501,12.2198,12.322,12.4266,12.4694,12.4694,12.4694,12.4694,12.4897,12.4897,12.4897,12.4897,12.4897,12.4897,12.4795,12.4694,12.4694,12.4694,12.4694,12.4694,12.4694,12.4694,12.4694,12.4694,12.4694,12.4694,12.4694,12.4772,12.4884,12.5119,12.5472,12.571,12.5967,12.5826,12.5905,12.5811,12.5436,12.5268,12.5613,12.5716,12.5509,12.544,12.5509,12.5509,12.5682,12.5371,12.5095,12.4544,12.4095,12.3509,12.3095,12.2716,6.4458,6.3676,6.3393,6.3347,6.3279,6.2819,6.2613,6.2521,6.2177,6.1993,6.2131,6.2406,6.2452,6.2358,6.2496,6.2983,6.354,6.4079,6.4594,6.5373,6.682,6.8601,7.0388,7.1912,7.3571,7.5254,7.6822,7.8115,7.87,7.9614,8.098,8.2691,8.3694,8.4797,8.5979,8.7311,8.8533,8.9875,9.1308,9.2688,9.4867,9.6543,9.8175,9.9617,10.0983,10.2272,10.3298,10.402,10.4638,10.5707,10.7407,10.9404,11.0996,11.2591,11.3845,11.4953,11.6211,11.7047,11.7572,11.7719,11.8059,11.8803,12.0282,12.1543,12.241,12.3659,12.4401,12.4694,12.4694,12.4694,12.4795,12.537,12.554,12.5607,12.5607,12.5573,12.554,12.5066,12.4694,12.4694,12.4694,12.4694,12.4694,12.4694,12.4694,12.4694,12.4694,12.4694,12.4694,12.4694,12.4694,12.4772,12.4884,12.5041,12.5429,12.6083,12.6152,12.6376,12.653,12.6298,12.6303,12.6716,12.6716,12.6303,12.6441,12.6647,12.6579,12.6268,12.6165,12.5854,12.5164,12.4578,12.3957,12.3371,12.2957]}]]